Time,TemperatureF,DewpointF,PressureIn,WindDirection,WindDirectionDegrees,WindSpeedMPH,WindSpeedGustMPH,Humidity,HourlyPrecipIn,Conditions,Clouds,dailyrainin,SoftwareType,DateUTC
2013-04-21 00:00:00,34.3,10.8,29.41,NNE,22,2.0,2.2,37,0.00,,---,0.00,VWS V14.01,2013-04-21 04:00:00,
2013-04-21 00:01:00,34.3,10.8,29.41,West,270,3.1,3.1,37,0.00,,---,0.00,VWS V14.01,2013-04-21 04:01:00,
2013-04-21 00:02:00,34.3,10.8,29.41,WNW,292,2.5,3.1,37,0.00,,---,0.00,VWS V14.01,2013-04-21 04:02:00,
2013-04-21 00:03:00,34.3,10.8,29.41,NW,315,2.9,2.9,37,0.00,,---,0.00,VWS V14.01,2013-04-21 04:03:00,
2013-04-21 00:04:00,34.3,10.8,29.41,NNW,338,3.8,3.8,37,0.00,,---,0.00,VWS V14.01,2013-04-21 04:04:00,
2013-04-21 00:05:00,34.3,10.8,29.41,WSW,248,3.8,3.8,37,0.00,,---,0.00,VWS V14.01,2013-04-21 04:05:00,
2013-04-21 00:06:00,34.3,10.8,29.41,WNW,292,2.5,3.8,37,0.00,,---,0.00,VWS V14.01,2013-04-21 04:06:00,
2013-04-21 00:07:00,34.3,10.8,29.41,NNW,338,2.5,2.5,37,0.00,,---,0.00,VWS V14.01,2013-04-21 04:07:00,
2013-04-21 00:08:00,34.3,10.8,29.41,West,270,3.8,3.8,37,0.00,,---,0.00,VWS V14.01,2013-04-21 04:08:00,
2013-04-21 00:09:00,34.3,10.8,29.41,NNW,338,1.3,3.8,37,0.00,,---,0.00,VWS V14.01,2013-04-21 04:09:00,
2013-04-21 00:10:00,34.3,10.8,29.41,SSW,202,4.0,4.0,37,0.00,,---,0.00,VWS V14.01,2013-04-21 04:10:00,
2013-04-21 00:11:00,34.3,11.4,29.41,WNW,292,2.9,4.0,38,0.00,,---,0.00,VWS V14.01,2013-04-21 04:11:00,
2013-04-21 00:12:00,34.3,11.4,29.41,NW,315,5.6,5.6,38,0.00,,---,0.00,VWS V14.01,2013-04-21 04:12:00,
2013-04-21 00:13:00,34.3,10.8,29.41,NW,315,4.3,5.6,37,0.00,,---,0.00,VWS V14.01,2013-04-21 04:13:00,
2013-04-21 00:14:00,34.3,10.8,29.41,WNW,292,3.4,4.3,37,0.00,,---,0.00,VWS V14.01,2013-04-21 04:14:00,
2013-04-21 00:15:00,34.2,10.6,29.41,WNW,292,3.4,3.4,37,0.00,,---,0.00,VWS V14.01,2013-04-21 04:15:00,
2013-04-21 00:16:00,34.2,10.6,29.41,WNW,292,5.8,5.8,37,0.00,,---,0.00,VWS V14.01,2013-04-21 04:16:00,
2013-04-21 00:17:00,34.2,10.6,29.41,NW,315,2.9,5.8,37,0.00,,---,0.00,VWS V14.01,2013-04-21 04:17:00,
2013-04-21 00:18:00,34.2,10.6,29.41,SSW,202,2.2,2.9,37,0.00,,---,0.00,VWS V14.01,2013-04-21 04:18:00,
2013-04-21 00:19:00,34.2,10.6,29.41,WNW,292,2.0,2.2,37,0.00,,---,0.00,VWS V14.01,2013-04-21 04:19:00,
2013-04-21 00:20:00,34.3,10.8,29.41,SSE,158,3.4,3.4,37,0.00,,---,0.00,VWS V14.01,2013-04-21 04:20:00,
2013-04-21 00:21:00,34.3,10.8,29.41,NW,315,2.2,3.4,37,0.00,,---,0.00,VWS V14.01,2013-04-21 04:21:00,
2013-04-21 00:22:00,34.2,10.6,29.41,NW,315,2.2,2.2,37,0.00,,---,0.00,VWS V14.01,2013-04-21 04:22:00,
2013-04-21 00:23:00,34.2,10.6,29.41,WSW,248,2.9,2.9,37,0.00,,---,0.00,VWS V14.01,2013-04-21 04:23:00,
2013-04-21 00:24:00,34.3,10.8,29.38,WSW,248,2.5,2.9,37,0.00,,---,0.00,VWS V14.01,2013-04-21 04:24:00,
2013-04-21 00:25:00,34.2,10.6,29.38,WNW,292,2.0,2.5,37,0.00,,---,0.00,VWS V14.01,2013-04-21 04:25:00,
2013-04-21 00:26:00,34.2,10.6,29.38,SSW,202,6.9,6.9,37,0.00,,---,0.00,VWS V14.01,2013-04-21 04:26:00,
2013-04-21 00:27:00,34.3,10.2,29.38,NW,315,2.5,6.9,36,0.00,,---,0.00,VWS V14.01,2013-04-21 04:27:00,
2013-04-21 00:28:00,34.3,10.2,29.38,WNW,292,3.1,3.1,36,0.00,,---,0.00,VWS V14.01,2013-04-21 04:28:00,
2013-04-21 00:29:00,34.3,10.2,29.38,West,270,3.1,3.1,36,0.00,,---,0.00,VWS V14.01,2013-04-21 04:29:00,
2013-04-21 00:30:00,34.3,10.2,29.38,West,270,2.7,3.1,36,0.00,,---,0.00,VWS V14.01,2013-04-21 04:30:00,
2013-04-21 00:31:00,34.2,10.0,29.38,WNW,292,2.5,3.4,36,0.00,,---,0.00,VWS V14.01,2013-04-21 04:31:00,
2013-04-21 00:32:00,34.2,10.0,29.38,WNW,292,2.5,2.5,36,0.00,,---,0.00,VWS V14.01,2013-04-21 04:32:00,
2013-04-21 00:33:00,34.2,10.6,29.38,WNW,292,2.7,2.7,37,0.00,,---,0.00,VWS V14.01,2013-04-21 04:33:00,
2013-04-21 00:34:00,34.2,10.0,29.38,WSW,248,2.0,2.7,36,0.00,,---,0.00,VWS V14.01,2013-04-21 04:34:00,
2013-04-21 00:35:00,34.2,10.0,29.38,SSW,202,3.1,3.1,36,0.00,,---,0.00,VWS V14.01,2013-04-21 04:35:00,
2013-04-21 00:36:00,34.2,10.0,29.38,WSW,248,5.8,5.8,36,0.00,,---,0.00,VWS V14.01,2013-04-21 04:36:00,
2013-04-21 00:37:00,34.2,10.0,29.38,NNW,338,2.0,5.8,36,0.00,,---,0.00,VWS V14.01,2013-04-21 04:37:00,
2013-04-21 00:38:00,34.2,10.0,29.38,WSW,248,2.9,2.9,36,0.00,,---,0.00,VWS V14.01,2013-04-21 04:38:00,
2013-04-21 00:39:00,34.2,10.0,29.38,SW,225,3.8,3.8,36,0.00,,---,0.00,VWS V14.01,2013-04-21 04:39:00,
2013-04-21 00:40:00,34.2,10.0,29.38,SW,225,3.8,3.8,36,0.00,,---,0.00,VWS V14.01,2013-04-21 04:40:00,
2013-04-21 00:41:00,34.0,10.5,29.38,West,270,3.4,3.8,37,0.00,,---,0.00,VWS V14.01,2013-04-21 04:41:00,
2013-04-21 00:42:00,34.0,10.5,29.38,SSW,202,1.6,3.4,37,0.00,,---,0.00,VWS V14.01,2013-04-21 04:42:00,
2013-04-21 00:43:00,34.0,9.9,29.38,NNE,22,0.9,1.6,36,0.00,,---,0.00,VWS V14.01,2013-04-21 04:43:00,
2013-04-21 00:44:00,34.0,9.9,29.38,SSW,202,4.0,4.0,36,0.00,,---,0.00,VWS V14.01,2013-04-21 04:44:00,
2013-04-21 00:45:00,34.0,10.5,29.38,NW,315,3.4,4.0,37,0.00,,---,0.00,VWS V14.01,2013-04-21 04:45:00,
2013-04-21 00:46:00,34.0,10.5,29.38,NW,315,3.4,3.4,37,0.00,,---,0.00,VWS V14.01,2013-04-21 04:46:00,
2013-04-21 00:47:00,34.0,9.9,29.38,NW,315,6.5,6.5,36,0.00,,---,0.00,VWS V14.01,2013-04-21 04:47:00,
2013-04-21 00:48:00,34.0,9.9,29.38,WSW,248,3.6,6.5,36,0.00,,---,0.00,VWS V14.01,2013-04-21 04:48:00,
2013-04-21 00:49:00,34.0,9.9,29.38,WSW,248,3.6,3.6,36,0.00,,---,0.00,VWS V14.01,2013-04-21 04:49:00,
2013-04-21 00:50:00,34.0,9.9,29.38,SSW,202,4.0,4.0,36,0.00,,---,0.00,VWS V14.01,2013-04-21 04:50:00,
2013-04-21 00:51:00,34.0,9.9,29.38,NW,315,2.9,4.0,36,0.00,,---,0.00,VWS V14.01,2013-04-21 04:51:00,
2013-04-21 00:52:00,34.0,10.5,29.38,SSW,202,3.1,3.1,37,0.00,,---,0.00,VWS V14.01,2013-04-21 04:52:00,
2013-04-21 00:53:00,34.0,10.5,29.38,WNW,292,3.8,3.8,37,0.00,,---,0.00,VWS V14.01,2013-04-21 04:53:00,
2013-04-21 00:54:00,34.0,9.9,29.41,WNW,292,3.8,3.8,36,0.00,,---,0.00,VWS V14.01,2013-04-21 04:54:00,
2013-04-21 00:55:00,33.8,9.7,29.41,NNE,22,3.1,3.8,36,0.00,,---,0.00,VWS V14.01,2013-04-21 04:55:00,
2013-04-21 00:56:00,33.8,9.7,29.41,WNW,292,4.0,4.0,36,0.00,,---,0.00,VWS V14.01,2013-04-21 04:56:00,
2013-04-21 00:57:00,33.8,10.3,29.41,WSW,248,5.8,5.8,37,0.00,,---,0.00,VWS V14.01,2013-04-21 04:57:00,
2013-04-21 00:58:00,33.8,10.3,29.41,WNW,292,4.0,5.8,37,0.00,,---,0.00,VWS V14.01,2013-04-21 04:58:00,
2013-04-21 00:59:00,33.8,10.3,29.41,SSW,202,3.1,4.0,37,0.00,,---,0.00,VWS V14.01,2013-04-21 04:59:00,
2013-04-21 01:00:00,33.8,10.3,29.41,WSW,248,4.0,4.0,37,0.00,,---,0.00,VWS V14.01,2013-04-21 05:00:00,
2013-04-21 01:01:00,33.8,10.3,29.41,WSW,248,4.5,4.5,37,0.00,,---,0.00,VWS V14.01,2013-04-21 05:01:00,
2013-04-21 01:02:00,33.8,10.3,29.41,WNW,292,2.0,4.5,37,0.00,,---,0.00,VWS V14.01,2013-04-21 05:02:00,
2013-04-21 01:03:00,33.8,10.3,29.41,SW,225,1.3,2.0,37,0.00,,---,0.00,VWS V14.01,2013-04-21 05:03:00,
2013-04-21 01:04:00,33.8,10.3,29.41,WSW,248,1.6,3.1,37,0.00,,---,0.00,VWS V14.01,2013-04-21 05:04:00,
2013-04-21 01:05:00,33.8,10.3,29.41,NNW,338,2.5,2.5,37,0.00,,---,0.00,VWS V14.01,2013-04-21 05:05:00,
2013-04-21 01:06:00,33.8,10.3,29.41,NW,315,6.9,6.9,37,0.00,,---,0.00,VWS V14.01,2013-04-21 05:06:00,
2013-04-21 01:07:00,33.8,10.3,29.41,NW,315,6.9,6.9,37,0.00,,---,0.00,VWS V14.01,2013-04-21 05:07:00,
2013-04-21 01:08:00,33.8,10.3,29.41,WNW,292,4.3,6.9,37,0.00,,---,0.00,VWS V14.01,2013-04-21 05:08:00,
2013-04-21 01:09:00,33.8,10.3,29.41,NNW,338,2.5,4.3,37,0.00,,---,0.00,VWS V14.01,2013-04-21 05:09:00,
2013-04-21 01:10:00,33.8,10.3,29.41,WNW,292,2.0,2.5,37,0.00,,---,0.00,VWS V14.01,2013-04-21 05:10:00,
2013-04-21 01:11:00,33.6,10.7,29.41,SSW,202,2.9,2.9,38,0.00,,---,0.00,VWS V14.01,2013-04-21 05:11:00,
2013-04-21 01:12:00,33.6,10.7,29.41,NNE,22,4.9,4.9,38,0.00,,---,0.00,VWS V14.01,2013-04-21 05:12:00,
2013-04-21 01:13:00,33.6,10.7,29.41,NNE,22,1.1,4.9,38,0.00,,---,0.00,VWS V14.01,2013-04-21 05:13:00,
2013-04-21 01:14:00,33.6,10.7,29.41,WNW,292,5.8,5.8,38,0.00,,---,0.00,VWS V14.01,2013-04-21 05:14:00,
2013-04-21 01:15:00,33.6,10.7,29.41,SSE,158,3.1,5.8,38,0.00,,---,0.00,VWS V14.01,2013-04-21 05:15:00,
2013-04-21 01:16:00,33.6,10.7,29.41,West,270,8.7,8.7,38,0.00,,---,0.00,VWS V14.01,2013-04-21 05:16:00,
2013-04-21 01:17:00,33.6,10.7,29.41,West,270,3.8,8.7,38,0.00,,---,0.00,VWS V14.01,2013-04-21 05:17:00,
2013-04-21 01:18:00,33.4,11.2,29.41,West,270,3.8,3.8,39,0.00,,---,0.00,VWS V14.01,2013-04-21 05:18:00,
2013-04-21 01:19:00,33.4,11.2,29.41,WSW,248,4.9,4.9,39,0.00,,---,0.00,VWS V14.01,2013-04-21 05:19:00,
2013-04-21 01:20:00,33.4,11.7,29.41,NW,315,2.0,4.9,40,0.00,,---,0.00,VWS V14.01,2013-04-21 05:20:00,
2013-04-21 01:21:00,33.4,11.7,29.41,WSW,248,3.4,3.4,40,0.00,,---,0.00,VWS V14.01,2013-04-21 05:21:00,
2013-04-21 01:22:00,33.4,11.7,29.41,WNW,292,3.6,3.6,40,0.00,,---,0.00,VWS V14.01,2013-04-21 05:22:00,
2013-04-21 01:23:00,33.4,11.7,29.41,SW,225,4.0,4.0,40,0.00,,---,0.00,VWS V14.01,2013-04-21 05:23:00,
2013-04-21 01:24:00,33.3,11.6,29.44,WNW,292,5.8,5.8,40,0.00,,---,0.00,VWS V14.01,2013-04-21 05:24:00,
2013-04-21 01:25:00,33.3,11.6,29.44,SW,225,1.3,5.8,40,0.00,,---,0.00,VWS V14.01,2013-04-21 05:25:00,
2013-04-21 01:26:00,33.3,11.6,29.44,WNW,292,2.9,2.9,40,0.00,,---,0.00,VWS V14.01,2013-04-21 05:26:00,
2013-04-21 01:27:00,33.1,12.0,29.44,SSW,202,3.6,3.6,41,0.00,,---,0.00,VWS V14.01,2013-04-21 05:27:00,
2013-04-21 01:28:00,33.1,12.0,29.44,NNW,338,4.0,4.0,41,0.00,,---,0.00,VWS V14.01,2013-04-21 05:28:00,
2013-04-21 01:29:00,32.7,11.6,29.44,WSW,248,4.0,5.6,41,0.00,,---,0.00,VWS V14.01,2013-04-21 05:29:00,
2013-04-21 01:30:00,32.7,11.6,29.44,NNW,338,2.0,4.0,41,0.00,,---,0.00,VWS V14.01,2013-04-21 05:30:00,
2013-04-21 01:31:00,32.5,12.0,29.44,WNW,292,8.1,8.1,42,0.00,,---,0.00,VWS V14.01,2013-04-21 05:31:00,
2013-04-21 01:32:00,32.4,11.9,29.44,ESE,112,2.7,8.1,42,0.00,,---,0.00,VWS V14.01,2013-04-21 05:32:00,
2013-04-21 01:33:00,32.4,11.9,29.44,WSW,248,2.5,2.7,42,0.00,,---,0.00,VWS V14.01,2013-04-21 05:33:00,
2013-04-21 01:34:00,32.4,11.9,29.44,WNW,292,4.3,4.3,42,0.00,,---,0.00,VWS V14.01,2013-04-21 05:34:00,
2013-04-21 01:35:00,32.4,11.9,29.44,WSW,248,2.0,4.3,42,0.00,,---,0.00,VWS V14.01,2013-04-21 05:35:00,
2013-04-21 01:36:00,32.4,11.9,29.44,NNW,338,3.4,3.4,42,0.00,,---,0.00,VWS V14.01,2013-04-21 05:36:00,
2013-04-21 01:37:00,32.4,11.9,29.44,NE,45,0.0,3.4,42,0.00,,---,0.00,VWS V14.01,2013-04-21 05:37:00,
2013-04-21 01:38:00,32.4,11.9,29.44,WSW,248,2.9,2.9,42,0.00,,---,0.00,VWS V14.01,2013-04-21 05:38:00,
2013-04-21 01:39:00,32.4,11.9,29.44,ESE,112,0.9,2.9,42,0.00,,---,0.00,VWS V14.01,2013-04-21 05:39:00,
2013-04-21 01:40:00,32.4,11.9,29.44,SSE,158,1.3,1.3,42,0.00,,---,0.00,VWS V14.01,2013-04-21 05:40:00,
2013-04-21 01:41:00,32.4,11.9,29.44,WNW,292,3.1,3.1,42,0.00,,---,0.00,VWS V14.01,2013-04-21 05:41:00,
2013-04-21 01:42:00,32.4,11.9,29.44,West,270,3.6,3.6,42,0.00,,---,0.00,VWS V14.01,2013-04-21 05:42:00,
2013-04-21 01:43:00,32.2,11.7,29.44,WSW,248,2.5,3.6,42,0.00,,---,0.00,VWS V14.01,2013-04-21 05:43:00,
2013-04-21 01:44:00,32.2,11.7,29.44,WNW,292,4.0,4.0,42,0.00,,---,0.00,VWS V14.01,2013-04-21 05:44:00,
2013-04-21 01:45:00,32.2,11.7,29.44,WNW,292,2.5,4.0,42,0.00,,---,0.00,VWS V14.01,2013-04-21 05:45:00,
2013-04-21 01:46:00,32.2,11.7,29.44,SW,225,3.8,3.8,42,0.00,,---,0.00,VWS V14.01,2013-04-21 05:46:00,
2013-04-21 01:47:00,32.2,11.7,29.44,WSW,248,3.4,3.8,42,0.00,,---,0.00,VWS V14.01,2013-04-21 05:47:00,
2013-04-21 01:48:00,32.2,11.7,29.44,SSW,202,1.6,3.4,42,0.00,,---,0.00,VWS V14.01,2013-04-21 05:48:00,
2013-04-21 01:49:00,32.2,11.7,29.44,SSE,158,2.0,2.0,42,0.00,,---,0.00,VWS V14.01,2013-04-21 05:49:00,
2013-04-21 01:50:00,32.2,11.7,29.44,SSE,158,2.5,2.5,42,0.00,,---,0.00,VWS V14.01,2013-04-21 05:50:00,
2013-04-21 01:51:00,32.2,11.7,29.44,South,180,1.3,2.5,42,0.00,,---,0.00,VWS V14.01,2013-04-21 05:51:00,
2013-04-21 01:52:00,32.0,11.5,29.44,ENE,68,2.7,2.7,42,0.00,,---,0.00,VWS V14.01,2013-04-21 05:52:00,
2013-04-21 01:53:00,32.0,11.5,29.44,SSE,158,2.7,2.7,42,0.00,,---,0.00,VWS V14.01,2013-04-21 05:53:00,
2013-04-21 01:54:00,32.0,11.5,29.44,SSE,158,1.6,2.7,42,0.00,,---,0.00,VWS V14.01,2013-04-21 05:54:00,
2013-04-21 01:55:00,32.0,11.5,29.44,SSE,158,3.1,3.1,42,0.00,,---,0.00,VWS V14.01,2013-04-21 05:55:00,
2013-04-21 01:56:00,32.0,11.5,29.44,WNW,292,2.5,3.1,42,0.00,,---,0.00,VWS V14.01,2013-04-21 05:56:00,
2013-04-21 01:57:00,32.0,11.5,29.44,SSW,202,2.9,3.4,42,0.00,,---,0.00,VWS V14.01,2013-04-21 05:57:00,
2013-04-21 01:58:00,32.0,11.5,29.44,SW,225,1.6,2.9,42,0.00,,---,0.00,VWS V14.01,2013-04-21 05:58:00,
2013-04-21 01:59:00,31.8,11.4,29.44,SW,225,1.3,1.6,42,0.00,,---,0.00,VWS V14.01,2013-04-21 05:59:00,
2013-04-21 02:00:00,31.8,11.4,29.44,WNW,292,2.9,2.9,42,0.00,,---,0.00,VWS V14.01,2013-04-21 06:00:00,
2013-04-21 02:01:00,31.6,11.2,29.44,NNW,338,11.0,11.0,42,0.00,,---,0.00,VWS V14.01,2013-04-21 06:01:00,
2013-04-21 02:02:00,31.6,11.2,29.44,WNW,292,2.9,11.0,42,0.00,,---,0.00,VWS V14.01,2013-04-21 06:02:00,
2013-04-21 02:03:00,31.6,11.2,29.44,West,270,2.9,2.9,42,0.00,,---,0.00,VWS V14.01,2013-04-21 06:03:00,
2013-04-21 02:04:00,31.6,11.7,29.44,WNW,292,3.8,3.8,43,0.00,,---,0.00,VWS V14.01,2013-04-21 06:04:00,
2013-04-21 02:05:00,31.6,11.7,29.44,WSW,248,3.6,3.8,43,0.00,,---,0.00,VWS V14.01,2013-04-21 06:05:00,
2013-04-21 02:06:00,31.6,11.2,29.44,West,270,2.7,3.6,42,0.00,,---,0.00,VWS V14.01,2013-04-21 06:06:00,
2013-04-21 02:07:00,31.6,11.2,29.44,NW,315,2.9,2.9,42,0.00,,---,0.00,VWS V14.01,2013-04-21 06:07:00,
2013-04-21 02:08:00,31.6,11.2,29.44,NNW,338,5.4,5.4,42,0.00,,---,0.00,VWS V14.01,2013-04-21 06:08:00,
2013-04-21 02:09:00,31.6,11.2,29.44,SW,225,2.7,5.4,42,0.00,,---,0.00,VWS V14.01,2013-04-21 06:09:00,
2013-04-21 02:10:00,31.6,11.2,29.44,WSW,248,2.7,2.7,42,0.00,,---,0.00,VWS V14.01,2013-04-21 06:10:00,
2013-04-21 02:11:00,31.6,11.2,29.44,WSW,248,2.7,2.7,42,0.00,,---,0.00,VWS V14.01,2013-04-21 06:11:00,
2013-04-21 02:12:00,31.6,11.2,29.44,WNW,292,3.1,3.1,42,0.00,,---,0.00,VWS V14.01,2013-04-21 06:12:00,
2013-04-21 02:13:00,31.6,11.2,29.44,SSW,202,5.8,5.8,42,0.00,,---,0.00,VWS V14.01,2013-04-21 06:13:00,
2013-04-21 02:14:00,31.6,11.2,29.44,NW,315,3.8,5.8,42,0.00,,---,0.00,VWS V14.01,2013-04-21 06:14:00,
2013-04-21 02:15:00,31.6,11.2,29.44,WNW,292,4.0,4.0,42,0.00,,---,0.00,VWS V14.01,2013-04-21 06:15:00,
2013-04-21 02:16:00,31.6,11.2,29.44,WSW,248,4.0,4.0,42,0.00,,---,0.00,VWS V14.01,2013-04-21 06:16:00,
2013-04-21 02:17:00,31.5,11.0,29.44,WNW,292,2.5,4.0,42,0.00,,---,0.00,VWS V14.01,2013-04-21 06:17:00,
2013-04-21 02:18:00,31.5,11.0,29.44,SSW,202,2.0,2.5,42,0.00,,---,0.00,VWS V14.01,2013-04-21 06:18:00,
2013-04-21 02:19:00,31.5,11.0,29.44,WSW,248,3.4,3.4,42,0.00,,---,0.00,VWS V14.01,2013-04-21 06:19:00,
2013-04-21 02:20:00,31.5,11.6,29.44,WSW,248,3.4,3.4,43,0.00,,---,0.00,VWS V14.01,2013-04-21 06:20:00,
2013-04-21 02:21:00,31.5,11.6,29.44,WSW,248,3.4,3.4,43,0.00,,---,0.00,VWS V14.01,2013-04-21 06:21:00,
2013-04-21 02:22:00,31.5,11.0,29.44,WNW,292,2.5,3.4,42,0.00,,---,0.00,VWS V14.01,2013-04-21 06:22:00,
2013-04-21 02:23:00,31.5,11.0,29.44,WNW,292,3.8,3.8,42,0.00,,---,0.00,VWS V14.01,2013-04-21 06:23:00,
2013-04-21 02:24:00,31.5,11.6,29.44,West,270,2.9,3.8,43,0.00,,---,0.00,VWS V14.01,2013-04-21 06:24:00,
2013-04-21 02:25:00,31.5,11.6,29.44,SSW,202,2.9,2.9,43,0.00,,---,0.00,VWS V14.01,2013-04-21 06:25:00,
2013-04-21 02:26:00,31.5,11.6,29.44,SSW,202,2.9,2.9,43,0.00,,---,0.00,VWS V14.01,2013-04-21 06:26:00,
2013-04-21 02:27:00,31.5,11.6,29.44,WNW,292,3.4,3.4,43,0.00,,---,0.00,VWS V14.01,2013-04-21 06:27:00,
2013-04-21 02:28:00,31.5,11.6,29.44,West,270,2.9,3.4,43,0.00,,---,0.00,VWS V14.01,2013-04-21 06:28:00,
2013-04-21 02:29:00,31.3,10.9,29.44,WSW,248,5.6,5.6,42,0.00,,---,0.00,VWS V14.01,2013-04-21 06:29:00,
2013-04-21 02:30:00,31.3,11.4,29.44,WNW,292,4.3,4.3,43,0.00,,---,0.00,VWS V14.01,2013-04-21 06:30:00,
2013-04-21 02:31:00,31.3,11.4,29.44,WNW,292,4.3,4.3,43,0.00,,---,0.00,VWS V14.01,2013-04-21 06:31:00,
2013-04-21 02:32:00,31.3,11.4,29.44,WSW,248,5.6,5.6,43,0.00,,---,0.00,VWS V14.01,2013-04-21 06:32:00,
2013-04-21 02:33:00,31.3,11.4,29.44,WSW,248,2.9,5.6,43,0.00,,---,0.00,VWS V14.01,2013-04-21 06:33:00,
2013-04-21 02:34:00,31.3,10.9,29.44,WNW,292,4.7,4.7,42,0.00,,---,0.00,VWS V14.01,2013-04-21 06:34:00,
2013-04-21 02:35:00,31.3,10.9,29.44,West,270,2.9,2.9,42,0.00,,---,0.00,VWS V14.01,2013-04-21 06:35:00,
2013-04-21 02:36:00,31.3,10.9,29.44,WSW,248,2.7,2.9,42,0.00,,---,0.00,VWS V14.01,2013-04-21 06:36:00,
2013-04-21 02:37:00,31.3,10.9,29.44,West,270,2.0,2.7,42,0.00,,---,0.00,VWS V14.01,2013-04-21 06:37:00,
2013-04-21 02:38:00,31.3,10.9,29.44,WSW,248,0.9,2.0,42,0.00,,---,0.00,VWS V14.01,2013-04-21 06:38:00,
2013-04-21 02:39:00,31.3,10.9,29.44,NNW,338,2.0,2.0,42,0.00,,---,0.00,VWS V14.01,2013-04-21 06:39:00,
2013-04-21 02:40:00,31.3,10.9,29.44,SW,225,3.1,3.1,42,0.00,,---,0.00,VWS V14.01,2013-04-21 06:40:00,
2013-04-21 02:41:00,31.3,10.9,29.44,SW,225,3.1,3.1,42,0.00,,---,0.00,VWS V14.01,2013-04-21 06:41:00,
2013-04-21 02:42:00,31.3,10.9,29.44,SW,225,2.9,3.1,42,0.00,,---,0.00,VWS V14.01,2013-04-21 06:42:00,
2013-04-21 02:43:00,31.3,10.9,29.44,WNW,292,3.1,3.8,42,0.00,,---,0.00,VWS V14.01,2013-04-21 06:43:00,
2013-04-21 02:44:00,31.3,10.9,29.44,West,270,3.6,3.6,42,0.00,,---,0.00,VWS V14.01,2013-04-21 06:44:00,
2013-04-21 02:45:00,31.3,10.9,29.44,WSW,248,2.0,3.4,42,0.00,,---,0.00,VWS V14.01,2013-04-21 06:45:00,
2013-04-21 02:46:00,31.3,10.9,29.44,WSW,248,2.0,3.4,42,0.00,,---,0.00,VWS V14.01,2013-04-21 06:46:00,
2013-04-21 02:47:00,31.3,10.9,29.44,West,270,3.1,3.1,42,0.00,,---,0.00,VWS V14.01,2013-04-21 06:47:00,
2013-04-21 02:48:00,31.3,10.9,29.44,SSE,158,2.5,3.1,42,0.00,,---,0.00,VWS V14.01,2013-04-21 06:48:00,
2013-04-21 02:49:00,31.3,10.9,29.44,WNW,292,2.5,2.5,42,0.00,,---,0.00,VWS V14.01,2013-04-21 06:49:00,
2013-04-21 02:50:00,31.3,10.9,29.44,SSW,202,2.9,2.9,42,0.00,,---,0.00,VWS V14.01,2013-04-21 06:50:00,
2013-04-21 02:51:00,31.3,10.9,29.44,SSW,202,2.9,2.9,42,0.00,,---,0.00,VWS V14.01,2013-04-21 06:51:00,
2013-04-21 02:52:00,31.3,10.9,29.44,West,270,3.8,3.8,42,0.00,,---,0.00,VWS V14.01,2013-04-21 06:52:00,
2013-04-21 02:53:00,31.3,10.9,29.44,West,270,3.8,3.8,42,0.00,,---,0.00,VWS V14.01,2013-04-21 06:53:00,
2013-04-21 02:54:00,31.3,10.9,29.47,NNW,338,3.4,3.8,42,0.00,,---,0.00,VWS V14.01,2013-04-21 06:54:00,
2013-04-21 02:55:00,31.3,10.9,29.47,NNW,338,5.8,5.8,42,0.00,,---,0.00,VWS V14.01,2013-04-21 06:55:00,
2013-04-21 02:56:00,31.3,10.9,29.47,NNW,338,5.8,5.8,42,0.00,,---,0.00,VWS V14.01,2013-04-21 06:56:00,
2013-04-21 02:57:00,31.1,10.7,29.47,WSW,248,3.4,5.8,42,0.00,,---,0.00,VWS V14.01,2013-04-21 06:57:00,
2013-04-21 02:58:00,31.1,10.7,29.47,WSW,248,3.4,3.4,42,0.00,,---,0.00,VWS V14.01,2013-04-21 06:58:00,
2013-04-21 02:59:00,31.3,10.9,29.47,WSW,248,3.6,3.6,42,0.00,,---,0.00,VWS V14.01,2013-04-21 06:59:00,
2013-04-21 03:00:00,31.3,10.9,29.47,NNW,338,3.8,5.8,42,0.00,,---,0.00,VWS V14.01,2013-04-21 07:00:00,
2013-04-21 03:01:00,31.3,10.9,29.47,NNW,338,3.8,5.8,42,0.00,,---,0.00,VWS V14.01,2013-04-21 07:01:00,
2013-04-21 03:02:00,31.3,10.9,29.47,WNW,292,4.3,4.3,42,0.00,,---,0.00,VWS V14.01,2013-04-21 07:02:00,
2013-04-21 03:03:00,31.3,10.9,29.47,WSW,248,6.3,6.3,42,0.00,,---,0.00,VWS V14.01,2013-04-21 07:03:00,
2013-04-21 03:04:00,31.1,10.7,29.47,WSW,248,3.8,6.3,42,0.00,,---,0.00,VWS V14.01,2013-04-21 07:04:00,
2013-04-21 03:05:00,31.1,10.7,29.47,WSW,248,2.5,2.9,42,0.00,,---,0.00,VWS V14.01,2013-04-21 07:05:00,
2013-04-21 03:06:00,31.1,10.7,29.47,WSW,248,2.5,2.9,42,0.00,,---,0.00,VWS V14.01,2013-04-21 07:06:00,
2013-04-21 03:07:00,31.1,10.7,29.47,WNW,292,4.0,4.0,42,0.00,,---,0.00,VWS V14.01,2013-04-21 07:07:00,
2013-04-21 03:08:00,31.1,10.7,29.47,West,270,4.9,4.9,42,0.00,,---,0.00,VWS V14.01,2013-04-21 07:08:00,
2013-04-21 03:09:00,31.1,10.7,29.47,West,270,2.7,4.9,42,0.00,,---,0.00,VWS V14.01,2013-04-21 07:09:00,
2013-04-21 03:10:00,31.1,10.7,29.47,WNW,292,3.8,3.8,42,0.00,,---,0.00,VWS V14.01,2013-04-21 07:10:00,
2013-04-21 03:11:00,31.1,10.7,29.47,WNW,292,3.8,3.8,42,0.00,,---,0.00,VWS V14.01,2013-04-21 07:11:00,
2013-04-21 03:12:00,31.1,10.7,29.47,WNW,292,0.9,3.8,42,0.00,,---,0.00,VWS V14.01,2013-04-21 07:12:00,
2013-04-21 03:13:00,31.1,10.7,29.47,WSW,248,1.1,2.9,42,0.00,,---,0.00,VWS V14.01,2013-04-21 07:13:00,
2013-04-21 03:14:00,31.1,10.7,29.47,WSW,248,3.1,3.1,42,0.00,,---,0.00,VWS V14.01,2013-04-21 07:14:00,
2013-04-21 03:15:00,31.1,10.7,29.47,West,270,3.8,3.8,42,0.00,,---,0.00,VWS V14.01,2013-04-21 07:15:00,
2013-04-21 03:16:00,31.1,10.7,29.47,WSW,248,5.4,5.4,42,0.00,,---,0.00,VWS V14.01,2013-04-21 07:16:00,
2013-04-21 03:17:00,31.1,10.7,29.47,NW,315,3.6,5.4,42,0.00,,---,0.00,VWS V14.01,2013-04-21 07:17:00,
2013-04-21 03:18:00,31.1,10.7,29.47,ESE,112,2.2,3.6,42,0.00,,---,0.00,VWS V14.01,2013-04-21 07:18:00,
2013-04-21 03:19:00,31.1,10.7,29.47,West,270,1.6,2.2,42,0.00,,---,0.00,VWS V14.01,2013-04-21 07:19:00,
2013-04-21 03:20:00,31.1,10.7,29.47,WNW,292,1.3,1.3,42,0.00,,---,0.00,VWS V14.01,2013-04-21 07:20:00,
2013-04-21 03:21:00,31.1,10.7,29.47,West,270,3.1,3.1,42,0.00,,---,0.00,VWS V14.01,2013-04-21 07:21:00,
2013-04-21 03:22:00,31.1,10.7,29.47,SW,225,2.9,3.1,42,0.00,,---,0.00,VWS V14.01,2013-04-21 07:22:00,
2013-04-21 03:23:00,31.1,10.7,29.47,WNW,292,2.2,2.9,42,0.00,,---,0.00,VWS V14.01,2013-04-21 07:23:00,
2013-04-21 03:24:00,31.1,10.7,29.50,West,270,2.7,2.7,42,0.00,,---,0.00,VWS V14.01,2013-04-21 07:24:00,
2013-04-21 03:25:00,31.1,10.7,29.50,SSE,158,2.5,4.0,42,0.00,,---,0.00,VWS V14.01,2013-04-21 07:25:00,
2013-04-21 03:26:00,31.1,10.7,29.50,SSE,158,2.5,4.0,42,0.00,,---,0.00,VWS V14.01,2013-04-21 07:26:00,
2013-04-21 03:27:00,31.1,10.7,29.50,WNW,292,5.6,5.6,42,0.00,,---,0.00,VWS V14.01,2013-04-21 07:27:00,
2013-04-21 03:28:00,31.1,10.7,29.50,NNW,338,7.4,7.4,42,0.00,,---,0.00,VWS V14.01,2013-04-21 07:28:00,
2013-04-21 03:29:00,31.1,10.7,29.50,WSW,248,4.0,7.4,42,0.00,,---,0.00,VWS V14.01,2013-04-21 07:29:00,
2013-04-21 03:30:00,31.1,10.7,29.50,NNW,338,3.4,3.4,42,0.00,,---,0.00,VWS V14.01,2013-04-21 07:30:00,
2013-04-21 03:31:00,31.1,10.7,29.50,WSW,248,4.0,4.0,42,0.00,,---,0.00,VWS V14.01,2013-04-21 07:31:00,
2013-04-21 03:32:00,31.1,10.7,29.50,WNW,292,3.6,4.0,42,0.00,,---,0.00,VWS V14.01,2013-04-21 07:32:00,
2013-04-21 03:33:00,31.1,10.7,29.50,NW,315,6.3,6.3,42,0.00,,---,0.00,VWS V14.01,2013-04-21 07:33:00,
2013-04-21 03:34:00,31.1,10.7,29.50,SSW,202,4.0,6.3,42,0.00,,---,0.00,VWS V14.01,2013-04-21 07:34:00,
2013-04-21 03:35:00,31.1,10.7,29.50,NW,315,2.0,2.0,42,0.00,,---,0.00,VWS V14.01,2013-04-21 07:35:00,
2013-04-21 03:36:00,31.1,10.7,29.50,WNW,292,3.1,3.1,42,0.00,,---,0.00,VWS V14.01,2013-04-21 07:36:00,
2013-04-21 03:37:00,31.1,10.7,29.50,West,270,3.4,3.4,42,0.00,,---,0.00,VWS V14.01,2013-04-21 07:37:00,
2013-04-21 03:38:00,31.1,10.7,29.50,WSW,248,5.6,5.6,42,0.00,,---,0.00,VWS V14.01,2013-04-21 07:38:00,
2013-04-21 03:39:00,31.1,10.7,29.50,WSW,248,6.3,6.3,42,0.00,,---,0.00,VWS V14.01,2013-04-21 07:39:00,
2013-04-21 03:40:00,31.1,10.7,29.50,SSW,202,2.7,4.0,42,0.00,,---,0.00,VWS V14.01,2013-04-21 07:40:00,
2013-04-21 03:41:00,31.1,10.7,29.50,SSW,202,2.7,4.0,42,0.00,,---,0.00,VWS V14.01,2013-04-21 07:41:00,
2013-04-21 03:42:00,31.1,10.7,29.50,WSW,248,4.3,4.3,42,0.00,,---,0.00,VWS V14.01,2013-04-21 07:42:00,
2013-04-21 03:43:00,31.1,10.7,29.50,SSW,202,3.4,4.3,42,0.00,,---,0.00,VWS V14.01,2013-04-21 07:43:00,
2013-04-21 03:44:00,31.1,10.7,29.50,NE,45,4.3,4.3,42,0.00,,---,0.00,VWS V14.01,2013-04-21 07:44:00,
2013-04-21 03:45:00,31.1,10.2,29.50,WSW,248,5.4,5.4,41,0.00,,---,0.00,VWS V14.01,2013-04-21 07:45:00,
2013-04-21 03:46:00,31.1,10.2,29.50,WSW,248,5.4,5.4,41,0.00,,---,0.00,VWS V14.01,2013-04-21 07:46:00,
2013-04-21 03:47:00,30.9,10.0,29.50,WNW,292,3.6,5.4,41,0.00,,---,0.00,VWS V14.01,2013-04-21 07:47:00,
2013-04-21 03:48:00,30.9,10.0,29.50,West,270,1.3,3.6,41,0.00,,---,0.00,VWS V14.01,2013-04-21 07:48:00,
2013-04-21 03:49:00,31.1,10.2,29.50,WSW,248,2.0,2.0,41,0.00,,---,0.00,VWS V14.01,2013-04-21 07:49:00,
2013-04-21 03:50:00,30.9,10.0,29.50,SSE,158,2.2,2.2,41,0.00,,---,0.00,VWS V14.01,2013-04-21 07:50:00,
2013-04-21 03:51:00,30.9,10.0,29.50,SSW,202,2.5,2.5,41,0.00,,---,0.00,VWS V14.01,2013-04-21 07:51:00,
2013-04-21 03:52:00,30.9,10.5,29.50,South,180,1.1,2.5,42,0.00,,---,0.00,VWS V14.01,2013-04-21 07:52:00,
2013-04-21 03:53:00,30.9,10.5,29.50,West,270,4.7,4.7,42,0.00,,---,0.00,VWS V14.01,2013-04-21 07:53:00,
2013-04-21 03:54:00,30.9,10.5,29.50,WSW,248,2.5,4.7,42,0.00,,---,0.00,VWS V14.01,2013-04-21 07:54:00,
2013-04-21 03:55:00,30.9,10.5,29.50,West,270,2.5,2.5,42,0.00,,---,0.00,VWS V14.01,2013-04-21 07:55:00,
2013-04-21 03:56:00,30.9,10.5,29.50,SSW,202,3.1,3.1,42,0.00,,---,0.00,VWS V14.01,2013-04-21 07:56:00,
2013-04-21 03:57:00,30.7,10.4,29.50,WSW,248,2.5,3.1,42,0.00,,---,0.00,VWS V14.01,2013-04-21 07:57:00,
2013-04-21 03:58:00,30.7,10.4,29.50,SSE,158,2.0,2.5,42,0.00,,---,0.00,VWS V14.01,2013-04-21 07:58:00,
2013-04-21 03:59:00,30.7,10.4,29.50,WNW,292,2.9,2.9,42,0.00,,---,0.00,VWS V14.01,2013-04-21 07:59:00,
2013-04-21 04:00:00,30.6,10.2,29.50,NNW,338,2.5,2.5,42,0.00,,---,0.00,VWS V14.01,2013-04-21 08:00:00,
2013-04-21 04:01:00,30.6,10.2,29.50,WNW,292,4.0,4.0,42,0.00,,---,0.00,VWS V14.01,2013-04-21 08:01:00,
2013-04-21 04:02:00,30.6,10.2,29.50,WNW,292,4.0,4.0,42,0.00,,---,0.00,VWS V14.01,2013-04-21 08:02:00,
2013-04-21 04:03:00,30.6,10.2,29.50,WNW,292,3.1,4.0,42,0.00,,---,0.00,VWS V14.01,2013-04-21 08:03:00,
2013-04-21 04:04:00,30.6,10.2,29.50,WNW,292,3.8,3.8,42,0.00,,---,0.00,VWS V14.01,2013-04-21 08:04:00,
2013-04-21 04:05:00,30.4,10.1,29.50,WNW,292,1.3,2.9,42,0.00,,---,0.00,VWS V14.01,2013-04-21 08:05:00,
2013-04-21 04:06:00,30.4,10.1,29.50,WNW,292,1.3,2.9,42,0.00,,---,0.00,VWS V14.01,2013-04-21 08:06:00,
2013-04-21 04:07:00,30.4,10.1,29.50,WNW,292,4.7,4.7,42,0.00,,---,0.00,VWS V14.01,2013-04-21 08:07:00,
2013-04-21 04:08:00,30.4,10.1,29.50,SSW,202,2.9,4.7,42,0.00,,---,0.00,VWS V14.01,2013-04-21 08:08:00,
2013-04-21 04:09:00,30.4,10.1,29.50,SSW,202,2.0,2.9,42,0.00,,---,0.00,VWS V14.01,2013-04-21 08:09:00,
2013-04-21 04:10:00,30.2,10.4,29.50,NNW,338,3.6,3.6,43,0.00,,---,0.00,VWS V14.01,2013-04-21 08:10:00,
2013-04-21 04:11:00,30.2,10.4,29.50,NNW,338,3.6,3.6,43,0.00,,---,0.00,VWS V14.01,2013-04-21 08:11:00,
2013-04-21 04:12:00,30.2,10.4,29.53,West,270,2.9,3.6,43,0.00,,---,0.00,VWS V14.01,2013-04-21 08:12:00,
2013-04-21 04:13:00,30.2,10.4,29.53,WNW,292,2.7,2.9,43,0.00,,---,0.00,VWS V14.01,2013-04-21 08:13:00,
2013-04-21 04:14:00,30.2,10.4,29.53,SW,225,4.5,4.5,43,0.00,,---,0.00,VWS V14.01,2013-04-21 08:14:00,
2013-04-21 04:15:00,30.2,10.4,29.53,WSW,248,3.1,3.1,43,0.00,,---,0.00,VWS V14.01,2013-04-21 08:15:00,
2013-04-21 04:16:00,30.2,10.4,29.53,WNW,292,5.4,5.4,43,0.00,,---,0.00,VWS V14.01,2013-04-21 08:16:00,
2013-04-21 04:17:00,30.2,10.4,29.53,NNE,22,3.4,5.4,43,0.00,,---,0.00,VWS V14.01,2013-04-21 08:17:00,
2013-04-21 04:18:00,30.2,10.4,29.53,WSW,248,3.4,3.4,43,0.00,,---,0.00,VWS V14.01,2013-04-21 08:18:00,
2013-04-21 04:19:00,30.2,9.9,29.53,SSW,202,4.3,4.3,42,0.00,,---,0.00,VWS V14.01,2013-04-21 08:19:00,
2013-04-21 04:20:00,30.2,9.9,29.53,WSW,248,3.1,3.1,42,0.00,,---,0.00,VWS V14.01,2013-04-21 08:20:00,
2013-04-21 04:21:00,30.2,9.9,29.53,WSW,248,3.1,3.1,42,0.00,,---,0.00,VWS V14.01,2013-04-21 08:21:00,
2013-04-21 04:22:00,30.0,9.7,29.53,WSW,248,3.4,3.4,42,0.00,,---,0.00,VWS V14.01,2013-04-21 08:22:00,
2013-04-21 04:23:00,30.0,9.7,29.53,WSW,248,3.4,3.4,42,0.00,,---,0.00,VWS V14.01,2013-04-21 08:23:00,
2013-04-21 04:24:00,30.0,9.7,29.53,SSW,202,3.1,3.6,42,0.00,,---,0.00,VWS V14.01,2013-04-21 08:24:00,
2013-04-21 04:25:00,30.0,9.7,29.53,SSW,202,2.5,2.5,42,0.00,,---,0.00,VWS V14.01,2013-04-21 08:25:00,
2013-04-21 04:26:00,30.0,9.7,29.53,SSW,202,2.5,2.5,42,0.00,,---,0.00,VWS V14.01,2013-04-21 08:26:00,
2013-04-21 04:27:00,30.0,9.7,29.53,North,0,2.0,2.5,42,0.00,,---,0.00,VWS V14.01,2013-04-21 08:27:00,
2013-04-21 04:28:00,30.0,9.7,29.53,WNW,292,4.3,4.3,42,0.00,,---,0.00,VWS V14.01,2013-04-21 08:28:00,
2013-04-21 04:29:00,30.0,9.7,29.53,NW,315,3.4,4.3,42,0.00,,---,0.00,VWS V14.01,2013-04-21 08:29:00,
2013-04-21 04:30:00,30.0,9.7,29.53,WNW,292,2.5,2.9,42,0.00,,---,0.00,VWS V14.01,2013-04-21 08:30:00,
2013-04-21 04:31:00,30.0,9.7,29.53,WNW,292,2.9,2.9,42,0.00,,---,0.00,VWS V14.01,2013-04-21 08:31:00,
2013-04-21 04:32:00,30.0,9.7,29.53,NW,315,3.1,3.1,42,0.00,,---,0.00,VWS V14.01,2013-04-21 08:32:00,
2013-04-21 04:33:00,30.0,9.7,29.53,WNW,292,2.5,3.1,42,0.00,,---,0.00,VWS V14.01,2013-04-21 08:33:00,
2013-04-21 04:34:00,30.0,9.7,29.53,WSW,248,3.8,7.4,42,0.00,,---,0.00,VWS V14.01,2013-04-21 08:34:00,
2013-04-21 04:35:00,30.0,9.7,29.53,NNW,338,2.5,2.5,42,0.00,,---,0.00,VWS V14.01,2013-04-21 08:35:00,
2013-04-21 04:36:00,29.8,9.6,29.53,East,90,3.1,3.1,42,0.00,,---,0.00,VWS V14.01,2013-04-21 08:36:00,
2013-04-21 04:37:00,29.8,9.6,29.53,NNE,22,2.2,3.1,42,0.00,,---,0.00,VWS V14.01,2013-04-21 08:37:00,
2013-04-21 04:38:00,29.8,9.0,29.53,NW,315,2.0,2.2,41,0.00,,---,0.00,VWS V14.01,2013-04-21 08:38:00,
2013-04-21 04:39:00,29.8,9.0,29.50,WSW,248,4.0,4.0,41,0.00,,---,0.00,VWS V14.01,2013-04-21 08:39:00,
2013-04-21 04:40:00,29.7,9.4,29.50,WSW,248,1.6,1.6,42,0.00,,---,0.00,VWS V14.01,2013-04-21 08:40:00,
2013-04-21 04:41:00,29.7,9.4,29.50,WSW,248,2.0,2.0,42,0.00,,---,0.00,VWS V14.01,2013-04-21 08:41:00,
2013-04-21 04:42:00,29.7,8.9,29.50,WSW,248,2.0,2.0,41,0.00,,---,0.00,VWS V14.01,2013-04-21 08:42:00,
2013-04-21 04:43:00,29.5,8.7,29.50,WNW,292,1.6,2.0,41,0.00,,---,0.00,VWS V14.01,2013-04-21 08:43:00,
2013-04-21 04:44:00,29.5,8.7,29.50,West,270,2.0,2.0,41,0.00,,---,0.00,VWS V14.01,2013-04-21 08:44:00,
2013-04-21 04:45:00,29.5,9.2,29.50,WNW,292,2.0,4.3,42,0.00,,---,0.00,VWS V14.01,2013-04-21 08:45:00,
2013-04-21 04:46:00,29.5,9.2,29.50,WNW,292,2.0,4.3,42,0.00,,---,0.00,VWS V14.01,2013-04-21 08:46:00,
2013-04-21 04:47:00,29.5,9.2,29.50,WSW,248,0.0,2.0,42,0.00,,---,0.00,VWS V14.01,2013-04-21 08:47:00,
2013-04-21 04:48:00,29.5,9.2,29.50,WSW,248,0.0,0.0,42,0.00,,---,0.00,VWS V14.01,2013-04-21 08:48:00,
2013-04-21 04:49:00,29.3,8.5,29.50,WSW,248,0.0,0.0,41,0.00,,---,0.00,VWS V14.01,2013-04-21 08:49:00,
2013-04-21 04:50:00,29.3,8.5,29.50,WNW,292,3.1,3.1,41,0.00,,---,0.00,VWS V14.01,2013-04-21 08:50:00,
2013-04-21 04:51:00,29.3,8.5,29.50,WNW,292,0.0,3.1,41,0.00,,---,0.00,VWS V14.01,2013-04-21 08:51:00,
2013-04-21 04:52:00,29.1,8.4,29.50,SW,225,0.9,0.9,41,0.00,,---,0.00,VWS V14.01,2013-04-21 08:52:00,
2013-04-21 04:53:00,29.1,8.4,29.50,WNW,292,2.0,2.0,41,0.00,,---,0.00,VWS V14.01,2013-04-21 08:53:00,
2013-04-21 04:54:00,29.1,8.4,29.53,WNW,292,3.4,3.4,41,0.00,,---,0.00,VWS V14.01,2013-04-21 08:54:00,
2013-04-21 04:55:00,29.1,8.4,29.53,NNW,338,2.0,2.0,41,0.00,,---,0.00,VWS V14.01,2013-04-21 08:55:00,
2013-04-21 04:56:00,29.1,8.4,29.53,West,270,4.3,4.3,41,0.00,,---,0.00,VWS V14.01,2013-04-21 08:56:00,
2013-04-21 04:57:00,28.9,8.2,29.53,SSW,202,3.1,4.3,41,0.00,,---,0.00,VWS V14.01,2013-04-21 08:57:00,
2013-04-21 04:58:00,28.9,8.2,29.53,WSW,248,4.0,4.0,41,0.00,,---,0.00,VWS V14.01,2013-04-21 08:58:00,
2013-04-21 04:59:00,28.9,8.2,29.53,WSW,248,2.7,4.0,41,0.00,,---,0.00,VWS V14.01,2013-04-21 08:59:00,
2013-04-21 05:00:00,28.9,8.2,29.53,WSW,248,0.0,0.0,41,0.00,,---,0.00,VWS V14.01,2013-04-21 09:00:00,
2013-04-21 05:01:00,28.8,8.0,29.53,WSW,248,0.0,0.0,41,0.00,,---,0.00,VWS V14.01,2013-04-21 09:01:00,
2013-04-21 05:02:00,28.8,8.0,29.53,WSW,248,0.0,0.0,41,0.00,,---,0.00,VWS V14.01,2013-04-21 09:02:00,
2013-04-21 05:03:00,28.6,7.9,29.53,WSW,248,1.3,1.3,41,0.00,,---,0.00,VWS V14.01,2013-04-21 09:03:00,
2013-04-21 05:04:00,28.6,8.4,29.53,SSW,202,2.5,2.5,42,0.00,,---,0.00,VWS V14.01,2013-04-21 09:04:00,
2013-04-21 05:05:00,28.6,8.4,29.53,NNW,338,1.3,1.3,42,0.00,,---,0.00,VWS V14.01,2013-04-21 09:05:00,
2013-04-21 05:06:00,28.6,8.4,29.53,NNW,338,1.3,1.3,42,0.00,,---,0.00,VWS V14.01,2013-04-21 09:06:00,
2013-04-21 05:07:00,28.6,8.4,29.53,WSW,248,1.6,1.6,42,0.00,,---,0.00,VWS V14.01,2013-04-21 09:07:00,
2013-04-21 05:08:00,28.6,8.4,29.53,SSE,158,2.9,3.1,42,0.00,,---,0.00,VWS V14.01,2013-04-21 09:08:00,
2013-04-21 05:09:00,28.6,8.4,29.56,South,180,2.2,2.9,42,0.00,,---,0.00,VWS V14.01,2013-04-21 09:09:00,
2013-04-21 05:10:00,28.4,8.2,29.56,WSW,248,0.0,0.0,42,0.00,,---,0.00,VWS V14.01,2013-04-21 09:10:00,
2013-04-21 05:11:00,28.4,8.2,29.56,WNW,292,3.8,3.8,42,0.00,,---,0.00,VWS V14.01,2013-04-21 09:11:00,
2013-04-21 05:12:00,28.4,8.2,29.56,West,270,2.5,3.8,42,0.00,,---,0.00,VWS V14.01,2013-04-21 09:12:00,
2013-04-21 05:13:00,28.4,8.2,29.56,WSW,248,2.0,2.5,42,0.00,,---,0.00,VWS V14.01,2013-04-21 09:13:00,
2013-04-21 05:14:00,28.4,8.2,29.56,WSW,248,0.0,2.0,42,0.00,,---,0.00,VWS V14.01,2013-04-21 09:14:00,
2013-04-21 05:15:00,28.2,8.1,29.56,WSW,248,0.0,0.0,42,0.00,,---,0.00,VWS V14.01,2013-04-21 09:15:00,
2013-04-21 05:16:00,28.2,8.1,29.56,WSW,248,2.5,2.5,42,0.00,,---,0.00,VWS V14.01,2013-04-21 09:16:00,
2013-04-21 05:17:00,28.2,8.1,29.56,ESE,112,2.5,2.5,42,0.00,,---,0.00,VWS V14.01,2013-04-21 09:17:00,
2013-04-21 05:18:00,28.2,8.1,29.56,ESE,112,0.0,2.5,42,0.00,,---,0.00,VWS V14.01,2013-04-21 09:18:00,
2013-04-21 05:19:00,28.2,8.1,29.56,ESE,112,1.1,1.1,42,0.00,,---,0.00,VWS V14.01,2013-04-21 09:19:00,
2013-04-21 05:20:00,28.0,7.9,29.56,SSE,158,0.0,2.2,42,0.00,,---,0.00,VWS V14.01,2013-04-21 09:20:00,
2013-04-21 05:21:00,28.0,7.9,29.56,SSE,158,0.0,2.2,42,0.00,,---,0.00,VWS V14.01,2013-04-21 09:21:00,
2013-04-21 05:22:00,28.0,7.9,29.56,SSE,158,0.0,0.0,42,0.00,,---,0.00,VWS V14.01,2013-04-21 09:22:00,
2013-04-21 05:23:00,28.0,7.9,29.56,SSE,158,1.3,1.3,42,0.00,,---,0.00,VWS V14.01,2013-04-21 09:23:00,
2013-04-21 05:24:00,28.0,7.9,29.56,WNW,292,2.9,2.9,42,0.00,,---,0.00,VWS V14.01,2013-04-21 09:24:00,
2013-04-21 05:25:00,28.0,7.9,29.56,NNW,338,2.0,3.1,42,0.00,,---,0.00,VWS V14.01,2013-04-21 09:25:00,
2013-04-21 05:26:00,28.0,7.9,29.56,NW,315,0.0,3.1,42,0.00,,---,0.00,VWS V14.01,2013-04-21 09:26:00,
2013-04-21 05:27:00,28.0,7.9,29.56,NW,315,1.3,1.3,42,0.00,,---,0.00,VWS V14.01,2013-04-21 09:27:00,
2013-04-21 05:28:00,27.9,7.8,29.56,NW,315,0.0,1.3,42,0.00,,---,0.00,VWS V14.01,2013-04-21 09:28:00,
2013-04-21 05:29:00,27.9,7.8,29.56,NW,315,0.0,0.0,42,0.00,,---,0.00,VWS V14.01,2013-04-21 09:29:00,
2013-04-21 05:30:00,27.9,7.8,29.56,NW,315,1.3,1.3,42,0.00,,---,0.00,VWS V14.01,2013-04-21 09:30:00,
2013-04-21 05:31:00,27.9,7.8,29.56,NW,315,0.0,1.3,42,0.00,,---,0.00,VWS V14.01,2013-04-21 09:31:00,
2013-04-21 05:32:00,27.9,7.8,29.56,West,270,0.0,0.0,42,0.00,,---,0.00,VWS V14.01,2013-04-21 09:32:00,
2013-04-21 05:33:00,27.9,7.8,29.56,WNW,292,2.7,2.7,42,0.00,,---,0.00,VWS V14.01,2013-04-21 09:33:00,
2013-04-21 05:34:00,27.9,7.8,29.56,WNW,292,2.9,2.9,42,0.00,,---,0.00,VWS V14.01,2013-04-21 09:34:00,
2013-04-21 05:35:00,28.0,7.9,29.56,WSW,248,2.7,2.9,42,0.00,,---,0.00,VWS V14.01,2013-04-21 09:35:00,
2013-04-21 05:36:00,28.0,7.9,29.56,SW,225,1.3,2.9,42,0.00,,---,0.00,VWS V14.01,2013-04-21 09:36:00,
2013-04-21 05:37:00,28.0,7.9,29.56,SW,225,2.0,2.0,42,0.00,,---,0.00,VWS V14.01,2013-04-21 09:37:00,
2013-04-21 05:38:00,28.2,8.1,29.56,West,270,2.5,2.5,42,0.00,,---,0.00,VWS V14.01,2013-04-21 09:38:00,
2013-04-21 05:39:00,28.2,8.1,29.56,WNW,292,1.3,2.5,42,0.00,,---,0.00,VWS V14.01,2013-04-21 09:39:00,
2013-04-21 05:40:00,28.2,8.1,29.56,WNW,292,2.7,2.7,42,0.00,,---,0.00,VWS V14.01,2013-04-21 09:40:00,
2013-04-21 05:41:00,28.2,8.1,29.56,WNW,292,0.0,2.7,42,0.00,,---,0.00,VWS V14.01,2013-04-21 09:41:00,
2013-04-21 05:42:00,28.2,8.1,29.56,WNW,292,0.0,0.0,42,0.00,,---,0.00,VWS V14.01,2013-04-21 09:42:00,
2013-04-21 05:43:00,28.2,8.1,29.56,WNW,292,0.0,0.0,42,0.00,,---,0.00,VWS V14.01,2013-04-21 09:43:00,
2013-04-21 05:44:00,28.2,8.1,29.56,WNW,292,0.0,0.0,42,0.00,,---,0.00,VWS V14.01,2013-04-21 09:44:00,
2013-04-21 05:45:00,28.2,8.1,29.56,West,270,2.2,2.2,42,0.00,,---,0.00,VWS V14.01,2013-04-21 09:45:00,
2013-04-21 05:46:00,28.2,8.1,29.56,West,270,2.2,2.2,42,0.00,,---,0.00,VWS V14.01,2013-04-21 09:46:00,
2013-04-21 05:47:00,28.4,8.2,29.56,WSW,248,2.5,3.6,42,0.00,,---,0.00,VWS V14.01,2013-04-21 09:47:00,
2013-04-21 05:48:00,28.4,8.2,29.56,WSW,248,0.9,2.5,42,0.00,,---,0.00,VWS V14.01,2013-04-21 09:48:00,
2013-04-21 05:49:00,28.4,8.2,29.56,WNW,292,2.5,2.5,42,0.00,,---,0.00,VWS V14.01,2013-04-21 09:49:00,
2013-04-21 05:50:00,28.4,8.2,29.56,WSW,248,1.1,2.5,42,0.00,,---,0.00,VWS V14.01,2013-04-21 09:50:00,
2013-04-21 05:51:00,28.4,8.2,29.56,West,270,3.6,3.6,42,0.00,,---,0.00,VWS V14.01,2013-04-21 09:51:00,
2013-04-21 05:52:00,28.4,8.2,29.56,WNW,292,1.3,3.6,42,0.00,,---,0.00,VWS V14.01,2013-04-21 09:52:00,
2013-04-21 05:53:00,28.4,8.2,29.56,SW,225,0.9,1.3,42,0.00,,---,0.00,VWS V14.01,2013-04-21 09:53:00,
2013-04-21 05:54:00,28.4,8.2,29.59,WNW,292,1.1,1.1,42,0.00,,---,0.00,VWS V14.01,2013-04-21 09:54:00,
2013-04-21 05:55:00,28.6,8.4,29.59,West,270,2.7,2.7,42,0.00,,---,0.00,VWS V14.01,2013-04-21 09:55:00,
2013-04-21 05:56:00,28.6,8.4,29.59,NW,315,3.1,3.1,42,0.00,,---,0.00,VWS V14.01,2013-04-21 09:56:00,
2013-04-21 05:57:00,28.6,8.4,29.59,NNW,338,4.7,4.7,42,0.00,,---,0.00,VWS V14.01,2013-04-21 09:57:00,
2013-04-21 05:58:00,28.6,8.4,29.59,West,270,4.0,4.7,42,0.00,,---,0.00,VWS V14.01,2013-04-21 09:58:00,
2013-04-21 05:59:00,28.6,8.4,29.59,WNW,292,3.8,4.0,42,0.00,,---,0.00,VWS V14.01,2013-04-21 09:59:00,
2013-04-21 06:00:00,28.6,8.4,29.59,WNW,292,6.3,6.3,42,0.00,,---,0.00,VWS V14.01,2013-04-21 10:00:00,
2013-04-21 06:01:00,28.6,8.4,29.59,WNW,292,3.8,6.3,42,0.00,,---,0.00,VWS V14.01,2013-04-21 10:01:00,
2013-04-21 06:02:00,28.6,8.4,29.59,WNW,292,3.8,3.8,42,0.00,,---,0.00,VWS V14.01,2013-04-21 10:02:00,
2013-04-21 06:03:00,28.6,8.4,29.59,WNW,292,2.0,3.8,42,0.00,,---,0.00,VWS V14.01,2013-04-21 10:03:00,
2013-04-21 06:04:00,28.6,8.4,29.59,WSW,248,2.9,2.9,42,0.00,,---,0.00,VWS V14.01,2013-04-21 10:04:00,
2013-04-21 06:05:00,28.6,8.4,29.59,West,270,2.0,2.7,42,0.00,,---,0.00,VWS V14.01,2013-04-21 10:05:00,
2013-04-21 06:06:00,28.6,8.4,29.59,West,270,2.0,2.7,42,0.00,,---,0.00,VWS V14.01,2013-04-21 10:06:00,
2013-04-21 06:07:00,28.6,8.4,29.59,NW,315,3.1,3.1,42,0.00,,---,0.00,VWS V14.01,2013-04-21 10:07:00,
2013-04-21 06:08:00,28.6,8.4,29.59,WSW,248,1.6,3.4,42,0.00,,---,0.00,VWS V14.01,2013-04-21 10:08:00,
2013-04-21 06:09:00,28.6,8.4,29.59,WSW,248,1.3,1.6,42,0.00,,---,0.00,VWS V14.01,2013-04-21 10:09:00,
2013-04-21 06:10:00,28.6,8.4,29.59,WSW,248,0.0,0.0,42,0.00,,---,0.00,VWS V14.01,2013-04-21 10:10:00,
2013-04-21 06:11:00,28.6,8.4,29.59,WNW,292,4.7,4.7,42,0.00,,---,0.00,VWS V14.01,2013-04-21 10:11:00,
2013-04-21 06:12:00,28.6,8.4,29.59,NW,315,3.4,4.7,42,0.00,,---,0.00,VWS V14.01,2013-04-21 10:12:00,
2013-04-21 06:14:00,28.6,8.4,29.59,WSW,248,2.5,2.5,42,0.00,,---,0.00,VWS V14.01,2013-04-21 10:14:00,
2013-04-21 06:15:00,28.6,8.4,29.59,WSW,248,1.6,2.5,42,0.00,,---,0.00,VWS V14.01,2013-04-21 10:15:00,
2013-04-21 06:16:00,28.6,8.4,29.59,NW,315,3.1,3.1,42,0.00,,---,0.00,VWS V14.01,2013-04-21 10:16:00,
2013-04-21 06:17:00,28.8,8.6,29.59,ENE,68,2.0,3.1,42,0.00,,---,0.00,VWS V14.01,2013-04-21 10:17:00,
2013-04-21 06:18:00,28.8,8.6,29.59,NW,315,2.5,2.5,42,0.00,,---,0.00,VWS V14.01,2013-04-21 10:18:00,
2013-04-21 06:19:00,28.8,8.6,29.59,WNW,292,1.1,2.5,42,0.00,,---,0.00,VWS V14.01,2013-04-21 10:19:00,
2013-04-21 06:20:00,28.8,8.6,29.59,WNW,292,2.2,2.2,42,0.00,,---,0.00,VWS V14.01,2013-04-21 10:20:00,
2013-04-21 06:21:00,28.8,8.6,29.59,West,270,1.3,2.2,42,0.00,,---,0.00,VWS V14.01,2013-04-21 10:21:00,
2013-04-21 06:22:00,28.6,7.9,29.59,NNW,338,2.7,2.7,41,0.00,,---,0.00,VWS V14.01,2013-04-21 10:22:00,
2013-04-21 06:23:00,28.6,7.9,29.59,West,270,2.0,2.7,41,0.00,,---,0.00,VWS V14.01,2013-04-21 10:23:00,
2013-04-21 06:24:00,28.6,8.4,29.62,WNW,292,2.7,2.7,42,0.00,,---,0.00,VWS V14.01,2013-04-21 10:24:00,
2013-04-21 06:25:00,28.6,8.4,29.62,SW,225,4.9,4.9,42,0.00,,---,0.00,VWS V14.01,2013-04-21 10:25:00,
2013-04-21 06:26:00,28.6,7.9,29.62,WNW,292,4.0,4.9,41,0.00,,---,0.00,VWS V14.01,2013-04-21 10:26:00,
2013-04-21 06:27:00,28.6,7.9,29.62,WNW,292,2.0,4.0,41,0.00,,---,0.00,VWS V14.01,2013-04-21 10:27:00,
2013-04-21 06:28:00,28.6,8.4,29.62,WNW,292,1.3,2.0,42,0.00,,---,0.00,VWS V14.01,2013-04-21 10:28:00,
2013-04-21 06:29:00,28.6,8.4,29.62,SSW,202,2.5,2.5,42,0.00,,---,0.00,VWS V14.01,2013-04-21 10:29:00,
2013-04-21 06:30:00,28.6,8.4,29.62,WNW,292,4.0,4.0,42,0.00,,---,0.00,VWS V14.01,2013-04-21 10:30:00,
2013-04-21 06:31:00,28.8,8.6,29.62,NW,315,3.6,4.0,42,0.00,,---,0.00,VWS V14.01,2013-04-21 10:31:00,
2013-04-21 06:32:00,28.8,8.6,29.62,NW,315,6.0,6.0,42,0.00,,---,0.00,VWS V14.01,2013-04-21 10:32:00,
2013-04-21 06:33:00,28.8,8.0,29.62,NW,315,6.0,6.0,41,0.00,,---,0.00,VWS V14.01,2013-04-21 10:33:00,
2013-04-21 06:34:00,28.8,8.0,29.62,WNW,292,2.2,6.0,41,0.00,,---,0.00,VWS V14.01,2013-04-21 10:34:00,
2013-04-21 06:35:00,28.8,8.0,29.62,SSW,202,3.8,3.8,41,0.00,,---,0.00,VWS V14.01,2013-04-21 10:35:00,
2013-04-21 06:36:00,28.8,8.0,29.62,West,270,3.4,3.8,41,0.00,,---,0.00,VWS V14.01,2013-04-21 10:36:00,
2013-04-21 06:37:00,28.8,8.0,29.62,NW,315,3.4,3.4,41,0.00,,---,0.00,VWS V14.01,2013-04-21 10:37:00,
2013-04-21 06:38:00,28.8,8.0,29.62,WNW,292,1.1,3.4,41,0.00,,---,0.00,VWS V14.01,2013-04-21 10:38:00,
2013-04-21 06:39:00,28.8,8.0,29.59,NW,315,2.9,2.9,41,0.00,,---,0.00,VWS V14.01,2013-04-21 10:39:00,
2013-04-21 06:40:00,28.8,8.0,29.59,WNW,292,3.1,3.1,41,0.00,,---,0.00,VWS V14.01,2013-04-21 10:40:00,
2013-04-21 06:41:00,28.8,8.0,29.59,WSW,248,4.0,4.0,41,0.00,,---,0.00,VWS V14.01,2013-04-21 10:41:00,
2013-04-21 06:42:00,28.9,8.7,29.59,ENE,68,1.1,4.0,42,0.00,,---,0.00,VWS V14.01,2013-04-21 10:42:00,
2013-04-21 06:43:00,28.9,8.7,29.59,WSW,248,3.1,3.1,42,0.00,,---,0.00,VWS V14.01,2013-04-21 10:43:00,
2013-04-21 06:44:00,28.9,8.7,29.59,West,270,3.4,3.4,42,0.00,,---,0.00,VWS V14.01,2013-04-21 10:44:00,
2013-04-21 06:45:00,28.9,8.2,29.59,WNW,292,4.0,4.0,41,0.00,,---,0.00,VWS V14.01,2013-04-21 10:45:00,
2013-04-21 06:46:00,28.9,8.2,29.59,West,270,2.0,4.0,41,0.00,,---,0.00,VWS V14.01,2013-04-21 10:46:00,
2013-04-21 06:47:00,28.9,8.7,29.59,WSW,248,3.6,3.6,42,0.00,,---,0.00,VWS V14.01,2013-04-21 10:47:00,
2013-04-21 06:48:00,28.9,8.7,29.59,SW,225,2.2,3.6,42,0.00,,---,0.00,VWS V14.01,2013-04-21 10:48:00,
2013-04-21 06:49:00,28.9,8.2,29.59,WNW,292,4.7,4.7,41,0.00,,---,0.00,VWS V14.01,2013-04-21 10:49:00,
2013-04-21 06:50:00,28.9,8.2,29.59,WNW,292,4.7,4.7,41,0.00,,---,0.00,VWS V14.01,2013-04-21 10:50:00,
2013-04-21 06:51:00,28.9,8.2,29.59,WNW,292,4.3,4.7,41,0.00,,---,0.00,VWS V14.01,2013-04-21 10:51:00,
2013-04-21 06:52:00,28.9,8.7,29.59,WNW,292,2.5,4.3,42,0.00,,---,0.00,VWS V14.01,2013-04-21 10:52:00,
2013-04-21 06:53:00,28.9,8.7,29.59,WSW,248,2.5,2.5,42,0.00,,---,0.00,VWS V14.01,2013-04-21 10:53:00,
2013-04-21 06:54:00,28.9,8.7,29.59,WNW,292,5.6,5.6,42,0.00,,---,0.00,VWS V14.01,2013-04-21 10:54:00,
2013-04-21 06:55:00,28.9,8.7,29.59,WNW,292,6.5,6.5,42,0.00,,---,0.00,VWS V14.01,2013-04-21 10:55:00,
2013-04-21 06:56:00,29.1,8.9,29.59,WNW,292,6.5,6.5,42,0.00,,---,0.00,VWS V14.01,2013-04-21 10:56:00,
2013-04-21 06:57:00,29.1,8.9,29.59,West,270,4.7,6.5,42,0.00,,---,0.00,VWS V14.01,2013-04-21 10:57:00,
2013-04-21 06:58:00,29.1,8.4,29.59,WSW,248,7.2,7.2,41,0.00,,---,0.00,VWS V14.01,2013-04-21 10:58:00,
2013-04-21 06:59:00,29.1,8.4,29.59,WSW,248,4.0,7.2,41,0.00,,---,0.00,VWS V14.01,2013-04-21 10:59:00,
2013-04-21 07:00:00,29.1,8.4,29.59,WNW,292,3.8,4.0,41,0.00,,---,0.00,VWS V14.01,2013-04-21 11:00:00,
2013-04-21 07:01:00,28.9,8.2,29.59,WNW,292,1.6,3.8,41,0.00,,---,0.00,VWS V14.01,2013-04-21 11:01:00,
2013-04-21 07:02:00,28.9,8.2,29.59,WNW,292,4.9,4.9,41,0.00,,---,0.00,VWS V14.01,2013-04-21 11:02:00,
2013-04-21 07:03:00,28.9,8.2,29.59,WSW,248,2.7,4.9,41,0.00,,---,0.00,VWS V14.01,2013-04-21 11:03:00,
2013-04-21 07:04:00,28.9,8.2,29.59,WNW,292,6.3,6.3,41,0.00,,---,0.00,VWS V14.01,2013-04-21 11:04:00,
2013-04-21 07:05:00,28.9,8.2,29.59,WSW,248,4.7,4.7,41,0.00,,---,0.00,VWS V14.01,2013-04-21 11:05:00,
2013-04-21 07:06:00,28.9,8.2,29.59,WSW,248,3.4,4.7,41,0.00,,---,0.00,VWS V14.01,2013-04-21 11:06:00,
2013-04-21 07:07:00,28.9,8.7,29.59,WSW,248,2.7,3.4,42,0.00,,---,0.00,VWS V14.01,2013-04-21 11:07:00,
2013-04-21 07:08:00,28.9,8.2,29.59,SW,225,2.9,2.9,41,0.00,,---,0.00,VWS V14.01,2013-04-21 11:08:00,
2013-04-21 07:09:00,28.9,8.2,29.62,WSW,248,4.0,4.0,41,0.00,,---,0.00,VWS V14.01,2013-04-21 11:09:00,
2013-04-21 07:10:00,29.3,8.5,29.62,SW,225,3.1,4.0,41,0.00,,---,0.00,VWS V14.01,2013-04-21 11:10:00,
2013-04-21 07:11:00,29.3,8.5,29.62,NW,315,6.0,6.0,41,0.00,,---,0.00,VWS V14.01,2013-04-21 11:11:00,
2013-04-21 07:12:00,29.5,8.7,29.62,WSW,248,3.8,6.0,41,0.00,,---,0.00,VWS V14.01,2013-04-21 11:12:00,
2013-04-21 07:13:00,29.8,9.0,29.62,WNW,292,2.9,3.8,41,0.00,,---,0.00,VWS V14.01,2013-04-21 11:13:00,
2013-04-21 07:14:00,29.8,9.0,29.62,WNW,292,3.4,3.4,41,0.00,,---,0.00,VWS V14.01,2013-04-21 11:14:00,
2013-04-21 07:15:00,29.8,9.0,29.62,NE,45,4.3,4.3,41,0.00,,---,0.00,VWS V14.01,2013-04-21 11:15:00,
2013-04-21 07:16:00,29.8,9.0,29.62,SW,225,2.0,4.3,41,0.00,,---,0.00,VWS V14.01,2013-04-21 11:16:00,
2013-04-21 07:17:00,30.0,9.2,29.62,WSW,248,1.1,2.0,41,0.00,,---,0.00,VWS V14.01,2013-04-21 11:17:00,
2013-04-21 07:18:00,30.0,9.2,29.62,SSW,202,1.3,1.3,41,0.00,,---,0.00,VWS V14.01,2013-04-21 11:18:00,
2013-04-21 07:19:00,30.4,9.5,29.62,NW,315,3.6,3.6,41,0.00,,---,0.00,VWS V14.01,2013-04-21 11:19:00,
2013-04-21 07:20:00,30.4,9.5,29.62,WNW,292,3.6,3.6,41,0.00,,---,0.00,VWS V14.01,2013-04-21 11:20:00,
2013-04-21 07:21:00,30.6,9.7,29.62,WNW,292,5.6,5.6,41,0.00,,---,0.00,VWS V14.01,2013-04-21 11:21:00,
2013-04-21 07:22:00,30.4,9.5,29.62,WNW,292,2.9,5.6,41,0.00,,---,0.00,VWS V14.01,2013-04-21 11:22:00,
2013-04-21 07:23:00,30.4,9.5,29.62,WSW,248,3.8,3.8,41,0.00,,---,0.00,VWS V14.01,2013-04-21 11:23:00,
2013-04-21 07:24:00,30.4,9.5,29.65,SSW,202,2.5,3.8,41,0.00,,---,0.00,VWS V14.01,2013-04-21 11:24:00,
2013-04-21 07:25:00,30.4,9.5,29.65,ENE,68,1.1,1.1,41,0.00,,---,0.00,VWS V14.01,2013-04-21 11:25:00,
2013-04-21 07:26:00,30.2,9.4,29.65,WSW,248,3.4,3.4,41,0.00,,---,0.00,VWS V14.01,2013-04-21 11:26:00,
2013-04-21 07:27:00,30.2,9.4,29.65,WNW,292,3.1,3.4,41,0.00,,---,0.00,VWS V14.01,2013-04-21 11:27:00,
2013-04-21 07:28:00,30.4,9.5,29.65,East,90,1.6,3.1,41,0.00,,---,0.00,VWS V14.01,2013-04-21 11:28:00,
2013-04-21 07:29:00,30.7,9.8,29.65,East,90,1.6,1.6,41,0.00,,---,0.00,VWS V14.01,2013-04-21 11:29:00,
2013-04-21 07:30:00,30.7,9.8,29.65,WNW,292,2.9,2.9,41,0.00,,---,0.00,VWS V14.01,2013-04-21 11:30:00,
2013-04-21 07:31:00,31.1,10.2,29.65,SSE,158,2.0,2.9,41,0.00,,---,0.00,VWS V14.01,2013-04-21 11:31:00,
2013-04-21 07:32:00,31.1,10.2,29.65,SSW,202,2.5,2.5,41,0.00,,---,0.00,VWS V14.01,2013-04-21 11:32:00,
2013-04-21 07:33:00,31.5,10.5,29.65,NNW,338,3.4,3.4,41,0.00,,---,0.00,VWS V14.01,2013-04-21 11:33:00,
2013-04-21 07:34:00,31.5,10.5,29.65,NW,315,6.5,6.5,41,0.00,,---,0.00,VWS V14.01,2013-04-21 11:34:00,
2013-04-21 07:35:00,31.5,10.5,29.65,WSW,248,4.3,6.5,41,0.00,,---,0.00,VWS V14.01,2013-04-21 11:35:00,
2013-04-21 07:36:00,31.3,10.3,29.65,ESE,112,6.5,6.5,41,0.00,,---,0.00,VWS V14.01,2013-04-21 11:36:00,
2013-04-21 07:37:00,31.3,10.3,29.65,ENE,68,1.3,6.5,41,0.00,,---,0.00,VWS V14.01,2013-04-21 11:37:00,
2013-04-21 07:38:00,31.3,10.3,29.65,WNW,292,2.7,2.7,41,0.00,,---,0.00,VWS V14.01,2013-04-21 11:38:00,
2013-04-21 07:39:00,31.3,10.3,29.65,WNW,292,3.6,3.6,41,0.00,,---,0.00,VWS V14.01,2013-04-21 11:39:00,
2013-04-21 07:40:00,31.6,10.6,29.65,WSW,248,3.4,3.6,41,0.00,,---,0.00,VWS V14.01,2013-04-21 11:40:00,
2013-04-21 07:41:00,31.6,10.6,29.65,WSW,248,3.8,3.8,41,0.00,,---,0.00,VWS V14.01,2013-04-21 11:41:00,
2013-04-21 07:42:00,31.5,10.5,29.65,WSW,248,4.0,4.0,41,0.00,,---,0.00,VWS V14.01,2013-04-21 11:42:00,
2013-04-21 07:43:00,31.5,10.5,29.65,WNW,292,3.6,4.0,41,0.00,,---,0.00,VWS V14.01,2013-04-21 11:43:00,
2013-04-21 07:44:00,31.5,10.5,29.65,WNW,292,3.8,3.8,41,0.00,,---,0.00,VWS V14.01,2013-04-21 11:44:00,
2013-04-21 07:45:00,31.8,10.8,29.65,WNW,292,3.4,3.8,41,0.00,,---,0.00,VWS V14.01,2013-04-21 11:45:00,
2013-04-21 07:46:00,31.8,10.8,29.65,WNW,292,3.8,4.3,41,0.00,,---,0.00,VWS V14.01,2013-04-21 11:46:00,
2013-04-21 07:47:00,32.0,11.0,29.65,NW,315,1.3,3.8,41,0.00,,---,0.00,VWS V14.01,2013-04-21 11:47:00,
2013-04-21 07:48:00,32.0,11.0,29.65,SW,225,4.3,4.3,41,0.00,,---,0.00,VWS V14.01,2013-04-21 11:48:00,
2013-04-21 07:49:00,31.3,10.3,29.65,WSW,248,3.1,4.3,41,0.00,,---,0.00,VWS V14.01,2013-04-21 11:49:00,
2013-04-21 07:50:00,31.3,10.3,29.65,WSW,248,2.0,3.1,41,0.00,,---,0.00,VWS V14.01,2013-04-21 11:50:00,
2013-04-21 07:51:00,31.6,10.6,29.65,West,270,2.9,2.9,41,0.00,,---,0.00,VWS V14.01,2013-04-21 11:51:00,
2013-04-21 07:52:00,31.5,10.5,29.65,NW,315,3.4,3.4,41,0.00,,---,0.00,VWS V14.01,2013-04-21 11:52:00,
2013-04-21 07:53:00,31.5,10.5,29.65,WNW,292,2.7,3.4,41,0.00,,---,0.00,VWS V14.01,2013-04-21 11:53:00,
2013-04-21 07:54:00,31.3,10.3,29.65,NNW,338,2.5,2.7,41,0.00,,---,0.00,VWS V14.01,2013-04-21 11:54:00,
2013-04-21 07:55:00,31.3,10.3,29.65,WNW,292,3.8,3.8,41,0.00,,---,0.00,VWS V14.01,2013-04-21 11:55:00,
2013-04-21 07:56:00,31.3,10.3,29.65,WSW,248,2.9,3.8,41,0.00,,---,0.00,VWS V14.01,2013-04-21 11:56:00,
2013-04-21 07:57:00,31.3,10.3,29.65,West,270,3.6,3.6,41,0.00,,---,0.00,VWS V14.01,2013-04-21 11:57:00,
2013-04-21 07:58:00,32.0,11.0,29.65,WSW,248,2.9,3.6,41,0.00,,---,0.00,VWS V14.01,2013-04-21 11:58:00,
2013-04-21 07:59:00,32.0,11.0,29.65,WNW,292,2.9,2.9,41,0.00,,---,0.00,VWS V14.01,2013-04-21 11:59:00,
2013-04-21 08:00:00,31.8,10.8,29.65,WNW,292,4.0,4.0,41,0.00,,---,0.00,VWS V14.01,2013-04-21 12:00:00,
2013-04-21 08:01:00,32.0,11.0,29.65,WSW,248,2.9,2.9,41,0.00,,---,0.00,VWS V14.01,2013-04-21 12:01:00,
2013-04-21 08:02:00,32.0,11.0,29.65,WNW,292,5.6,5.6,41,0.00,,---,0.00,VWS V14.01,2013-04-21 12:02:00,
2013-04-21 08:03:00,32.0,11.0,29.65,West,270,3.6,5.6,41,0.00,,---,0.00,VWS V14.01,2013-04-21 12:03:00,
2013-04-21 08:04:00,32.0,11.0,29.65,West,270,3.6,3.6,41,0.00,,---,0.00,VWS V14.01,2013-04-21 12:04:00,
2013-04-21 08:05:00,32.2,11.1,29.65,WSW,248,3.1,3.6,41,0.00,,---,0.00,VWS V14.01,2013-04-21 12:05:00,
2013-04-21 08:06:00,32.4,11.3,29.65,West,270,3.6,3.6,41,0.00,,---,0.00,VWS V14.01,2013-04-21 12:06:00,
2013-04-21 08:07:00,32.4,11.3,29.65,West,270,4.5,4.7,41,0.00,,---,0.00,VWS V14.01,2013-04-21 12:07:00,
2013-04-21 08:08:00,32.4,11.3,29.65,West,270,4.3,4.5,41,0.00,,---,0.00,VWS V14.01,2013-04-21 12:08:00,
2013-04-21 08:09:00,32.4,11.3,29.68,WNW,292,5.6,5.6,41,0.00,,---,0.00,VWS V14.01,2013-04-21 12:09:00,
2013-04-21 08:10:00,32.5,11.5,29.68,WNW,292,2.7,5.6,41,0.00,,---,0.00,VWS V14.01,2013-04-21 12:10:00,
2013-04-21 08:11:00,32.5,11.5,29.68,West,270,2.5,2.7,41,0.00,,---,0.00,VWS V14.01,2013-04-21 12:11:00,
2013-04-21 08:12:00,32.4,11.3,29.68,West,270,3.8,3.8,41,0.00,,---,0.00,VWS V14.01,2013-04-21 12:12:00,
2013-04-21 08:13:00,32.4,11.3,29.68,WNW,292,5.6,5.6,41,0.00,,---,0.00,VWS V14.01,2013-04-21 12:13:00,
2013-04-21 08:14:00,32.2,11.1,29.68,WNW,292,2.9,5.6,41,0.00,,---,0.00,VWS V14.01,2013-04-21 12:14:00,
2013-04-21 08:15:00,32.2,11.1,29.68,WNW,292,2.9,2.9,41,0.00,,---,0.00,VWS V14.01,2013-04-21 12:15:00,
2013-04-21 08:16:00,32.2,11.1,29.68,WSW,248,3.8,3.8,41,0.00,,---,0.00,VWS V14.01,2013-04-21 12:16:00,
2013-04-21 08:17:00,32.2,11.1,29.68,WNW,292,5.4,5.4,41,0.00,,---,0.00,VWS V14.01,2013-04-21 12:17:00,
2013-04-21 08:18:00,32.2,11.1,29.68,WSW,248,6.3,6.3,41,0.00,,---,0.00,VWS V14.01,2013-04-21 12:18:00,
2013-04-21 08:19:00,32.2,11.1,29.68,WNW,292,2.7,6.3,41,0.00,,---,0.00,VWS V14.01,2013-04-21 12:19:00,
2013-04-21 08:20:00,32.2,11.1,29.68,WSW,248,6.5,6.5,41,0.00,,---,0.00,VWS V14.01,2013-04-21 12:20:00,
2013-04-21 08:21:00,32.2,11.1,29.68,West,270,7.2,7.2,41,0.00,,---,0.00,VWS V14.01,2013-04-21 12:21:00,
2013-04-21 08:22:00,32.0,10.4,29.68,WNW,292,5.6,7.2,40,0.00,,---,0.00,VWS V14.01,2013-04-21 12:22:00,
2013-04-21 08:23:00,32.0,10.4,29.68,WNW,292,3.1,5.6,40,0.00,,---,0.00,VWS V14.01,2013-04-21 12:23:00,
2013-04-21 08:24:00,32.0,10.4,29.68,NNW,338,2.0,3.1,40,0.00,,---,0.00,VWS V14.01,2013-04-21 12:24:00,
2013-04-21 08:25:00,32.0,10.4,29.68,NNW,338,2.0,2.0,40,0.00,,---,0.00,VWS V14.01,2013-04-21 12:25:00,
2013-04-21 08:26:00,31.8,10.3,29.68,WNW,292,4.0,4.0,40,0.00,,---,0.00,VWS V14.01,2013-04-21 12:26:00,
2013-04-21 08:27:00,31.8,10.3,29.68,WNW,292,5.6,5.6,40,0.00,,---,0.00,VWS V14.01,2013-04-21 12:27:00,
2013-04-21 08:28:00,31.8,10.3,29.68,WSW,248,2.9,5.6,40,0.00,,---,0.00,VWS V14.01,2013-04-21 12:28:00,
2013-04-21 08:29:00,31.6,10.1,29.68,WNW,292,3.8,3.8,40,0.00,,---,0.00,VWS V14.01,2013-04-21 12:29:00,
2013-04-21 08:30:00,31.6,10.1,29.68,SSW,202,2.9,3.8,40,0.00,,---,0.00,VWS V14.01,2013-04-21 12:30:00,
2013-04-21 08:31:00,31.6,10.1,29.68,WNW,292,5.8,5.8,40,0.00,,---,0.00,VWS V14.01,2013-04-21 12:31:00,
2013-04-21 08:32:00,31.6,10.1,29.68,WSW,248,2.9,5.8,40,0.00,,---,0.00,VWS V14.01,2013-04-21 12:32:00,
2013-04-21 08:33:00,31.8,10.3,29.68,WSW,248,3.6,3.6,40,0.00,,---,0.00,VWS V14.01,2013-04-21 12:33:00,
2013-04-21 08:34:00,31.8,10.3,29.68,WSW,248,2.7,3.6,40,0.00,,---,0.00,VWS V14.01,2013-04-21 12:34:00,
2013-04-21 08:35:00,33.4,12.3,29.68,WSW,248,2.7,2.7,41,0.00,,---,0.00,VWS V14.01,2013-04-21 12:35:00,
2013-04-21 08:36:00,33.4,12.3,29.68,South,180,2.7,2.7,41,0.00,,---,0.00,VWS V14.01,2013-04-21 12:36:00,
2013-04-21 08:37:00,33.8,12.1,29.68,West,270,2.5,2.7,40,0.00,,---,0.00,VWS V14.01,2013-04-21 12:37:00,
2013-04-21 08:38:00,34.7,12.9,29.68,WNW,292,2.0,3.8,40,0.00,,---,0.00,VWS V14.01,2013-04-21 12:38:00,
2013-04-21 08:39:00,35.1,13.2,29.68,WNW,292,4.9,4.9,40,0.00,,---,0.00,VWS V14.01,2013-04-21 12:39:00,
2013-04-21 08:40:00,35.1,13.2,29.68,NNW,338,6.7,6.7,40,0.00,,---,0.00,VWS V14.01,2013-04-21 12:40:00,
2013-04-21 08:41:00,35.1,13.2,29.68,WNW,292,5.4,6.7,40,0.00,,---,0.00,VWS V14.01,2013-04-21 12:41:00,
2013-04-21 08:42:00,35.2,13.4,29.68,SW,225,5.4,5.4,40,0.00,,---,0.00,VWS V14.01,2013-04-21 12:42:00,
2013-04-21 08:43:00,35.2,13.4,29.68,WNW,292,5.6,5.6,40,0.00,,---,0.00,VWS V14.01,2013-04-21 12:43:00,
2013-04-21 08:44:00,37.0,15.0,29.68,WNW,292,3.1,3.1,40,0.00,,---,0.00,VWS V14.01,2013-04-21 12:44:00,
2013-04-21 08:45:00,37.0,15.0,29.68,WNW,292,3.1,3.1,40,0.00,,---,0.00,VWS V14.01,2013-04-21 12:45:00,
2013-04-21 08:46:00,37.0,15.0,29.68,WNW,292,4.3,4.3,40,0.00,,---,0.00,VWS V14.01,2013-04-21 12:46:00,
2013-04-21 08:47:00,37.8,15.0,29.68,WNW,292,3.8,4.3,39,0.00,,---,0.00,VWS V14.01,2013-04-21 12:47:00,
2013-04-21 08:48:00,37.8,15.0,29.68,WSW,248,4.0,4.0,39,0.00,,---,0.00,VWS V14.01,2013-04-21 12:48:00,
2013-04-21 08:49:00,38.1,15.4,29.68,West,270,6.0,6.0,39,0.00,,---,0.00,VWS V14.01,2013-04-21 12:49:00,
2013-04-21 08:50:00,38.1,15.4,29.68,West,270,6.0,6.0,39,0.00,,---,0.00,VWS V14.01,2013-04-21 12:50:00,
2013-04-21 08:51:00,38.7,15.9,29.68,WNW,292,5.8,6.0,39,0.00,,---,0.00,VWS V14.01,2013-04-21 12:51:00,
2013-04-21 08:52:00,38.7,15.9,29.68,West,270,4.3,5.8,39,0.00,,---,0.00,VWS V14.01,2013-04-21 12:52:00,
2013-04-21 08:53:00,38.3,14.9,29.68,WNW,292,3.8,4.9,38,0.00,,---,0.00,VWS V14.01,2013-04-21 12:53:00,
2013-04-21 08:54:00,37.8,14.4,29.68,WNW,292,4.0,5.6,38,0.00,,---,0.00,VWS V14.01,2013-04-21 12:54:00,
2013-04-21 08:55:00,37.8,14.4,29.68,WNW,292,4.0,5.6,38,0.00,,---,0.00,VWS V14.01,2013-04-21 12:55:00,
2013-04-21 08:56:00,37.4,14.1,29.68,WNW,292,3.4,4.0,38,0.00,,---,0.00,VWS V14.01,2013-04-21 12:56:00,
2013-04-21 08:57:00,37.4,14.1,29.68,WNW,292,4.9,4.9,38,0.00,,---,0.00,VWS V14.01,2013-04-21 12:57:00,
2013-04-21 08:58:00,37.9,14.6,29.68,WNW,292,5.8,5.8,38,0.00,,---,0.00,VWS V14.01,2013-04-21 12:58:00,
2013-04-21 08:59:00,37.4,14.1,29.68,WNW,292,4.0,4.0,38,0.00,,---,0.00,VWS V14.01,2013-04-21 12:59:00,
2013-04-21 09:00:00,37.4,14.1,29.68,WNW,292,4.0,4.0,38,0.00,,---,0.00,VWS V14.01,2013-04-21 13:00:00,
2013-04-21 09:01:00,37.4,14.1,29.68,WNW,292,3.6,4.0,38,0.00,,---,0.00,VWS V14.01,2013-04-21 13:01:00,
2013-04-21 09:02:00,37.4,14.1,29.68,WNW,292,2.9,3.6,38,0.00,,---,0.00,VWS V14.01,2013-04-21 13:02:00,
2013-04-21 09:03:00,36.7,12.9,29.68,WSW,248,3.1,3.4,37,0.00,,---,0.00,VWS V14.01,2013-04-21 13:03:00,
2013-04-21 09:04:00,35.6,11.9,29.68,West,270,6.5,6.5,37,0.00,,---,0.00,VWS V14.01,2013-04-21 13:04:00,
2013-04-21 09:05:00,35.6,11.9,29.68,NNW,338,3.6,6.5,37,0.00,,---,0.00,VWS V14.01,2013-04-21 13:05:00,
2013-04-21 09:06:00,35.6,11.9,29.68,SSE,158,2.9,3.6,37,0.00,,---,0.00,VWS V14.01,2013-04-21 13:06:00,
2013-04-21 09:07:00,35.4,11.8,29.68,NW,315,1.3,2.9,37,0.00,,---,0.00,VWS V14.01,2013-04-21 13:07:00,
2013-04-21 09:08:00,35.2,11.6,29.68,SSW,202,2.0,2.0,37,0.00,,---,0.00,VWS V14.01,2013-04-21 13:08:00,
2013-04-21 09:09:00,37.0,13.2,29.71,WNW,292,4.0,4.0,37,0.00,,---,0.00,VWS V14.01,2013-04-21 13:09:00,
2013-04-21 09:10:00,37.0,13.2,29.71,WNW,292,4.0,4.0,37,0.00,,---,0.00,VWS V14.01,2013-04-21 13:10:00,
2013-04-21 09:11:00,37.0,13.2,29.71,ENE,68,3.4,4.0,37,0.00,,---,0.00,VWS V14.01,2013-04-21 13:11:00,
2013-04-21 09:12:00,38.7,14.6,29.71,SW,225,3.8,3.8,37,0.00,,---,0.00,VWS V14.01,2013-04-21 13:12:00,
2013-04-21 09:13:00,38.7,14.6,29.71,South,180,3.4,3.8,37,0.00,,---,0.00,VWS V14.01,2013-04-21 13:13:00,
2013-04-21 09:14:00,38.5,13.9,29.71,ENE,68,3.8,5.8,36,0.00,,---,0.00,VWS V14.01,2013-04-21 13:14:00,
2013-04-21 09:15:00,40.3,16.1,29.71,ENE,68,3.8,5.8,37,0.00,,---,0.00,VWS V14.01,2013-04-21 13:15:00,
2013-04-21 09:16:00,40.3,16.1,29.71,SSW,202,4.3,4.3,37,0.00,,---,0.00,VWS V14.01,2013-04-21 13:16:00,
2013-04-21 09:17:00,41.0,15.5,29.71,ESE,112,3.6,4.3,35,0.00,,---,0.00,VWS V14.01,2013-04-21 13:17:00,
2013-04-21 09:18:00,41.0,15.5,29.71,ENE,68,1.6,3.6,35,0.00,,---,0.00,VWS V14.01,2013-04-21 13:18:00,
2013-04-21 09:19:00,41.4,15.8,29.71,SE,135,3.1,3.4,35,0.00,,---,0.00,VWS V14.01,2013-04-21 13:19:00,
2013-04-21 09:20:00,41.4,15.8,29.71,SE,135,3.1,3.4,35,0.00,,---,0.00,VWS V14.01,2013-04-21 13:20:00,
2013-04-21 09:21:00,39.6,13.5,29.71,ENE,68,3.8,3.8,34,0.00,,---,0.00,VWS V14.01,2013-04-21 13:21:00,
2013-04-21 09:22:00,39.6,14.2,29.71,ENE,68,3.8,3.8,35,0.00,,---,0.00,VWS V14.01,2013-04-21 13:22:00,
2013-04-21 09:23:00,39.6,14.2,29.71,NE,45,2.0,3.8,35,0.00,,---,0.00,VWS V14.01,2013-04-21 13:23:00,
2013-04-21 09:24:00,40.8,15.3,29.71,WSW,248,3.4,3.4,35,0.00,,---,0.00,VWS V14.01,2013-04-21 13:24:00,
2013-04-21 09:25:00,40.8,15.3,29.71,NW,315,4.9,4.9,35,0.00,,---,0.00,VWS V14.01,2013-04-21 13:25:00,
2013-04-21 09:26:00,41.7,15.4,29.71,WNW,292,5.6,5.6,34,0.00,,---,0.00,VWS V14.01,2013-04-21 13:26:00,
2013-04-21 09:27:00,41.7,15.4,29.71,WNW,292,3.8,5.6,34,0.00,,---,0.00,VWS V14.01,2013-04-21 13:27:00,
2013-04-21 09:28:00,40.5,14.3,29.71,WNW,292,2.7,3.8,34,0.00,,---,0.00,VWS V14.01,2013-04-21 13:28:00,
2013-04-21 09:29:00,39.2,13.2,29.71,WNW,292,4.9,4.9,34,0.00,,---,0.00,VWS V14.01,2013-04-21 13:29:00,
2013-04-21 09:30:00,39.2,13.2,29.71,WNW,292,4.9,4.9,34,0.00,,---,0.00,VWS V14.01,2013-04-21 13:30:00,
2013-04-21 09:31:00,38.5,12.6,29.71,SW,225,3.8,4.9,34,0.00,,---,0.00,VWS V14.01,2013-04-21 13:31:00,
2013-04-21 09:32:00,38.5,12.6,29.71,SW,225,3.8,3.8,34,0.00,,---,0.00,VWS V14.01,2013-04-21 13:32:00,
2013-04-21 09:33:00,39.4,13.4,29.71,WNW,292,6.0,6.0,34,0.00,,---,0.00,VWS V14.01,2013-04-21 13:33:00,
2013-04-21 09:34:00,38.7,12.7,29.71,WNW,292,6.0,6.0,34,0.00,,---,0.00,VWS V14.01,2013-04-21 13:34:00,
2013-04-21 09:35:00,38.7,12.7,29.71,WNW,292,6.0,6.0,34,0.00,,---,0.00,VWS V14.01,2013-04-21 13:35:00,
2013-04-21 09:36:00,38.7,12.7,29.71,NW,315,4.9,6.0,34,0.00,,---,0.00,VWS V14.01,2013-04-21 13:36:00,
2013-04-21 09:37:00,38.5,12.6,29.71,NW,315,4.9,4.9,34,0.00,,---,0.00,VWS V14.01,2013-04-21 13:37:00,
2013-04-21 09:38:00,38.1,12.2,29.71,West,270,3.1,4.9,34,0.00,,---,0.00,VWS V14.01,2013-04-21 13:38:00,
2013-04-21 09:39:00,36.9,11.1,29.71,WSW,248,3.4,10.7,34,0.00,,---,0.00,VWS V14.01,2013-04-21 13:39:00,
2013-04-21 09:40:00,36.9,11.1,29.71,WSW,248,3.4,10.7,34,0.00,,---,0.00,VWS V14.01,2013-04-21 13:40:00,
2013-04-21 09:41:00,36.9,11.1,29.71,WSW,248,3.4,3.4,34,0.00,,---,0.00,VWS V14.01,2013-04-21 13:41:00,
2013-04-21 09:42:00,36.9,11.1,29.71,WSW,248,4.7,5.6,34,0.00,,---,0.00,VWS V14.01,2013-04-21 13:42:00,
2013-04-21 09:43:00,36.9,11.1,29.71,WNW,292,5.8,5.8,34,0.00,,---,0.00,VWS V14.01,2013-04-21 13:43:00,
2013-04-21 09:44:00,37.4,11.6,29.71,West,270,4.7,4.7,34,0.00,,---,0.00,VWS V14.01,2013-04-21 13:44:00,
2013-04-21 09:45:00,37.4,11.6,29.71,West,270,4.7,4.7,34,0.00,,---,0.00,VWS V14.01,2013-04-21 13:45:00,
2013-04-21 09:46:00,39.0,13.7,29.71,WSW,248,3.1,5.8,35,0.00,,---,0.00,VWS V14.01,2013-04-21 13:46:00,
2013-04-21 09:47:00,39.7,13.7,29.71,WSW,248,3.1,3.1,34,0.00,,---,0.00,VWS V14.01,2013-04-21 13:47:00,
2013-04-21 09:48:00,39.7,13.7,29.71,WNW,292,3.4,3.4,34,0.00,,---,0.00,VWS V14.01,2013-04-21 13:48:00,
2013-04-21 09:49:00,40.5,14.3,29.71,WNW,292,5.8,5.8,34,0.00,,---,0.00,VWS V14.01,2013-04-21 13:49:00,
2013-04-21 09:50:00,40.5,14.3,29.71,WNW,292,3.1,5.8,34,0.00,,---,0.00,VWS V14.01,2013-04-21 13:50:00,
2013-04-21 09:51:00,38.8,12.9,29.71,WNW,292,3.1,3.1,34,0.00,,---,0.00,VWS V14.01,2013-04-21 13:51:00,
2013-04-21 09:52:00,38.3,12.4,29.71,WNW,292,2.9,3.1,34,0.00,,---,0.00,VWS V14.01,2013-04-21 13:52:00,
2013-04-21 09:53:00,38.3,12.4,29.71,SSE,158,3.4,3.4,34,0.00,,---,0.00,VWS V14.01,2013-04-21 13:53:00,
2013-04-21 09:54:00,38.8,12.9,29.71,WSW,248,3.1,3.1,34,0.00,,---,0.00,VWS V14.01,2013-04-21 13:54:00,
2013-04-21 09:55:00,38.8,12.9,29.71,WSW,248,3.1,3.1,34,0.00,,---,0.00,VWS V14.01,2013-04-21 13:55:00,
2013-04-21 09:56:00,40.5,14.3,29.71,WNW,292,5.8,5.8,34,0.00,,---,0.00,VWS V14.01,2013-04-21 13:56:00,
2013-04-21 09:57:00,40.5,14.3,29.71,WNW,292,7.8,7.8,34,0.00,,---,0.00,VWS V14.01,2013-04-21 13:57:00,
2013-04-21 09:58:00,39.2,12.5,29.71,WNW,292,2.5,7.8,33,0.00,,---,0.00,VWS V14.01,2013-04-21 13:58:00,
2013-04-21 09:59:00,38.7,12.7,29.71,WSW,248,4.3,4.3,34,0.00,,---,0.00,VWS V14.01,2013-04-21 13:59:00,
2013-04-21 10:00:00,38.7,12.7,29.71,WSW,248,4.3,4.3,34,0.00,,---,0.00,VWS V14.01,2013-04-21 14:00:00,
2013-04-21 10:01:00,38.7,12.1,29.71,NW,315,6.3,6.3,33,0.00,,---,0.00,VWS V14.01,2013-04-21 14:01:00,
2013-04-21 10:02:00,38.7,12.1,29.71,WNW,292,6.3,6.3,33,0.00,,---,0.00,VWS V14.01,2013-04-21 14:02:00,
2013-04-21 10:03:00,40.8,14.6,29.71,WNW,292,5.4,6.3,34,0.00,,---,0.00,VWS V14.01,2013-04-21 14:03:00,
2013-04-21 10:04:00,42.1,14.4,29.71,WNW,292,1.3,1.3,32,0.00,,---,0.00,VWS V14.01,2013-04-21 14:04:00,
2013-04-21 10:05:00,42.1,14.4,29.71,West,270,5.6,5.6,32,0.00,,---,0.00,VWS V14.01,2013-04-21 14:05:00,
2013-04-21 10:06:00,42.1,14.4,29.71,WSW,248,4.0,5.6,32,0.00,,---,0.00,VWS V14.01,2013-04-21 14:06:00,
2013-04-21 10:07:00,41.0,13.4,29.71,WNW,292,3.1,4.0,32,0.00,,---,0.00,VWS V14.01,2013-04-21 14:07:00,
2013-04-21 10:08:00,42.4,15.4,29.71,SSE,158,3.8,3.8,33,0.00,,---,0.00,VWS V14.01,2013-04-21 14:08:00,
2013-04-21 10:09:00,42.4,15.4,29.71,NW,315,3.4,3.4,33,0.00,,---,0.00,VWS V14.01,2013-04-21 14:09:00,
2013-04-21 10:10:00,43.0,15.2,29.71,WSW,248,3.4,3.4,32,0.00,,---,0.00,VWS V14.01,2013-04-21 14:10:00,
2013-04-21 10:11:00,43.0,15.2,29.71,WSW,248,5.6,5.6,32,0.00,,---,0.00,VWS V14.01,2013-04-21 14:11:00,
2013-04-21 10:12:00,43.9,15.9,29.71,East,90,6.5,6.5,32,0.00,,---,0.00,VWS V14.01,2013-04-21 14:12:00,
2013-04-21 10:13:00,43.9,15.9,29.71,SSW,202,2.9,6.5,32,0.00,,---,0.00,VWS V14.01,2013-04-21 14:13:00,
2013-04-21 10:14:00,43.9,15.2,29.71,NNW,338,4.3,5.6,31,0.00,,---,0.00,VWS V14.01,2013-04-21 14:14:00,
2013-04-21 10:15:00,43.5,14.9,29.71,NNW,338,4.3,5.6,31,0.00,,---,0.00,VWS V14.01,2013-04-21 14:15:00,
2013-04-21 10:16:00,43.5,14.9,29.71,NNE,22,6.5,6.5,31,0.00,,---,0.00,VWS V14.01,2013-04-21 14:16:00,
2013-04-21 10:17:00,43.0,14.4,29.71,WNW,292,2.7,6.5,31,0.00,,---,0.00,VWS V14.01,2013-04-21 14:17:00,
2013-04-21 10:18:00,43.0,14.4,29.71,WSW,248,4.0,4.0,31,0.00,,---,0.00,VWS V14.01,2013-04-21 14:18:00,
2013-04-21 10:19:00,41.5,13.9,29.71,NW,315,3.8,3.8,32,0.00,,---,0.00,VWS V14.01,2013-04-21 14:19:00,
2013-04-21 10:20:00,41.5,13.9,29.71,WNW,292,5.6,5.6,32,0.00,,---,0.00,VWS V14.01,2013-04-21 14:20:00,
2013-04-21 10:21:00,41.5,13.9,29.71,NNW,338,5.4,5.6,32,0.00,,---,0.00,VWS V14.01,2013-04-21 14:21:00,
2013-04-21 10:22:00,41.5,13.9,29.71,NW,315,3.4,5.4,32,0.00,,---,0.00,VWS V14.01,2013-04-21 14:22:00,
2013-04-21 10:23:00,42.1,14.4,29.71,WNW,292,7.2,7.2,32,0.00,,---,0.00,VWS V14.01,2013-04-21 14:23:00,
2013-04-21 10:24:00,41.0,12.7,29.74,WNW,292,5.4,5.4,31,0.00,,---,0.00,VWS V14.01,2013-04-21 14:24:00,
2013-04-21 10:25:00,41.0,12.7,29.74,WNW,292,3.1,5.4,31,0.00,,---,0.00,VWS V14.01,2013-04-21 14:25:00,
2013-04-21 10:26:00,39.9,12.5,29.74,WNW,292,4.9,4.9,32,0.00,,---,0.00,VWS V14.01,2013-04-21 14:26:00,
2013-04-21 10:27:00,39.9,12.5,29.74,WNW,292,4.9,4.9,32,0.00,,---,0.00,VWS V14.01,2013-04-21 14:27:00,
2013-04-21 10:28:00,40.5,12.9,29.74,WNW,292,5.4,5.4,32,0.00,,---,0.00,VWS V14.01,2013-04-21 14:28:00,
2013-04-21 10:29:00,43.3,15.5,29.74,WNW,292,4.0,4.0,32,0.00,,---,0.00,VWS V14.01,2013-04-21 14:29:00,
2013-04-21 10:30:00,43.3,15.5,29.74,WNW,292,4.0,4.0,32,0.00,,---,0.00,VWS V14.01,2013-04-21 14:30:00,
2013-04-21 10:31:00,42.6,14.1,29.74,WNW,292,5.6,5.6,31,0.00,,---,0.00,VWS V14.01,2013-04-21 14:31:00,
2013-04-21 10:32:00,42.6,14.1,29.74,SW,225,6.9,6.9,31,0.00,,---,0.00,VWS V14.01,2013-04-21 14:32:00,
2013-04-21 10:33:00,42.8,14.3,29.74,WNW,292,3.8,7.4,31,0.00,,---,0.00,VWS V14.01,2013-04-21 14:33:00,
2013-04-21 10:34:00,42.1,13.6,29.74,WNW,292,3.6,4.9,31,0.00,,---,0.00,VWS V14.01,2013-04-21 14:34:00,
2013-04-21 10:35:00,42.1,13.6,29.74,WNW,292,3.6,4.9,31,0.00,,---,0.00,VWS V14.01,2013-04-21 14:35:00,
2013-04-21 10:36:00,42.1,13.6,29.74,WNW,292,3.1,3.6,31,0.00,,---,0.00,VWS V14.01,2013-04-21 14:36:00,
2013-04-21 10:37:00,43.3,14.8,29.74,WNW,292,2.0,3.1,31,0.00,,---,0.00,VWS V14.01,2013-04-21 14:37:00,
2013-04-21 10:38:00,43.3,14.8,29.74,WNW,292,0.0,2.0,31,0.00,,---,0.00,VWS V14.01,2013-04-21 14:38:00,
2013-04-21 10:39:00,42.3,13.8,29.74,SSW,202,3.6,5.6,31,0.00,,---,0.00,VWS V14.01,2013-04-21 14:39:00,
2013-04-21 10:40:00,43.9,15.2,29.74,SSW,202,3.6,5.6,31,0.00,,---,0.00,VWS V14.01,2013-04-21 14:40:00,
2013-04-21 10:41:00,43.9,15.2,29.74,NW,315,3.6,3.6,31,0.00,,---,0.00,VWS V14.01,2013-04-21 14:41:00,
2013-04-21 10:42:00,45.3,15.7,29.74,WNW,292,4.9,4.9,30,0.00,,---,0.00,VWS V14.01,2013-04-21 14:42:00,
2013-04-21 10:43:00,45.3,15.7,29.74,West,270,4.3,4.9,30,0.00,,---,0.00,VWS V14.01,2013-04-21 14:43:00,
2013-04-21 10:44:00,46.2,16.5,29.74,West,270,5.6,5.6,30,0.00,,---,0.00,VWS V14.01,2013-04-21 14:44:00,
2013-04-21 10:45:00,46.2,16.5,29.74,NW,315,2.9,7.6,30,0.00,,---,0.00,VWS V14.01,2013-04-21 14:45:00,
2013-04-21 10:46:00,46.2,16.5,29.74,WNW,292,1.6,2.9,30,0.00,,---,0.00,VWS V14.01,2013-04-21 14:46:00,
2013-04-21 10:47:00,47.7,17.8,29.74,WNW,292,3.1,3.1,30,0.00,,---,0.00,VWS V14.01,2013-04-21 14:47:00,
2013-04-21 10:48:00,47.7,17.8,29.74,NNW,338,5.4,5.4,30,0.00,,---,0.00,VWS V14.01,2013-04-21 14:48:00,
2013-04-21 10:49:00,47.5,17.6,29.74,West,270,4.9,4.9,30,0.00,,---,0.00,VWS V14.01,2013-04-21 14:49:00,
2013-04-21 10:50:00,47.5,17.6,29.74,WSW,248,4.0,4.9,30,0.00,,---,0.00,VWS V14.01,2013-04-21 14:50:00,
2013-04-21 10:51:00,46.6,16.0,29.74,West,270,4.0,4.0,29,0.00,,---,0.00,VWS V14.01,2013-04-21 14:51:00,
2013-04-21 10:52:00,46.6,16.0,29.74,WNW,292,1.6,4.0,29,0.00,,---,0.00,VWS V14.01,2013-04-21 14:52:00,
2013-04-21 10:53:00,47.5,17.6,29.74,WNW,292,4.0,4.0,30,0.00,,---,0.00,VWS V14.01,2013-04-21 14:53:00,
2013-04-21 10:54:00,46.8,16.2,29.74,West,270,2.5,2.9,29,0.00,,---,0.00,VWS V14.01,2013-04-21 14:54:00,
2013-04-21 10:55:00,46.8,16.2,29.74,West,270,2.5,2.9,29,0.00,,---,0.00,VWS V14.01,2013-04-21 14:55:00,
2013-04-21 10:56:00,46.9,16.4,29.74,NNW,338,4.0,4.0,29,0.00,,---,0.00,VWS V14.01,2013-04-21 14:56:00,
2013-04-21 10:57:00,46.9,16.4,29.74,West,270,2.7,4.0,29,0.00,,---,0.00,VWS V14.01,2013-04-21 14:57:00,
2013-04-21 10:58:00,47.1,16.5,29.74,NNE,22,2.7,3.1,29,0.00,,---,0.00,VWS V14.01,2013-04-21 14:58:00,
2013-04-21 10:59:00,48.2,17.5,29.74,WNW,292,4.7,4.7,29,0.00,,---,0.00,VWS V14.01,2013-04-21 14:59:00,
2013-04-21 11:00:00,48.2,17.5,29.74,WNW,292,4.7,4.7,29,0.00,,---,0.00,VWS V14.01,2013-04-21 15:00:00,
2013-04-21 11:01:00,49.1,17.4,29.74,WNW,292,3.6,4.7,28,0.00,,---,0.00,VWS V14.01,2013-04-21 15:01:00,
2013-04-21 11:02:00,49.1,17.4,29.74,WNW,292,5.6,5.6,28,0.00,,---,0.00,VWS V14.01,2013-04-21 15:02:00,
2013-04-21 11:03:00,49.1,17.4,29.74,WSW,248,4.0,5.6,28,0.00,,---,0.00,VWS V14.01,2013-04-21 15:03:00,
2013-04-21 11:04:00,49.1,17.4,29.74,WNW,292,4.3,4.3,28,0.00,,---,0.00,VWS V14.01,2013-04-21 15:04:00,
2013-04-21 11:05:00,49.1,17.4,29.74,WNW,292,4.7,4.7,28,0.00,,---,0.00,VWS V14.01,2013-04-21 15:05:00,
2013-04-21 11:06:00,49.1,17.4,29.74,NNW,338,3.6,4.7,28,0.00,,---,0.00,VWS V14.01,2013-04-21 15:06:00,
2013-04-21 11:07:00,49.1,17.4,29.74,WNW,292,2.9,3.6,28,0.00,,---,0.00,VWS V14.01,2013-04-21 15:07:00,
2013-04-21 11:08:00,49.6,17.9,29.74,WNW,292,3.6,3.6,28,0.00,,---,0.00,VWS V14.01,2013-04-21 15:08:00,
2013-04-21 11:09:00,49.6,17.9,29.74,West,270,7.2,7.2,28,0.00,,---,0.00,VWS V14.01,2013-04-21 15:09:00,
2013-04-21 11:10:00,49.1,17.4,29.74,WSW,248,4.3,7.2,28,0.00,,---,0.00,VWS V14.01,2013-04-21 15:10:00,
2013-04-21 11:11:00,49.1,17.4,29.74,NE,45,2.7,4.3,28,0.00,,---,0.00,VWS V14.01,2013-04-21 15:11:00,
2013-04-21 11:12:00,49.1,17.4,29.74,WNW,292,3.4,3.4,28,0.00,,---,0.00,VWS V14.01,2013-04-21 15:12:00,
2013-04-21 11:13:00,49.1,17.4,29.74,NNW,338,2.9,3.4,28,0.00,,---,0.00,VWS V14.01,2013-04-21 15:13:00,
2013-04-21 11:14:00,48.2,16.6,29.74,SSW,202,4.0,4.9,28,0.00,,---,0.00,VWS V14.01,2013-04-21 15:14:00,
2013-04-21 11:15:00,48.2,16.6,29.74,SSW,202,4.0,4.9,28,0.00,,---,0.00,VWS V14.01,2013-04-21 15:15:00,
2013-04-21 11:16:00,48.4,16.8,29.74,West,270,8.1,8.1,28,0.00,,---,0.00,VWS V14.01,2013-04-21 15:16:00,
2013-04-21 11:17:00,48.9,17.3,29.74,West,270,9.0,9.0,28,0.00,,---,0.00,VWS V14.01,2013-04-21 15:17:00,
2013-04-21 11:18:00,48.9,17.3,29.74,WSW,248,5.4,9.0,28,0.00,,---,0.00,VWS V14.01,2013-04-21 15:18:00,
2013-04-21 11:19:00,50.4,18.5,29.74,SW,225,3.8,3.8,28,0.00,,---,0.00,VWS V14.01,2013-04-21 15:19:00,
2013-04-21 11:20:00,50.4,18.5,29.74,SSE,158,1.6,3.8,28,0.00,,---,0.00,VWS V14.01,2013-04-21 15:20:00,
2013-04-21 11:21:00,49.8,18.0,29.74,NE,45,4.0,4.0,28,0.00,,---,0.00,VWS V14.01,2013-04-21 15:21:00,
2013-04-21 11:22:00,49.8,18.0,29.74,NNE,22,6.3,6.3,28,0.00,,---,0.00,VWS V14.01,2013-04-21 15:22:00,
2013-04-21 11:23:00,46.9,15.6,29.74,WNW,292,2.9,7.6,28,0.00,,---,0.00,VWS V14.01,2013-04-21 15:23:00,
2013-04-21 11:24:00,47.5,16.0,29.74,NNW,338,1.6,1.6,28,0.00,,---,0.00,VWS V14.01,2013-04-21 15:24:00,
2013-04-21 11:25:00,47.5,16.0,29.74,West,270,3.8,3.8,28,0.00,,---,0.00,VWS V14.01,2013-04-21 15:25:00,
2013-04-21 11:26:00,48.7,17.1,29.74,WNW,292,4.9,4.9,28,0.00,,---,0.00,VWS V14.01,2013-04-21 15:26:00,
2013-04-21 11:27:00,48.7,17.1,29.74,WNW,292,2.9,4.9,28,0.00,,---,0.00,VWS V14.01,2013-04-21 15:27:00,
2013-04-21 11:28:00,49.8,18.0,29.74,SW,225,1.3,2.9,28,0.00,,---,0.00,VWS V14.01,2013-04-21 15:28:00,
2013-04-21 11:29:00,49.8,18.0,29.74,WNW,292,3.8,3.8,28,0.00,,---,0.00,VWS V14.01,2013-04-21 15:29:00,
2013-04-21 11:30:00,49.8,18.0,29.74,SSE,158,3.4,3.8,28,0.00,,---,0.00,VWS V14.01,2013-04-21 15:30:00,
2013-04-21 11:31:00,49.8,18.0,29.74,NW,315,3.8,3.8,28,0.00,,---,0.00,VWS V14.01,2013-04-21 15:31:00,
2013-04-21 11:32:00,49.8,18.0,29.74,WNW,292,4.9,4.9,28,0.00,,---,0.00,VWS V14.01,2013-04-21 15:32:00,
2013-04-21 11:33:00,50.5,17.8,29.74,WNW,292,4.9,4.9,27,0.00,,---,0.00,VWS V14.01,2013-04-21 15:33:00,
2013-04-21 11:34:00,50.5,17.8,29.74,West,270,5.4,6.7,27,0.00,,---,0.00,VWS V14.01,2013-04-21 15:34:00,
2013-04-21 11:35:00,51.8,18.9,29.74,WNW,292,6.9,6.9,27,0.00,,---,0.00,VWS V14.01,2013-04-21 15:35:00,
2013-04-21 11:36:00,51.8,18.9,29.74,WNW,292,8.7,8.7,27,0.00,,---,0.00,VWS V14.01,2013-04-21 15:36:00,
2013-04-21 11:37:00,51.8,18.9,29.74,West,270,5.6,8.7,27,0.00,,---,0.00,VWS V14.01,2013-04-21 15:37:00,
2013-04-21 11:38:00,51.4,18.6,29.74,SW,225,6.0,6.0,27,0.00,,---,0.00,VWS V14.01,2013-04-21 15:38:00,
2013-04-21 11:39:00,51.4,18.6,29.74,WNW,292,4.9,4.9,27,0.00,,---,0.00,VWS V14.01,2013-04-21 15:39:00,
2013-04-21 11:40:00,52.0,19.1,29.74,WNW,292,4.9,4.9,27,0.00,,---,0.00,VWS V14.01,2013-04-21 15:40:00,
2013-04-21 11:41:00,52.0,19.1,29.74,ENE,68,6.0,6.0,27,0.00,,---,0.00,VWS V14.01,2013-04-21 15:41:00,
2013-04-21 11:42:00,51.3,18.4,29.74,WNW,292,2.9,6.0,27,0.00,,---,0.00,VWS V14.01,2013-04-21 15:42:00,
2013-04-21 11:43:00,51.3,18.4,29.74,WNW,292,5.6,5.6,27,0.00,,---,0.00,VWS V14.01,2013-04-21 15:43:00,
2013-04-21 11:44:00,50.9,18.1,29.74,WNW,292,4.0,4.0,27,0.00,,---,0.00,VWS V14.01,2013-04-21 15:44:00,
2013-04-21 11:45:00,50.9,18.1,29.74,WNW,292,3.8,4.0,27,0.00,,---,0.00,VWS V14.01,2013-04-21 15:45:00,
2013-04-21 11:46:00,50.7,17.1,29.74,WSW,248,2.9,3.8,26,0.00,,---,0.00,VWS V14.01,2013-04-21 15:46:00,
2013-04-21 11:47:00,51.3,18.4,29.74,WSW,248,2.7,6.0,27,0.00,,---,0.00,VWS V14.01,2013-04-21 15:47:00,
2013-04-21 11:48:00,51.3,18.4,29.74,SE,135,4.0,4.0,27,0.00,,---,0.00,VWS V14.01,2013-04-21 15:48:00,
2013-04-21 11:49:00,51.3,18.4,29.74,ENE,68,6.3,6.3,27,0.00,,---,0.00,VWS V14.01,2013-04-21 15:49:00,
2013-04-21 11:50:00,51.3,18.4,29.74,WNW,292,4.0,6.3,27,0.00,,---,0.00,VWS V14.01,2013-04-21 15:50:00,
2013-04-21 11:51:00,50.4,17.7,29.74,WNW,292,2.0,4.0,27,0.00,,---,0.00,VWS V14.01,2013-04-21 15:51:00,
2013-04-21 11:52:00,50.4,17.7,29.74,WNW,292,5.4,5.4,27,0.00,,---,0.00,VWS V14.01,2013-04-21 15:52:00,
2013-04-21 11:53:00,51.3,18.4,29.74,WSW,248,2.0,5.4,27,0.00,,---,0.00,VWS V14.01,2013-04-21 15:53:00,
2013-04-21 11:54:00,51.4,18.6,29.74,SW,225,3.8,3.8,27,0.00,,---,0.00,VWS V14.01,2013-04-21 15:54:00,
2013-04-21 11:55:00,51.4,18.6,29.74,WSW,248,3.6,3.8,27,0.00,,---,0.00,VWS V14.01,2013-04-21 15:55:00,
2013-04-21 11:56:00,50.5,16.9,29.74,NW,315,4.9,4.9,26,0.00,,---,0.00,VWS V14.01,2013-04-21 15:56:00,
2013-04-21 11:57:00,50.5,16.9,29.74,South,180,3.1,4.9,26,0.00,,---,0.00,VWS V14.01,2013-04-21 15:57:00,
2013-04-21 11:58:00,50.9,18.1,29.74,WNW,292,2.5,3.1,27,0.00,,---,0.00,VWS V14.01,2013-04-21 15:58:00,
2013-04-21 11:59:00,50.9,17.2,29.74,South,180,3.4,3.4,26,0.00,,---,0.00,VWS V14.01,2013-04-21 15:59:00,
2013-04-21 12:00:00,50.9,17.2,29.74,South,180,3.4,3.4,26,0.00,,---,0.00,VWS V14.01,2013-04-21 16:00:00,
2013-04-21 12:01:00,50.9,17.2,29.74,WNW,292,3.4,3.4,26,0.00,,---,0.00,VWS V14.01,2013-04-21 16:01:00,
2013-04-21 12:02:00,50.9,17.2,29.74,NNE,22,1.3,3.6,26,0.00,,---,0.00,VWS V14.01,2013-04-21 16:02:00,
2013-04-21 12:03:00,49.6,16.2,29.74,SE,135,2.9,2.9,26,0.00,,---,0.00,VWS V14.01,2013-04-21 16:03:00,
2013-04-21 12:04:00,49.6,16.2,29.74,NNE,22,2.2,2.2,26,0.00,,---,0.00,VWS V14.01,2013-04-21 16:04:00,
2013-04-21 12:05:00,49.8,17.2,29.74,SE,135,3.8,3.8,27,0.00,,---,0.00,VWS V14.01,2013-04-21 16:05:00,
2013-04-21 12:06:00,49.8,17.2,29.74,SE,135,0.0,3.8,27,0.00,,---,0.00,VWS V14.01,2013-04-21 16:06:00,
2013-04-21 12:07:00,49.6,16.2,29.74,NNE,22,1.3,1.3,26,0.00,,---,0.00,VWS V14.01,2013-04-21 16:07:00,
2013-04-21 12:08:00,49.6,16.2,29.74,South,180,3.8,3.8,26,0.00,,---,0.00,VWS V14.01,2013-04-21 16:08:00,
2013-04-21 12:09:00,51.1,17.4,29.74,WNW,292,6.0,6.0,26,0.00,,---,0.00,VWS V14.01,2013-04-21 16:09:00,
2013-04-21 12:10:00,51.6,17.9,29.74,WNW,292,7.4,7.4,26,0.00,,---,0.00,VWS V14.01,2013-04-21 16:10:00,
2013-04-21 12:11:00,51.6,17.9,29.74,West,270,6.0,7.4,26,0.00,,---,0.00,VWS V14.01,2013-04-21 16:11:00,
2013-04-21 12:12:00,52.5,18.6,29.74,WNW,292,3.4,6.0,26,0.00,,---,0.00,VWS V14.01,2013-04-21 16:12:00,
2013-04-21 12:13:00,52.5,18.6,29.74,North,0,3.6,3.6,26,0.00,,---,0.00,VWS V14.01,2013-04-21 16:13:00,
2013-04-21 12:14:00,52.3,18.5,29.74,South,180,1.6,1.6,26,0.00,,---,0.00,VWS V14.01,2013-04-21 16:14:00,
2013-04-21 12:15:00,52.3,18.5,29.74,WNW,292,4.9,4.9,26,0.00,,---,0.00,VWS V14.01,2013-04-21 16:15:00,
2013-04-21 12:16:00,52.5,18.6,29.74,WNW,292,4.3,4.9,26,0.00,,---,0.00,VWS V14.01,2013-04-21 16:16:00,
2013-04-21 12:17:00,52.0,15.4,29.74,WNW,292,3.6,4.3,23,0.00,,---,0.00,VWS V14.01,2013-04-21 16:17:00,
2013-04-21 12:18:00,52.0,15.4,29.74,NNW,338,3.4,3.6,23,0.00,,---,0.00,VWS V14.01,2013-04-21 16:18:00,
2013-04-21 12:19:00,50.7,17.1,29.74,West,270,5.6,5.6,26,0.00,,---,0.00,VWS V14.01,2013-04-21 16:19:00,
2013-04-21 12:20:00,50.7,17.1,29.74,West,270,5.6,5.6,26,0.00,,---,0.00,VWS V14.01,2013-04-21 16:20:00,
2013-04-21 12:21:00,51.8,18.0,29.74,East,90,1.6,5.6,26,0.00,,---,0.00,VWS V14.01,2013-04-21 16:21:00,
2013-04-21 12:22:00,51.8,18.0,29.74,NNW,338,2.2,2.2,26,0.00,,---,0.00,VWS V14.01,2013-04-21 16:22:00,
2013-04-21 12:23:00,52.7,18.8,29.74,East,90,3.4,3.4,26,0.00,,---,0.00,VWS V14.01,2013-04-21 16:23:00,
2013-04-21 12:24:00,52.5,18.6,29.74,South,180,2.5,2.5,26,0.00,,---,0.00,VWS V14.01,2013-04-21 16:24:00,
2013-04-21 12:25:00,52.5,18.6,29.74,North,0,3.6,3.6,26,0.00,,---,0.00,VWS V14.01,2013-04-21 16:25:00,
2013-04-21 12:26:00,51.6,17.9,29.74,NW,315,3.6,3.6,26,0.00,,---,0.00,VWS V14.01,2013-04-21 16:26:00,
2013-04-21 12:27:00,51.6,17.9,29.74,NE,45,6.7,6.7,26,0.00,,---,0.00,VWS V14.01,2013-04-21 16:27:00,
2013-04-21 12:28:00,50.2,16.6,29.74,WNW,292,2.7,6.7,26,0.00,,---,0.00,VWS V14.01,2013-04-21 16:28:00,
2013-04-21 12:29:00,51.1,17.4,29.74,NW,315,6.0,6.0,26,0.00,,---,0.00,VWS V14.01,2013-04-21 16:29:00,
2013-04-21 12:30:00,51.1,17.4,29.74,North,0,3.4,6.0,26,0.00,,---,0.00,VWS V14.01,2013-04-21 16:30:00,
2013-04-21 12:31:00,51.1,17.4,29.74,West,270,3.6,3.6,26,0.00,,---,0.00,VWS V14.01,2013-04-21 16:31:00,
2013-04-21 12:32:00,51.3,17.6,29.74,WNW,292,9.4,9.4,26,0.00,,---,0.00,VWS V14.01,2013-04-21 16:32:00,
2013-04-21 12:33:00,52.5,18.6,29.74,West,270,4.0,9.4,26,0.00,,---,0.00,VWS V14.01,2013-04-21 16:33:00,
2013-04-21 12:34:00,52.5,18.6,29.74,WNW,292,5.4,5.6,26,0.00,,---,0.00,VWS V14.01,2013-04-21 16:34:00,
2013-04-21 12:35:00,53.2,19.3,29.74,WNW,292,5.4,5.6,26,0.00,,---,0.00,VWS V14.01,2013-04-21 16:35:00,
2013-04-21 12:36:00,53.2,19.3,29.74,WNW,292,8.1,8.1,26,0.00,,---,0.00,VWS V14.01,2013-04-21 16:36:00,
2013-04-21 12:37:00,52.7,18.8,29.74,WNW,292,6.3,8.1,26,0.00,,---,0.00,VWS V14.01,2013-04-21 16:37:00,
2013-04-21 12:38:00,52.7,18.8,29.74,WNW,292,5.8,6.3,26,0.00,,---,0.00,VWS V14.01,2013-04-21 16:38:00,
2013-04-21 12:39:00,52.7,18.8,29.74,WNW,292,5.6,5.6,26,0.00,,---,0.00,VWS V14.01,2013-04-21 16:39:00,
2013-04-21 12:40:00,53.1,19.1,29.74,SE,135,2.9,5.6,26,0.00,,---,0.00,VWS V14.01,2013-04-21 16:40:00,
2013-04-21 12:41:00,53.1,19.1,29.74,WNW,292,2.0,2.9,26,0.00,,---,0.00,VWS V14.01,2013-04-21 16:41:00,
2013-04-21 12:42:00,53.4,19.4,29.74,West,270,4.7,4.7,26,0.00,,---,0.00,VWS V14.01,2013-04-21 16:42:00,
2013-04-21 12:43:00,53.4,19.4,29.74,WNW,292,2.7,4.7,26,0.00,,---,0.00,VWS V14.01,2013-04-21 16:43:00,
2013-04-21 12:44:00,54.0,19.0,29.74,NNE,22,3.6,3.6,25,0.00,,---,0.00,VWS V14.01,2013-04-21 16:44:00,
2013-04-21 12:45:00,54.0,19.0,29.74,WNW,292,1.6,3.6,25,0.00,,---,0.00,VWS V14.01,2013-04-21 16:45:00,
2013-04-21 12:46:00,52.0,15.4,29.74,East,90,2.5,2.5,23,0.00,,---,0.00,VWS V14.01,2013-04-21 16:46:00,
2013-04-21 12:47:00,52.5,18.6,29.74,East,90,2.5,2.5,26,0.00,,---,0.00,VWS V14.01,2013-04-21 16:47:00,
2013-04-21 12:48:00,52.5,18.6,29.74,SW,225,3.1,3.1,26,0.00,,---,0.00,VWS V14.01,2013-04-21 16:48:00,
2013-04-21 12:49:00,53.6,18.6,29.74,South,180,2.0,3.4,25,0.00,,---,0.00,VWS V14.01,2013-04-21 16:49:00,
2013-04-21 12:50:00,53.6,18.6,29.74,NW,315,3.8,3.8,25,0.00,,---,0.00,VWS V14.01,2013-04-21 16:50:00,
2013-04-21 12:51:00,53.1,16.3,29.74,WNW,292,3.6,3.8,23,0.00,,---,0.00,VWS V14.01,2013-04-21 16:51:00,
2013-04-21 12:52:00,53.1,16.3,29.74,WNW,292,2.5,3.6,23,0.00,,---,0.00,VWS V14.01,2013-04-21 16:52:00,
2013-04-21 12:53:00,53.1,19.1,29.74,WNW,292,7.4,7.4,26,0.00,,---,0.00,VWS V14.01,2013-04-21 16:53:00,
2013-04-21 12:54:00,52.3,15.7,29.76,WSW,248,7.2,7.2,23,0.00,,---,0.00,VWS V14.01,2013-04-21 16:54:00,
2013-04-21 12:55:00,52.3,15.6,29.76,WSW,248,3.1,7.2,23,0.00,,---,0.00,VWS V14.01,2013-04-21 16:55:00,
2013-04-21 12:56:00,52.5,15.8,29.76,WSW,248,2.7,3.1,23,0.00,,---,0.00,VWS V14.01,2013-04-21 16:56:00,
2013-04-21 12:57:00,52.5,15.8,29.76,WNW,292,4.0,4.0,23,0.00,,---,0.00,VWS V14.01,2013-04-21 16:57:00,
2013-04-21 12:58:00,52.3,15.6,29.76,WNW,292,4.0,5.4,23,0.00,,---,0.00,VWS V14.01,2013-04-21 16:58:00,
2013-04-21 12:59:00,52.3,15.7,29.76,West,270,3.4,3.4,23,0.00,,---,0.00,VWS V14.01,2013-04-21 16:59:00,
2013-04-21 13:00:00,53.6,18.6,29.76,WNW,292,5.8,5.8,25,0.00,,---,0.00,VWS V14.01,2013-04-21 17:00:00,
2013-04-21 13:01:00,53.6,18.6,29.76,WNW,292,3.4,5.8,25,0.00,,---,0.00,VWS V14.01,2013-04-21 17:01:00,
2013-04-21 13:02:00,54.5,19.4,29.76,WNW,292,4.3,4.3,25,0.00,,---,0.00,VWS V14.01,2013-04-21 17:02:00,
2013-04-21 13:03:00,53.2,16.4,29.76,West,270,2.5,4.3,23,0.00,,---,0.00,VWS V14.01,2013-04-21 17:03:00,
2013-04-21 13:04:00,53.2,16.4,29.76,WSW,248,5.6,5.6,23,0.00,,---,0.00,VWS V14.01,2013-04-21 17:04:00,
2013-04-21 13:05:00,53.1,19.1,29.76,SW,225,2.9,5.6,26,0.00,,---,0.00,VWS V14.01,2013-04-21 17:05:00,
2013-04-21 13:06:00,53.1,19.1,29.76,ESE,112,9.8,9.8,26,0.00,,---,0.00,VWS V14.01,2013-04-21 17:06:00,
2013-04-21 13:07:00,52.9,16.1,29.76,NNE,22,1.6,9.8,23,0.00,,---,0.00,VWS V14.01,2013-04-21 17:07:00,
2013-04-21 13:08:00,52.9,16.1,29.76,South,180,3.4,3.4,23,0.00,,---,0.00,VWS V14.01,2013-04-21 17:08:00,
2013-04-21 13:09:00,52.7,16.0,29.74,South,180,3.4,3.4,23,0.00,,---,0.00,VWS V14.01,2013-04-21 17:09:00,
2013-04-21 13:10:00,54.5,19.4,29.74,WNW,292,5.4,5.4,25,0.00,,---,0.00,VWS V14.01,2013-04-21 17:10:00,
2013-04-21 13:11:00,54.5,19.4,29.74,WSW,248,3.4,5.4,25,0.00,,---,0.00,VWS V14.01,2013-04-21 17:11:00,
2013-04-21 13:12:00,54.3,19.3,29.74,WNW,292,7.2,7.2,25,0.00,,---,0.00,VWS V14.01,2013-04-21 17:12:00,
2013-04-21 13:13:00,54.3,19.3,29.74,NW,315,7.2,7.2,25,0.00,,---,0.00,VWS V14.01,2013-04-21 17:13:00,
2013-04-21 13:14:00,53.4,16.6,29.74,NNW,338,3.6,8.5,23,0.00,,---,0.00,VWS V14.01,2013-04-21 17:14:00,
2013-04-21 13:15:00,53.4,16.6,29.74,West,270,5.4,5.4,23,0.00,,---,0.00,VWS V14.01,2013-04-21 17:15:00,
2013-04-21 13:16:00,52.9,16.1,29.74,WNW,292,3.8,5.4,23,0.00,,---,0.00,VWS V14.01,2013-04-21 17:16:00,
2013-04-21 13:17:00,52.9,16.1,29.74,WNW,292,6.9,6.9,23,0.00,,---,0.00,VWS V14.01,2013-04-21 17:17:00,
2013-04-21 13:18:00,53.8,16.9,29.74,NNW,338,5.8,6.9,23,0.00,,---,0.00,VWS V14.01,2013-04-21 17:18:00,
2013-04-21 13:19:00,53.2,16.4,29.74,NNW,338,4.0,4.0,23,0.00,,---,0.00,VWS V14.01,2013-04-21 17:19:00,
2013-04-21 13:20:00,53.2,16.4,29.74,ESE,112,2.9,4.0,23,0.00,,---,0.00,VWS V14.01,2013-04-21 17:20:00,
2013-04-21 13:21:00,52.5,15.8,29.74,WNW,292,3.8,3.8,23,0.00,,---,0.00,VWS V14.01,2013-04-21 17:21:00,
2013-04-21 13:22:00,52.5,15.8,29.74,NW,315,4.9,4.9,23,0.00,,---,0.00,VWS V14.01,2013-04-21 17:22:00,
2013-04-21 13:23:00,52.0,13.3,29.74,WSW,248,2.2,4.9,21,0.00,,---,0.00,VWS V14.01,2013-04-21 17:23:00,
2013-04-21 13:24:00,52.2,15.5,29.76,WSW,248,5.8,5.8,23,0.00,,---,0.00,VWS V14.01,2013-04-21 17:24:00,
2013-04-21 13:25:00,52.2,15.5,29.76,NW,315,4.7,5.8,23,0.00,,---,0.00,VWS V14.01,2013-04-21 17:25:00,
2013-04-21 13:26:00,53.2,16.4,29.76,WNW,292,8.7,8.7,23,0.00,,---,0.00,VWS V14.01,2013-04-21 17:26:00,
2013-04-21 13:27:00,53.2,16.4,29.76,West,270,4.5,8.7,23,0.00,,---,0.00,VWS V14.01,2013-04-21 17:27:00,
2013-04-21 13:28:00,54.1,17.2,29.76,West,270,4.7,4.7,23,0.00,,---,0.00,VWS V14.01,2013-04-21 17:28:00,
2013-04-21 13:29:00,54.1,17.2,29.76,WNW,292,7.2,7.2,23,0.00,,---,0.00,VWS V14.01,2013-04-21 17:29:00,
2013-04-21 13:30:00,55.0,17.9,29.76,NNW,338,6.3,7.2,23,0.00,,---,0.00,VWS V14.01,2013-04-21 17:30:00,
2013-04-21 13:31:00,55.0,17.9,29.76,WSW,248,4.0,6.3,23,0.00,,---,0.00,VWS V14.01,2013-04-21 17:31:00,
2013-04-21 13:32:00,54.5,17.5,29.76,WNW,292,3.8,4.0,23,0.00,,---,0.00,VWS V14.01,2013-04-21 17:32:00,
2013-04-21 13:33:00,54.5,17.5,29.76,WSW,248,2.9,3.8,23,0.00,,---,0.00,VWS V14.01,2013-04-21 17:33:00,
2013-04-21 13:34:00,54.5,17.5,29.76,WSW,248,1.6,2.9,23,0.00,,---,0.00,VWS V14.01,2013-04-21 17:34:00,
2013-04-21 13:35:00,55.4,20.2,29.76,WSW,248,3.8,3.8,25,0.00,,---,0.00,VWS V14.01,2013-04-21 17:35:00,
2013-04-21 13:36:00,55.4,20.2,29.76,WNW,292,3.4,4.3,25,0.00,,---,0.00,VWS V14.01,2013-04-21 17:36:00,
2013-04-21 13:37:00,55.0,17.9,29.76,West,270,5.6,5.6,23,0.00,,---,0.00,VWS V14.01,2013-04-21 17:37:00,
2013-04-21 13:38:00,55.0,17.9,29.76,WNW,292,3.4,5.6,23,0.00,,---,0.00,VWS V14.01,2013-04-21 17:38:00,
2013-04-21 13:39:00,54.7,17.6,29.74,SW,225,2.5,4.3,23,0.00,,---,0.00,VWS V14.01,2013-04-21 17:39:00,
2013-04-21 13:40:00,54.5,17.5,29.74,SW,225,2.5,4.3,23,0.00,,---,0.00,VWS V14.01,2013-04-21 17:40:00,
2013-04-21 13:41:00,54.5,17.5,29.74,WNW,292,2.0,3.8,23,0.00,,---,0.00,VWS V14.01,2013-04-21 17:41:00,
2013-04-21 13:42:00,53.8,16.9,29.74,NNW,338,5.6,5.6,23,0.00,,---,0.00,VWS V14.01,2013-04-21 17:42:00,
2013-04-21 13:43:00,53.8,16.9,29.74,NW,315,3.1,5.6,23,0.00,,---,0.00,VWS V14.01,2013-04-21 17:43:00,
2013-04-21 13:44:00,53.8,16.9,29.74,NNW,338,2.7,3.1,23,0.00,,---,0.00,VWS V14.01,2013-04-21 17:44:00,
2013-04-21 13:45:00,53.8,16.9,29.74,NNW,338,2.0,2.7,23,0.00,,---,0.00,VWS V14.01,2013-04-21 17:45:00,
2013-04-21 13:46:00,53.8,13.7,29.74,ENE,68,2.5,2.5,20,0.00,,---,0.00,VWS V14.01,2013-04-21 17:46:00,
2013-04-21 13:47:00,53.4,14.5,29.74,WNW,292,1.6,2.5,21,0.00,,---,0.00,VWS V14.01,2013-04-21 17:47:00,
2013-04-21 13:48:00,53.4,14.5,29.74,WNW,292,2.9,2.9,21,0.00,,---,0.00,VWS V14.01,2013-04-21 17:48:00,
2013-04-21 13:49:00,54.0,13.8,29.74,WNW,292,4.0,4.0,20,0.00,,---,0.00,VWS V14.01,2013-04-21 17:49:00,
2013-04-21 13:50:00,54.0,13.8,29.74,WSW,248,4.0,4.0,20,0.00,,---,0.00,VWS V14.01,2013-04-21 17:50:00,
2013-04-21 13:51:00,53.4,14.5,29.74,WNW,292,5.8,5.8,21,0.00,,---,0.00,VWS V14.01,2013-04-21 17:51:00,
2013-04-21 13:52:00,53.4,14.5,29.74,WNW,292,7.4,7.4,21,0.00,,---,0.00,VWS V14.01,2013-04-21 17:52:00,
2013-04-21 13:53:00,53.6,13.5,29.74,WNW,292,7.4,7.4,20,0.00,,---,0.00,VWS V14.01,2013-04-21 17:53:00,
2013-04-21 13:54:00,54.0,13.8,29.74,WNW,292,5.8,5.8,20,0.00,,---,0.00,VWS V14.01,2013-04-21 17:54:00,
2013-04-21 13:55:00,54.0,13.8,29.74,West,270,3.8,5.8,20,0.00,,---,0.00,VWS V14.01,2013-04-21 17:55:00,
2013-04-21 13:56:00,54.3,17.3,29.74,West,270,6.5,6.5,23,0.00,,---,0.00,VWS V14.01,2013-04-21 17:56:00,
2013-04-21 13:57:00,54.3,17.3,29.74,West,270,7.2,7.2,23,0.00,,---,0.00,VWS V14.01,2013-04-21 17:57:00,
2013-04-21 13:58:00,54.5,17.5,29.74,West,270,4.3,7.2,23,0.00,,---,0.00,VWS V14.01,2013-04-21 17:58:00,
2013-04-21 13:59:00,54.5,17.5,29.74,West,270,3.4,3.4,23,0.00,,---,0.00,VWS V14.01,2013-04-21 17:59:00,
2013-04-21 14:00:00,55.2,18.1,29.74,NNE,22,2.9,3.4,23,0.00,,---,0.00,VWS V14.01,2013-04-21 18:00:00,
2013-04-21 14:01:00,55.2,18.1,29.74,WSW,248,3.6,3.6,23,0.00,,---,0.00,VWS V14.01,2013-04-21 18:01:00,
2013-04-21 14:02:00,54.9,14.6,29.74,West,270,4.3,4.3,20,0.00,,---,0.00,VWS V14.01,2013-04-21 18:02:00,
2013-04-21 14:03:00,55.8,15.3,29.74,WNW,292,3.6,4.9,20,0.00,,---,0.00,VWS V14.01,2013-04-21 18:03:00,
2013-04-21 14:04:00,55.8,15.3,29.74,WNW,292,6.3,6.3,20,0.00,,---,0.00,VWS V14.01,2013-04-21 18:04:00,
2013-04-21 14:05:00,54.5,14.3,29.74,West,270,3.4,6.3,20,0.00,,---,0.00,VWS V14.01,2013-04-21 18:05:00,
2013-04-21 14:06:00,54.5,14.3,29.74,West,270,5.4,5.4,20,0.00,,---,0.00,VWS V14.01,2013-04-21 18:06:00,
2013-04-21 14:07:00,54.5,14.3,29.74,NNW,338,1.6,5.4,20,0.00,,---,0.00,VWS V14.01,2013-04-21 18:07:00,
2013-04-21 14:08:00,54.5,14.3,29.74,WNW,292,5.6,5.6,20,0.00,,---,0.00,VWS V14.01,2013-04-21 18:08:00,
2013-04-21 14:09:00,54.5,14.3,29.74,West,270,5.8,5.8,20,0.00,,---,0.00,VWS V14.01,2013-04-21 18:09:00,
2013-04-21 14:10:00,54.5,14.3,29.74,West,270,6.5,6.5,20,0.00,,---,0.00,VWS V14.01,2013-04-21 18:10:00,
2013-04-21 14:11:00,54.9,14.6,29.74,WNW,292,4.7,6.5,20,0.00,,---,0.00,VWS V14.01,2013-04-21 18:11:00,
2013-04-21 14:12:00,55.6,17.4,29.74,WNW,292,4.0,4.7,22,0.00,,---,0.00,VWS V14.01,2013-04-21 18:12:00,
2013-04-21 14:13:00,55.6,17.4,29.74,WSW,248,4.0,4.0,22,0.00,,---,0.00,VWS V14.01,2013-04-21 18:13:00,
2013-04-21 14:14:00,55.0,14.7,29.74,WNW,292,4.9,4.9,20,0.00,,---,0.00,VWS V14.01,2013-04-21 18:14:00,
2013-04-21 14:15:00,55.0,14.7,29.74,WNW,292,6.3,7.8,20,0.00,,---,0.00,VWS V14.01,2013-04-21 18:15:00,
2013-04-21 14:16:00,54.1,14.0,29.74,NNW,338,5.8,6.3,20,0.00,,---,0.00,VWS V14.01,2013-04-21 18:16:00,
2013-04-21 14:17:00,54.1,14.0,29.74,WNW,292,5.8,5.8,20,0.00,,---,0.00,VWS V14.01,2013-04-21 18:17:00,
2013-04-21 14:18:00,54.1,14.0,29.74,West,270,7.6,7.6,20,0.00,,---,0.00,VWS V14.01,2013-04-21 18:18:00,
2013-04-21 14:19:00,54.5,14.3,29.74,West,270,6.5,6.5,20,0.00,,---,0.00,VWS V14.01,2013-04-21 18:19:00,
2013-04-21 14:20:00,54.5,14.3,29.74,NNE,22,2.7,6.5,20,0.00,,---,0.00,VWS V14.01,2013-04-21 18:20:00,
2013-04-21 14:21:00,54.5,17.5,29.74,West,270,5.8,5.8,23,0.00,,---,0.00,VWS V14.01,2013-04-21 18:21:00,
2013-04-21 14:22:00,54.5,17.5,29.74,West,270,3.1,5.8,23,0.00,,---,0.00,VWS V14.01,2013-04-21 18:22:00,
2013-04-21 14:23:00,54.1,14.0,29.74,WNW,292,4.9,4.9,20,0.00,,---,0.00,VWS V14.01,2013-04-21 18:23:00,
2013-04-21 14:24:00,54.1,14.0,29.76,WNW,292,4.7,4.9,20,0.00,,---,0.00,VWS V14.01,2013-04-21 18:24:00,
2013-04-21 14:25:00,54.1,14.0,29.76,WSW,248,4.9,4.9,20,0.00,,---,0.00,VWS V14.01,2013-04-21 18:25:00,
2013-04-21 14:26:00,55.2,14.9,29.76,SW,225,3.4,4.9,20,0.00,,---,0.00,VWS V14.01,2013-04-21 18:26:00,
2013-04-21 14:27:00,55.2,14.9,29.76,WNW,292,5.4,5.4,20,0.00,,---,0.00,VWS V14.01,2013-04-21 18:27:00,
2013-04-21 14:28:00,55.0,14.7,29.76,West,270,4.0,6.0,20,0.00,,---,0.00,VWS V14.01,2013-04-21 18:28:00,
2013-04-21 14:29:00,55.0,14.7,29.76,West,270,5.4,5.4,20,0.00,,---,0.00,VWS V14.01,2013-04-21 18:29:00,
2013-04-21 14:30:00,55.2,14.9,29.76,WSW,248,5.8,5.8,20,0.00,,---,0.00,VWS V14.01,2013-04-21 18:30:00,
2013-04-21 14:31:00,55.2,14.9,29.76,WNW,292,3.4,5.8,20,0.00,,---,0.00,VWS V14.01,2013-04-21 18:31:00,
2013-04-21 14:32:00,55.0,14.7,29.76,West,270,8.1,8.1,20,0.00,,---,0.00,VWS V14.01,2013-04-21 18:32:00,
2013-04-21 14:33:00,55.0,14.7,29.76,WNW,292,6.0,8.1,20,0.00,,---,0.00,VWS V14.01,2013-04-21 18:33:00,
2013-04-21 14:34:00,55.0,14.7,29.76,NW,315,6.0,6.0,20,0.00,,---,0.00,VWS V14.01,2013-04-21 18:34:00,
2013-04-21 14:35:00,53.1,10.7,29.76,NNW,338,5.4,6.0,18,0.00,,---,0.00,VWS V14.01,2013-04-21 18:35:00,
2013-04-21 14:36:00,53.1,10.7,29.76,WNW,292,4.9,5.4,18,0.00,,---,0.00,VWS V14.01,2013-04-21 18:36:00,
2013-04-21 14:37:00,52.9,14.0,29.76,WNW,292,3.8,4.9,21,0.00,,---,0.00,VWS V14.01,2013-04-21 18:37:00,
2013-04-21 14:38:00,52.9,14.0,29.76,WSW,248,2.7,3.8,21,0.00,,---,0.00,VWS V14.01,2013-04-21 18:38:00,
2013-04-21 14:39:00,53.4,14.5,29.76,WSW,248,4.5,4.5,21,0.00,,---,0.00,VWS V14.01,2013-04-21 18:39:00,
2013-04-21 14:40:00,54.1,14.0,29.76,WNW,292,4.9,5.6,20,0.00,,---,0.00,VWS V14.01,2013-04-21 18:40:00,
2013-04-21 14:41:00,54.1,14.0,29.76,WNW,292,6.0,6.0,20,0.00,,---,0.00,VWS V14.01,2013-04-21 18:41:00,
2013-04-21 14:42:00,54.0,13.8,29.76,WNW,292,8.1,8.1,20,0.00,,---,0.00,VWS V14.01,2013-04-21 18:42:00,
2013-04-21 14:43:00,54.0,13.8,29.76,WSW,248,6.0,8.1,20,0.00,,---,0.00,VWS V14.01,2013-04-21 18:43:00,
2013-04-21 14:44:00,54.5,14.3,29.76,WSW,248,7.8,7.8,20,0.00,,---,0.00,VWS V14.01,2013-04-21 18:44:00,
2013-04-21 14:45:00,54.5,14.3,29.76,WSW,248,7.4,7.8,20,0.00,,---,0.00,VWS V14.01,2013-04-21 18:45:00,
2013-04-21 14:46:00,54.3,14.1,29.76,WNW,292,4.0,7.4,20,0.00,,---,0.00,VWS V14.01,2013-04-21 18:46:00,
2013-04-21 14:47:00,54.3,14.1,29.76,WSW,248,6.7,6.7,20,0.00,,---,0.00,VWS V14.01,2013-04-21 18:47:00,
2013-04-21 14:48:00,54.3,14.1,29.76,West,270,3.8,6.7,20,0.00,,---,0.00,VWS V14.01,2013-04-21 18:48:00,
2013-04-21 14:49:00,54.1,14.0,29.76,WSW,248,3.1,3.8,20,0.00,,---,0.00,VWS V14.01,2013-04-21 18:49:00,
2013-04-21 14:50:00,54.1,14.0,29.76,WNW,292,2.9,3.1,20,0.00,,---,0.00,VWS V14.01,2013-04-21 18:50:00,
2013-04-21 14:51:00,52.9,10.6,29.76,SSE,158,2.7,2.9,18,0.00,,---,0.00,VWS V14.01,2013-04-21 18:51:00,
2013-04-21 14:52:00,52.9,10.6,29.76,NNE,22,2.2,2.7,18,0.00,,---,0.00,VWS V14.01,2013-04-21 18:52:00,
2013-04-21 14:53:00,53.1,10.7,29.76,WNW,292,6.0,6.0,18,0.00,,---,0.00,VWS V14.01,2013-04-21 18:53:00,
2013-04-21 14:54:00,53.1,10.7,29.74,NNW,338,4.9,6.0,18,0.00,,---,0.00,VWS V14.01,2013-04-21 18:54:00,
2013-04-21 14:55:00,52.3,10.1,29.74,NE,45,4.9,4.9,18,0.00,,---,0.00,VWS V14.01,2013-04-21 18:55:00,
2013-04-21 14:56:00,53.2,10.9,29.74,NNW,338,3.6,4.9,18,0.00,,---,0.00,VWS V14.01,2013-04-21 18:56:00,
2013-04-21 14:57:00,53.2,10.9,29.74,SSW,202,2.9,6.3,18,0.00,,---,0.00,VWS V14.01,2013-04-21 18:57:00,
2013-04-21 14:58:00,53.6,13.5,29.74,NW,315,3.4,3.4,20,0.00,,---,0.00,VWS V14.01,2013-04-21 18:58:00,
2013-04-21 14:59:00,53.6,13.5,29.74,WNW,292,2.9,3.4,20,0.00,,---,0.00,VWS V14.01,2013-04-21 18:59:00,
2013-04-21 15:00:00,54.1,14.0,29.74,WNW,292,4.0,4.0,20,0.00,,---,0.00,VWS V14.01,2013-04-21 19:00:00,
2013-04-21 15:01:00,54.1,14.0,29.74,WNW,292,5.4,5.4,20,0.00,,---,0.00,VWS V14.01,2013-04-21 19:01:00,
2013-04-21 15:02:00,54.1,14.0,29.74,WNW,292,5.4,5.4,20,0.00,,---,0.00,VWS V14.01,2013-04-21 19:02:00,
2013-04-21 15:03:00,54.1,14.0,29.74,WNW,292,6.3,6.3,20,0.00,,---,0.00,VWS V14.01,2013-04-21 19:03:00,
2013-04-21 15:04:00,53.1,10.7,29.74,NNE,22,5.4,6.3,18,0.00,,---,0.00,VWS V14.01,2013-04-21 19:04:00,
2013-04-21 15:05:00,53.1,10.7,29.74,WSW,248,4.7,5.4,18,0.00,,---,0.00,VWS V14.01,2013-04-21 19:05:00,
2013-04-21 15:06:00,53.1,10.7,29.74,West,270,3.6,4.7,18,0.00,,---,0.00,VWS V14.01,2013-04-21 19:06:00,
2013-04-21 15:07:00,54.3,14.1,29.74,WNW,292,5.4,5.4,20,0.00,,---,0.00,VWS V14.01,2013-04-21 19:07:00,
2013-04-21 15:08:00,54.3,14.1,29.74,WNW,292,3.4,5.4,20,0.00,,---,0.00,VWS V14.01,2013-04-21 19:08:00,
2013-04-21 15:09:00,54.0,11.4,29.76,WNW,292,4.0,4.0,18,0.00,,---,0.00,VWS V14.01,2013-04-21 19:09:00,
2013-04-21 15:10:00,53.6,11.1,29.76,WSW,248,1.6,4.0,18,0.00,,---,0.00,VWS V14.01,2013-04-21 19:10:00,
2013-04-21 15:11:00,53.6,11.1,29.76,WNW,292,3.4,3.4,18,0.00,,---,0.00,VWS V14.01,2013-04-21 19:11:00,
2013-04-21 15:12:00,54.9,14.6,29.76,WNW,292,2.7,3.4,20,0.00,,---,0.00,VWS V14.01,2013-04-21 19:12:00,
2013-04-21 15:13:00,54.9,14.6,29.76,West,270,3.4,3.4,20,0.00,,---,0.00,VWS V14.01,2013-04-21 19:13:00,
2013-04-21 15:14:00,55.0,14.7,29.76,West,270,4.0,4.0,20,0.00,,---,0.00,VWS V14.01,2013-04-21 19:14:00,
2013-04-21 15:15:00,55.0,14.7,29.76,WNW,292,3.1,7.6,20,0.00,,---,0.00,VWS V14.01,2013-04-21 19:15:00,
2013-04-21 15:16:00,54.0,13.8,29.76,WSW,248,4.3,4.3,20,0.00,,---,0.00,VWS V14.01,2013-04-21 19:16:00,
2013-04-21 15:17:00,54.0,13.8,29.76,SSW,202,3.8,4.3,20,0.00,,---,0.00,VWS V14.01,2013-04-21 19:17:00,
2013-04-21 15:18:00,54.5,14.3,29.76,West,270,6.0,6.0,20,0.00,,---,0.00,VWS V14.01,2013-04-21 19:18:00,
2013-04-21 15:19:00,54.5,14.3,29.76,WSW,248,3.4,6.0,20,0.00,,---,0.00,VWS V14.01,2013-04-21 19:19:00,
2013-04-21 15:20:00,54.5,14.3,29.76,SW,225,3.8,3.8,20,0.00,,---,0.00,VWS V14.01,2013-04-21 19:20:00,
2013-04-21 15:21:00,54.3,14.1,29.76,WNW,292,4.9,4.9,20,0.00,,---,0.00,VWS V14.01,2013-04-21 19:21:00,
2013-04-21 15:22:00,54.3,14.1,29.76,WNW,292,5.6,5.6,20,0.00,,---,0.00,VWS V14.01,2013-04-21 19:22:00,
2013-04-21 15:23:00,52.9,10.6,29.74,West,270,5.6,5.6,18,0.00,,---,0.00,VWS V14.01,2013-04-21 19:23:00,
2013-04-21 15:24:00,52.9,10.6,29.74,West,270,5.6,5.6,18,0.00,,---,0.00,VWS V14.01,2013-04-21 19:24:00,
2013-04-21 15:25:00,53.8,13.7,29.74,WNW,292,7.4,7.4,20,0.00,,---,0.00,VWS V14.01,2013-04-21 19:25:00,
2013-04-21 15:26:00,53.2,10.9,29.74,WSW,248,5.4,7.4,18,0.00,,---,0.00,VWS V14.01,2013-04-21 19:26:00,
2013-04-21 15:27:00,53.2,10.9,29.74,WSW,248,3.8,5.4,18,0.00,,---,0.00,VWS V14.01,2013-04-21 19:27:00,
2013-04-21 15:28:00,53.6,13.5,29.74,West,270,4.0,6.5,20,0.00,,---,0.00,VWS V14.01,2013-04-21 19:28:00,
2013-04-21 15:29:00,53.6,13.5,29.74,West,270,4.0,6.5,20,0.00,,---,0.00,VWS V14.01,2013-04-21 19:29:00,
2013-04-21 15:30:00,53.2,10.9,29.74,SW,225,2.7,6.3,18,0.00,,---,0.00,VWS V14.01,2013-04-21 19:30:00,
2013-04-21 15:31:00,53.2,10.9,29.74,WNW,292,3.4,3.4,18,0.00,,---,0.00,VWS V14.01,2013-04-21 19:31:00,
2013-04-21 15:32:00,53.1,10.7,29.74,WNW,292,2.5,3.4,18,0.00,,---,0.00,VWS V14.01,2013-04-21 19:32:00,
2013-04-21 15:33:00,52.7,10.4,29.74,NW,315,2.7,8.5,18,0.00,,---,0.00,VWS V14.01,2013-04-21 19:33:00,
2013-04-21 15:34:00,52.7,10.4,29.74,NW,315,2.7,8.5,18,0.00,,---,0.00,VWS V14.01,2013-04-21 19:34:00,
2013-04-21 15:35:00,52.7,10.4,29.74,West,270,4.0,5.4,18,0.00,,---,0.00,VWS V14.01,2013-04-21 19:35:00,
2013-04-21 15:36:00,52.7,10.4,29.74,WNW,292,1.6,4.0,18,0.00,,---,0.00,VWS V14.01,2013-04-21 19:36:00,
2013-04-21 15:37:00,52.5,10.2,29.74,WSW,248,3.1,3.1,18,0.00,,---,0.00,VWS V14.01,2013-04-21 19:37:00,
2013-04-21 15:38:00,52.7,10.4,29.71,WSW,248,4.3,4.3,18,0.00,,---,0.00,VWS V14.01,2013-04-21 19:38:00,
2013-04-21 15:39:00,52.7,10.4,29.71,WSW,248,4.3,4.3,18,0.00,,---,0.00,VWS V14.01,2013-04-21 19:39:00,
2013-04-21 15:40:00,52.7,10.4,29.71,WSW,248,4.0,4.3,18,0.00,,---,0.00,VWS V14.01,2013-04-21 19:40:00,
2013-04-21 15:41:00,52.7,10.4,29.71,WNW,292,3.1,4.0,18,0.00,,---,0.00,VWS V14.01,2013-04-21 19:41:00,
2013-04-21 15:42:00,53.2,10.9,29.71,WNW,292,4.7,5.4,18,0.00,,---,0.00,VWS V14.01,2013-04-21 19:42:00,
2013-04-21 15:43:00,52.3,10.1,29.71,WSW,248,4.0,6.0,18,0.00,,---,0.00,VWS V14.01,2013-04-21 19:43:00,
2013-04-21 15:44:00,52.3,10.1,29.71,WSW,248,4.0,6.0,18,0.00,,---,0.00,VWS V14.01,2013-04-21 19:44:00,
2013-04-21 15:45:00,52.3,10.1,29.71,West,270,2.5,4.0,18,0.00,,---,0.00,VWS V14.01,2013-04-21 19:45:00,
2013-04-21 15:46:00,52.3,10.1,29.71,West,270,3.8,3.8,18,0.00,,---,0.00,VWS V14.01,2013-04-21 19:46:00,
2013-04-21 15:47:00,52.3,10.1,29.71,WNW,292,3.4,3.8,18,0.00,,---,0.00,VWS V14.01,2013-04-21 19:47:00,
2013-04-21 15:48:00,52.5,10.2,29.71,NNW,338,3.4,3.6,18,0.00,,---,0.00,VWS V14.01,2013-04-21 19:48:00,
2013-04-21 15:49:00,51.6,10.7,29.71,NNW,338,3.4,3.6,19,0.00,,---,0.00,VWS V14.01,2013-04-21 19:49:00,
2013-04-21 15:50:00,51.6,10.7,29.71,WSW,248,3.1,3.4,19,0.00,,---,0.00,VWS V14.01,2013-04-21 19:50:00,
2013-04-21 15:51:00,51.4,10.6,29.71,NW,315,7.4,7.4,19,0.00,,---,0.00,VWS V14.01,2013-04-21 19:51:00,
2013-04-21 15:52:00,51.4,10.6,29.71,WNW,292,4.9,7.4,19,0.00,,---,0.00,VWS V14.01,2013-04-21 19:52:00,
2013-04-21 15:53:00,51.6,10.7,29.71,West,270,3.1,3.1,19,0.00,,---,0.00,VWS V14.01,2013-04-21 19:53:00,
2013-04-21 15:54:00,51.6,10.7,29.71,NNW,338,4.0,4.0,19,0.00,,---,0.00,VWS V14.01,2013-04-21 19:54:00,
2013-04-21 15:55:00,51.1,10.3,29.71,NW,315,4.3,4.3,19,0.00,,---,0.00,VWS V14.01,2013-04-21 19:55:00,
2013-04-21 15:56:00,51.1,10.3,29.71,WNW,292,2.7,4.3,19,0.00,,---,0.00,VWS V14.01,2013-04-21 19:56:00,
2013-04-21 15:57:00,51.4,10.6,29.71,WNW,292,6.0,6.0,19,0.00,,---,0.00,VWS V14.01,2013-04-21 19:57:00,
2013-04-21 15:58:00,51.8,9.7,29.71,West,270,5.6,5.6,18,0.00,,---,0.00,VWS V14.01,2013-04-21 19:58:00,
2013-04-21 15:59:00,51.8,9.7,29.71,WNW,292,5.8,5.8,18,0.00,,---,0.00,VWS V14.01,2013-04-21 19:59:00,
2013-04-21 16:00:00,52.2,10.0,29.71,WNW,292,2.9,5.8,18,0.00,,---,0.00,VWS V14.01,2013-04-21 20:00:00,
2013-04-21 16:01:00,52.2,10.0,29.71,West,270,5.8,5.8,18,0.00,,---,0.00,VWS V14.01,2013-04-21 20:01:00,
2013-04-21 16:02:00,51.4,10.6,29.71,West,270,5.6,5.8,19,0.00,,---,0.00,VWS V14.01,2013-04-21 20:02:00,
2013-04-21 16:03:00,51.1,10.3,29.71,WNW,292,3.6,4.3,19,0.00,,---,0.00,VWS V14.01,2013-04-21 20:03:00,
2013-04-21 16:04:00,51.1,10.3,29.71,WNW,292,3.6,4.3,19,0.00,,---,0.00,VWS V14.01,2013-04-21 20:04:00,
2013-04-21 16:05:00,51.4,10.6,29.71,WSW,248,2.9,3.6,19,0.00,,---,0.00,VWS V14.01,2013-04-21 20:05:00,
2013-04-21 16:06:00,51.4,10.6,29.71,WNW,292,6.5,6.5,19,0.00,,---,0.00,VWS V14.01,2013-04-21 20:06:00,
2013-04-21 16:07:00,52.0,9.8,29.71,WNW,292,4.3,6.5,18,0.00,,---,0.00,VWS V14.01,2013-04-21 20:07:00,
2013-04-21 16:08:00,51.3,10.4,29.71,WNW,292,1.1,1.6,19,0.00,,---,0.00,VWS V14.01,2013-04-21 20:08:00,
2013-04-21 16:09:00,51.3,10.4,29.71,WNW,292,1.1,1.6,19,0.00,,---,0.00,VWS V14.01,2013-04-21 20:09:00,
2013-04-21 16:10:00,51.3,10.4,29.71,WNW,292,1.6,1.6,19,0.00,,---,0.00,VWS V14.01,2013-04-21 20:10:00,
2013-04-21 16:11:00,50.7,6.2,29.71,North,0,3.1,3.1,16,0.00,,---,0.00,VWS V14.01,2013-04-21 20:11:00,
2013-04-21 16:12:00,50.4,9.7,29.71,WSW,248,3.4,3.4,19,0.00,,---,0.00,VWS V14.01,2013-04-21 20:12:00,
2013-04-21 16:13:00,50.0,5.6,29.71,NW,315,4.0,6.3,16,0.00,,---,0.00,VWS V14.01,2013-04-21 20:13:00,
2013-04-21 16:14:00,50.0,5.6,29.71,SW,225,1.3,6.3,16,0.00,,---,0.00,VWS V14.01,2013-04-21 20:14:00,
2013-04-21 16:15:00,50.0,5.6,29.71,SSW,202,3.1,3.1,16,0.00,,---,0.00,VWS V14.01,2013-04-21 20:15:00,
2013-04-21 16:16:00,50.0,9.4,29.71,WNW,292,2.9,3.1,19,0.00,,---,0.00,VWS V14.01,2013-04-21 20:16:00,
2013-04-21 16:17:00,50.0,9.4,29.71,WNW,292,2.7,2.9,19,0.00,,---,0.00,VWS V14.01,2013-04-21 20:17:00,
2013-04-21 16:18:00,50.4,9.7,29.71,WNW,292,3.1,3.8,19,0.00,,---,0.00,VWS V14.01,2013-04-21 20:18:00,
2013-04-21 16:19:00,50.7,10.0,29.71,WNW,292,3.1,3.8,19,0.00,,---,0.00,VWS V14.01,2013-04-21 20:19:00,
2013-04-21 16:20:00,50.7,10.0,29.71,West,270,4.0,4.0,19,0.00,,---,0.00,VWS V14.01,2013-04-21 20:20:00,
2013-04-21 16:21:00,50.7,10.0,29.71,West,270,3.8,4.0,19,0.00,,---,0.00,VWS V14.01,2013-04-21 20:21:00,
2013-04-21 16:22:00,50.7,10.0,29.71,WNW,292,3.8,3.8,19,0.00,,---,0.00,VWS V14.01,2013-04-21 20:22:00,
2013-04-21 16:23:00,50.7,10.0,29.74,NNW,338,4.9,5.8,19,0.00,,---,0.00,VWS V14.01,2013-04-21 20:23:00,
2013-04-21 16:24:00,50.7,10.0,29.74,NNW,338,4.9,5.8,19,0.00,,---,0.00,VWS V14.01,2013-04-21 20:24:00,
2013-04-21 16:25:00,50.0,5.6,29.74,WNW,292,5.6,5.6,16,0.00,,---,0.00,VWS V14.01,2013-04-21 20:25:00,
2013-04-21 16:26:00,49.5,5.2,29.74,WNW,292,3.6,5.6,16,0.00,,---,0.00,VWS V14.01,2013-04-21 20:26:00,
2013-04-21 16:27:00,49.5,5.2,29.74,NNE,22,4.0,4.0,16,0.00,,---,0.00,VWS V14.01,2013-04-21 20:27:00,
2013-04-21 16:28:00,49.1,4.9,29.74,WNW,292,3.8,5.6,16,0.00,,---,0.00,VWS V14.01,2013-04-21 20:28:00,
2013-04-21 16:29:00,49.1,4.9,29.74,WNW,292,3.8,5.6,16,0.00,,---,0.00,VWS V14.01,2013-04-21 20:29:00,
2013-04-21 16:30:00,49.8,9.2,29.74,WNW,292,3.6,3.8,19,0.00,,---,0.00,VWS V14.01,2013-04-21 20:30:00,
2013-04-21 16:31:00,49.8,9.2,29.74,West,270,2.0,3.6,19,0.00,,---,0.00,VWS V14.01,2013-04-21 20:31:00,
2013-04-21 16:32:00,50.4,9.7,29.74,West,270,2.5,2.5,19,0.00,,---,0.00,VWS V14.01,2013-04-21 20:32:00,
2013-04-21 16:33:00,49.8,9.2,29.74,NNE,22,3.4,3.4,19,0.00,,---,0.00,VWS V14.01,2013-04-21 20:33:00,
2013-04-21 16:34:00,49.8,9.2,29.74,NNE,22,3.4,3.4,19,0.00,,---,0.00,VWS V14.01,2013-04-21 20:34:00,
2013-04-21 16:35:00,49.6,9.1,29.74,West,270,2.5,3.4,19,0.00,,---,0.00,VWS V14.01,2013-04-21 20:35:00,
2013-04-21 16:36:00,49.6,9.1,29.74,ESE,112,2.5,2.5,19,0.00,,---,0.00,VWS V14.01,2013-04-21 20:36:00,
2013-04-21 16:37:00,50.0,9.4,29.74,ESE,112,2.5,2.5,19,0.00,,---,0.00,VWS V14.01,2013-04-21 20:37:00,
2013-04-21 16:38:00,49.8,9.2,29.74,ESE,112,2.9,2.9,19,0.00,,---,0.00,VWS V14.01,2013-04-21 20:38:00,
2013-04-21 16:39:00,49.8,9.2,29.74,ESE,112,1.6,2.9,19,0.00,,---,0.00,VWS V14.01,2013-04-21 20:39:00,
2013-04-21 16:40:00,49.8,9.2,29.74,West,270,2.7,2.7,19,0.00,,---,0.00,VWS V14.01,2013-04-21 20:40:00,
2013-04-21 16:41:00,49.8,9.2,29.74,WNW,292,4.0,4.0,19,0.00,,---,0.00,VWS V14.01,2013-04-21 20:41:00,
2013-04-21 16:42:00,49.5,8.9,29.74,NW,315,7.4,7.4,19,0.00,,---,0.00,VWS V14.01,2013-04-21 20:42:00,
2013-04-21 16:43:00,49.5,8.9,29.74,West,270,3.1,5.6,19,0.00,,---,0.00,VWS V14.01,2013-04-21 20:43:00,
2013-04-21 16:44:00,49.5,5.2,29.74,West,270,3.1,5.6,16,0.00,,---,0.00,VWS V14.01,2013-04-21 20:44:00,
2013-04-21 16:45:00,49.5,5.2,29.74,NNW,338,3.6,3.6,16,0.00,,---,0.00,VWS V14.01,2013-04-21 20:45:00,
2013-04-21 16:46:00,49.3,5.0,29.74,WNW,292,4.9,4.9,16,0.00,,---,0.00,VWS V14.01,2013-04-21 20:46:00,
2013-04-21 16:47:00,49.3,5.0,29.74,WNW,292,4.3,4.9,16,0.00,,---,0.00,VWS V14.01,2013-04-21 20:47:00,
2013-04-21 16:48:00,48.9,4.7,29.74,WNW,292,5.6,5.6,16,0.00,,---,0.00,VWS V14.01,2013-04-21 20:48:00,
2013-04-21 16:49:00,48.9,4.7,29.74,WNW,292,5.6,5.6,16,0.00,,---,0.00,VWS V14.01,2013-04-21 20:49:00,
2013-04-21 16:50:00,48.9,8.5,29.74,WNW,292,2.9,5.6,19,0.00,,---,0.00,VWS V14.01,2013-04-21 20:50:00,
2013-04-21 16:51:00,48.9,4.7,29.74,West,270,5.8,5.8,16,0.00,,---,0.00,VWS V14.01,2013-04-21 20:51:00,
2013-04-21 16:52:00,48.9,4.7,29.74,West,270,5.6,5.8,16,0.00,,---,0.00,VWS V14.01,2013-04-21 20:52:00,
2013-04-21 16:53:00,49.1,8.6,29.74,West,270,4.3,4.3,19,0.00,,---,0.00,VWS V14.01,2013-04-21 20:53:00,
2013-04-21 16:54:00,49.1,8.6,29.74,West,270,4.3,4.3,19,0.00,,---,0.00,VWS V14.01,2013-04-21 20:54:00,
2013-04-21 16:55:00,49.3,8.8,29.74,West,270,4.5,4.5,19,0.00,,---,0.00,VWS V14.01,2013-04-21 20:55:00,
2013-04-21 16:56:00,49.3,8.8,29.74,WNW,292,2.7,4.5,19,0.00,,---,0.00,VWS V14.01,2013-04-21 20:56:00,
2013-04-21 16:57:00,49.3,8.8,29.74,NW,315,5.4,5.4,19,0.00,,---,0.00,VWS V14.01,2013-04-21 20:57:00,
2013-04-21 16:58:00,49.3,8.8,29.74,WSW,248,3.1,3.1,19,0.00,,---,0.00,VWS V14.01,2013-04-21 20:58:00,
2013-04-21 16:59:00,49.3,8.8,29.74,WSW,248,3.1,3.1,19,0.00,,---,0.00,VWS V14.01,2013-04-21 20:59:00,
2013-04-21 17:00:00,48.9,4.7,29.74,WSW,248,2.5,3.1,16,0.00,,---,0.00,VWS V14.01,2013-04-21 21:00:00,
2013-04-21 17:01:00,48.9,4.7,29.74,WNW,292,4.7,4.7,16,0.00,,---,0.00,VWS V14.01,2013-04-21 21:01:00,
2013-04-21 17:02:00,48.7,8.3,29.74,WNW,292,2.2,4.7,19,0.00,,---,0.00,VWS V14.01,2013-04-21 21:02:00,
2013-04-21 17:03:00,48.6,8.2,29.74,NW,315,3.6,3.6,19,0.00,,---,0.00,VWS V14.01,2013-04-21 21:03:00,
2013-04-21 17:04:00,48.6,8.2,29.74,NW,315,3.6,3.6,19,0.00,,---,0.00,VWS V14.01,2013-04-21 21:04:00,
2013-04-21 17:05:00,48.7,8.3,29.74,WNW,292,2.9,3.6,19,0.00,,---,0.00,VWS V14.01,2013-04-21 21:05:00,
2013-04-21 17:06:00,48.7,8.3,29.74,SW,225,3.6,3.6,19,0.00,,---,0.00,VWS V14.01,2013-04-21 21:06:00,
2013-04-21 17:07:00,48.7,8.3,29.74,WNW,292,3.6,3.6,19,0.00,,---,0.00,VWS V14.01,2013-04-21 21:07:00,
2013-04-21 17:08:00,48.6,8.2,29.74,WNW,292,3.8,4.0,19,0.00,,---,0.00,VWS V14.01,2013-04-21 21:08:00,
2013-04-21 17:09:00,48.6,8.2,29.74,WNW,292,3.8,4.0,19,0.00,,---,0.00,VWS V14.01,2013-04-21 21:09:00,
2013-04-21 17:10:00,48.6,8.2,29.74,NNW,338,3.1,3.8,19,0.00,,---,0.00,VWS V14.01,2013-04-21 21:10:00,
2013-04-21 17:11:00,47.8,7.6,29.74,WNW,292,4.7,4.7,19,0.00,,---,0.00,VWS V14.01,2013-04-21 21:11:00,
2013-04-21 17:12:00,48.0,5.3,29.74,WNW,292,2.5,4.7,17,0.00,,---,0.00,VWS V14.01,2013-04-21 21:12:00,
2013-04-21 17:13:00,48.0,5.3,29.74,West,270,4.3,4.3,17,0.00,,---,0.00,VWS V14.01,2013-04-21 21:13:00,
2013-04-21 17:14:00,48.2,4.1,29.74,NNW,338,3.1,4.3,16,0.00,,---,0.00,VWS V14.01,2013-04-21 21:14:00,
2013-04-21 17:15:00,48.2,4.1,29.74,West,270,3.6,3.6,16,0.00,,---,0.00,VWS V14.01,2013-04-21 21:15:00,
2013-04-21 17:16:00,47.7,7.4,29.74,West,270,3.8,3.8,19,0.00,,---,0.00,VWS V14.01,2013-04-21 21:16:00,
2013-04-21 17:17:00,47.7,7.4,29.74,WNW,292,3.6,3.8,19,0.00,,---,0.00,VWS V14.01,2013-04-21 21:17:00,
2013-04-21 17:18:00,47.3,4.7,29.74,WNW,292,3.8,3.8,17,0.00,,---,0.00,VWS V14.01,2013-04-21 21:18:00,
2013-04-21 17:19:00,47.3,7.1,29.74,West,270,3.8,3.8,19,0.00,,---,0.00,VWS V14.01,2013-04-21 21:19:00,
2013-04-21 17:20:00,47.3,7.1,29.74,NNW,338,4.0,4.0,19,0.00,,---,0.00,VWS V14.01,2013-04-21 21:20:00,
2013-04-21 17:21:00,47.1,7.0,29.74,WNW,292,3.4,4.0,19,0.00,,---,0.00,VWS V14.01,2013-04-21 21:21:00,
2013-04-21 17:22:00,47.1,7.0,29.74,WNW,292,3.4,3.4,19,0.00,,---,0.00,VWS V14.01,2013-04-21 21:22:00,
2013-04-21 17:23:00,46.6,4.1,29.74,WSW,248,2.5,4.9,17,0.00,,---,0.00,VWS V14.01,2013-04-21 21:23:00,
2013-04-21 17:24:00,46.6,4.1,29.74,WSW,248,2.5,4.9,17,0.00,,---,0.00,VWS V14.01,2013-04-21 21:24:00,
2013-04-21 17:25:00,46.2,3.8,29.74,WNW,292,2.9,2.9,17,0.00,,---,0.00,VWS V14.01,2013-04-21 21:25:00,
2013-04-21 17:26:00,46.2,3.8,29.74,NE,45,2.7,2.9,17,0.00,,---,0.00,VWS V14.01,2013-04-21 21:26:00,
2013-04-21 17:27:00,46.0,3.7,29.74,NNE,22,0.0,2.7,17,0.00,,---,0.00,VWS V14.01,2013-04-21 21:27:00,
2013-04-21 17:28:00,45.7,3.4,29.74,SE,135,2.7,2.7,17,0.00,,---,0.00,VWS V14.01,2013-04-21 21:28:00,
2013-04-21 17:29:00,45.7,3.4,29.74,WSW,248,0.9,2.7,17,0.00,,---,0.00,VWS V14.01,2013-04-21 21:29:00,
2013-04-21 17:30:00,45.5,3.2,29.74,NNW,338,2.7,2.7,17,0.00,,---,0.00,VWS V14.01,2013-04-21 21:30:00,
2013-04-21 17:31:00,45.5,3.2,29.74,WNW,292,5.4,5.4,17,0.00,,---,0.00,VWS V14.01,2013-04-21 21:31:00,
2013-04-21 17:32:00,45.7,3.4,29.74,WNW,292,5.4,5.4,17,0.00,,---,0.00,VWS V14.01,2013-04-21 21:32:00,
2013-04-21 17:33:00,45.3,3.1,29.74,WSW,248,2.5,4.0,17,0.00,,---,0.00,VWS V14.01,2013-04-21 21:33:00,
2013-04-21 17:34:00,45.3,3.1,29.74,NW,315,4.0,4.0,17,0.00,,---,0.00,VWS V14.01,2013-04-21 21:34:00,
2013-04-21 17:35:00,45.0,2.8,29.74,West,270,5.6,5.6,17,0.00,,---,0.00,VWS V14.01,2013-04-21 21:35:00,
2013-04-21 17:36:00,45.0,2.8,29.74,WNW,292,2.5,5.6,17,0.00,,---,0.00,VWS V14.01,2013-04-21 21:36:00,
2013-04-21 17:37:00,45.1,6.5,29.74,West,270,3.4,3.4,20,0.00,,---,0.00,VWS V14.01,2013-04-21 21:37:00,
2013-04-21 17:38:00,45.1,6.5,29.74,West,270,5.4,5.4,20,0.00,,---,0.00,VWS V14.01,2013-04-21 21:38:00,
2013-04-21 17:39:00,45.1,6.5,29.74,WNW,292,4.7,5.4,20,0.00,,---,0.00,VWS V14.01,2013-04-21 21:39:00,
2013-04-21 17:40:00,45.1,6.5,29.74,WNW,292,3.1,4.7,20,0.00,,---,0.00,VWS V14.01,2013-04-21 21:40:00,
2013-04-21 17:41:00,45.0,2.8,29.74,NNE,22,2.7,3.1,17,0.00,,---,0.00,VWS V14.01,2013-04-21 21:41:00,
2013-04-21 17:42:00,45.0,2.8,29.74,NNE,22,1.6,2.7,17,0.00,,---,0.00,VWS V14.01,2013-04-21 21:42:00,
2013-04-21 17:43:00,44.6,6.0,29.74,NW,315,3.1,4.0,20,0.00,,---,0.00,VWS V14.01,2013-04-21 21:43:00,
2013-04-21 17:44:00,44.4,3.6,29.74,NW,315,3.1,4.0,18,0.00,,---,0.00,VWS V14.01,2013-04-21 21:44:00,
2013-04-21 17:45:00,44.4,3.6,29.74,WNW,292,2.7,3.1,18,0.00,,---,0.00,VWS V14.01,2013-04-21 21:45:00,
2013-04-21 17:46:00,44.2,3.4,29.74,WNW,292,3.1,3.1,18,0.00,,---,0.00,VWS V14.01,2013-04-21 21:46:00,
2013-04-21 17:47:00,44.2,3.4,29.74,WNW,292,3.1,3.1,18,0.00,,---,0.00,VWS V14.01,2013-04-21 21:47:00,
2013-04-21 17:48:00,44.2,3.4,29.74,WNW,292,2.7,3.1,18,0.00,,---,0.00,VWS V14.01,2013-04-21 21:48:00,
2013-04-21 17:49:00,44.2,3.4,29.74,WNW,292,2.7,3.1,18,0.00,,---,0.00,VWS V14.01,2013-04-21 21:49:00,
2013-04-21 17:50:00,44.2,5.7,29.74,NNW,338,2.0,2.7,20,0.00,,---,0.00,VWS V14.01,2013-04-21 21:50:00,
2013-04-21 17:51:00,44.1,3.3,29.74,WSW,248,3.4,3.4,18,0.00,,---,0.00,VWS V14.01,2013-04-21 21:51:00,
2013-04-21 17:52:00,44.1,3.3,29.74,NW,315,2.9,3.6,18,0.00,,---,0.00,VWS V14.01,2013-04-21 21:52:00,
2013-04-21 17:53:00,43.9,3.1,29.74,WNW,292,2.7,2.7,18,0.00,,---,0.00,VWS V14.01,2013-04-21 21:53:00,
2013-04-21 17:54:00,43.9,3.1,29.74,West,270,5.8,5.8,18,0.00,,---,0.00,VWS V14.01,2013-04-21 21:54:00,
2013-04-21 17:55:00,43.9,3.1,29.74,WSW,248,3.8,5.8,18,0.00,,---,0.00,VWS V14.01,2013-04-21 21:55:00,
2013-04-21 17:56:00,43.9,3.1,29.74,WSW,248,2.5,3.8,18,0.00,,---,0.00,VWS V14.01,2013-04-21 21:56:00,
2013-04-21 17:57:00,44.1,5.6,29.74,WSW,248,2.5,2.5,20,0.00,,---,0.00,VWS V14.01,2013-04-21 21:57:00,
2013-04-21 17:58:00,44.1,5.6,29.74,SSE,158,2.2,2.2,20,0.00,,---,0.00,VWS V14.01,2013-04-21 21:58:00,
2013-04-21 17:59:00,44.1,5.6,29.74,North,0,2.0,2.2,20,0.00,,---,0.00,VWS V14.01,2013-04-21 21:59:00,
2013-04-21 18:00:00,43.5,5.1,29.74,WNW,292,2.9,2.9,20,0.00,,---,0.00,VWS V14.01,2013-04-21 22:00:00,
2013-04-21 18:01:00,43.5,5.1,29.74,WNW,292,3.1,3.1,20,0.00,,---,0.00,VWS V14.01,2013-04-21 22:01:00,
2013-04-21 18:02:00,43.2,4.8,29.74,WNW,292,1.6,3.1,20,0.00,,---,0.00,VWS V14.01,2013-04-21 22:02:00,
2013-04-21 18:03:00,43.0,4.7,29.74,ENE,68,0.0,0.0,20,0.00,,---,0.00,VWS V14.01,2013-04-21 22:03:00,
2013-04-21 18:04:00,43.0,4.7,29.74,ENE,68,0.0,0.0,20,0.00,,---,0.00,VWS V14.01,2013-04-21 22:04:00,
2013-04-21 18:05:00,43.0,4.7,29.74,ESE,112,2.7,2.7,20,0.00,,---,0.00,VWS V14.01,2013-04-21 22:05:00,
2013-04-21 18:06:00,43.0,4.7,29.74,ESE,112,0.9,2.7,20,0.00,,---,0.00,VWS V14.01,2013-04-21 22:06:00,
2013-04-21 18:07:00,43.0,4.7,29.74,ENE,68,0.0,0.9,20,0.00,,---,0.00,VWS V14.01,2013-04-21 22:07:00,
2013-04-21 18:08:00,43.0,4.7,29.76,ESE,112,2.7,3.6,20,0.00,,---,0.00,VWS V14.01,2013-04-21 22:08:00,
2013-04-21 18:09:00,42.6,5.4,29.76,SE,135,2.0,3.6,21,0.00,,---,0.00,VWS V14.01,2013-04-21 22:09:00,
2013-04-21 18:10:00,42.6,5.4,29.76,SE,135,0.0,2.0,21,0.00,,---,0.00,VWS V14.01,2013-04-21 22:10:00,
2013-04-21 18:11:00,42.4,5.3,29.76,SE,135,0.0,0.0,21,0.00,,---,0.00,VWS V14.01,2013-04-21 22:11:00,
2013-04-21 18:12:00,42.4,5.3,29.76,SE,135,3.6,3.6,21,0.00,,---,0.00,VWS V14.01,2013-04-21 22:12:00,
2013-04-21 18:13:00,42.4,5.3,29.76,WSW,248,4.3,4.3,21,0.00,,---,0.00,VWS V14.01,2013-04-21 22:13:00,
2013-04-21 18:14:00,42.4,5.3,29.76,NW,315,4.3,4.3,21,0.00,,---,0.00,VWS V14.01,2013-04-21 22:14:00,
2013-04-21 18:15:00,42.4,5.3,29.76,West,270,2.7,4.3,21,0.00,,---,0.00,VWS V14.01,2013-04-21 22:15:00,
2013-04-21 18:16:00,42.4,5.3,29.76,WNW,292,2.9,2.9,21,0.00,,---,0.00,VWS V14.01,2013-04-21 22:16:00,
2013-04-21 18:17:00,42.4,5.3,29.76,WNW,292,2.7,2.9,21,0.00,,---,0.00,VWS V14.01,2013-04-21 22:17:00,
2013-04-21 18:18:00,42.4,5.3,29.76,WNW,292,2.5,2.5,21,0.00,,---,0.00,VWS V14.01,2013-04-21 22:18:00,
2013-04-21 18:19:00,42.4,5.3,29.76,WNW,292,2.7,2.7,21,0.00,,---,0.00,VWS V14.01,2013-04-21 22:19:00,
2013-04-21 18:20:00,42.4,5.3,29.76,WNW,292,3.1,3.1,21,0.00,,---,0.00,VWS V14.01,2013-04-21 22:20:00,
2013-04-21 18:21:00,42.3,5.1,29.76,WNW,292,2.0,3.1,21,0.00,,---,0.00,VWS V14.01,2013-04-21 22:21:00,
2013-04-21 18:22:00,42.3,5.1,29.76,NNW,338,2.2,2.2,21,0.00,,---,0.00,VWS V14.01,2013-04-21 22:22:00,
2013-04-21 18:23:00,42.3,5.1,29.76,NNE,22,2.5,2.5,21,0.00,,---,0.00,VWS V14.01,2013-04-21 22:23:00,
2013-04-21 18:24:00,42.3,5.1,29.76,NNE,22,2.5,2.5,21,0.00,,---,0.00,VWS V14.01,2013-04-21 22:24:00,
2013-04-21 18:25:00,42.1,5.0,29.76,WNW,292,1.6,2.5,21,0.00,,---,0.00,VWS V14.01,2013-04-21 22:25:00,
2013-04-21 18:26:00,42.1,5.0,29.76,NW,315,1.3,1.6,21,0.00,,---,0.00,VWS V14.01,2013-04-21 22:26:00,
2013-04-21 18:27:00,42.1,5.0,29.76,NW,315,1.6,1.6,21,0.00,,---,0.00,VWS V14.01,2013-04-21 22:27:00,
2013-04-21 18:28:00,41.9,4.8,29.76,NNE,22,0.0,0.0,21,0.00,,---,0.00,VWS V14.01,2013-04-21 22:28:00,
2013-04-21 18:29:00,41.9,4.8,29.76,East,90,2.5,2.5,21,0.00,,---,0.00,VWS V14.01,2013-04-21 22:29:00,
2013-04-21 18:30:00,41.7,4.7,29.76,East,90,1.3,2.5,21,0.00,,---,0.00,VWS V14.01,2013-04-21 22:30:00,
2013-04-21 18:31:00,41.7,4.7,29.76,West,270,0.9,1.3,21,0.00,,---,0.00,VWS V14.01,2013-04-21 22:31:00,
2013-04-21 18:32:00,41.7,4.7,29.76,WNW,292,1.6,1.6,21,0.00,,---,0.00,VWS V14.01,2013-04-21 22:32:00,
2013-04-21 18:33:00,41.7,4.7,29.76,SW,225,0.0,0.0,21,0.00,,---,0.00,VWS V14.01,2013-04-21 22:33:00,
2013-04-21 18:34:00,41.7,4.7,29.76,WSW,248,1.6,1.6,21,0.00,,---,0.00,VWS V14.01,2013-04-21 22:34:00,
2013-04-21 18:35:00,41.7,4.7,29.76,WNW,292,0.9,2.2,21,0.00,,---,0.00,VWS V14.01,2013-04-21 22:35:00,
2013-04-21 18:36:00,41.5,4.5,29.76,WNW,292,0.0,0.9,21,0.00,,---,0.00,VWS V14.01,2013-04-21 22:36:00,
2013-04-21 18:37:00,41.2,4.2,29.76,WNW,292,0.0,0.0,21,0.00,,---,0.00,VWS V14.01,2013-04-21 22:37:00,
2013-04-21 18:38:00,41.2,4.2,29.76,WNW,292,0.0,0.0,21,0.00,,---,0.00,VWS V14.01,2013-04-21 22:38:00,
2013-04-21 18:39:00,41.2,4.2,29.76,WSW,248,0.0,0.0,21,0.00,,---,0.00,VWS V14.01,2013-04-21 22:39:00,
2013-04-21 18:40:00,41.2,4.2,29.76,NW,315,2.0,2.0,21,0.00,,---,0.00,VWS V14.01,2013-04-21 22:40:00,
2013-04-21 18:41:00,41.2,4.2,29.76,WSW,248,1.6,2.0,21,0.00,,---,0.00,VWS V14.01,2013-04-21 22:41:00,
2013-04-21 18:42:00,41.0,4.1,29.76,WSW,248,0.0,1.6,21,0.00,,---,0.00,VWS V14.01,2013-04-21 22:42:00,
2013-04-21 18:43:00,41.0,4.1,29.76,WNW,292,1.1,1.1,21,0.00,,---,0.00,VWS V14.01,2013-04-21 22:43:00,
2013-04-21 18:44:00,40.8,3.9,29.76,WNW,292,0.0,1.1,21,0.00,,---,0.00,VWS V14.01,2013-04-21 22:44:00,
2013-04-21 18:45:00,40.8,3.9,29.76,WNW,292,0.0,0.0,21,0.00,,---,0.00,VWS V14.01,2013-04-21 22:45:00,
2013-04-21 18:46:00,40.6,3.8,29.76,WNW,292,2.0,2.0,21,0.00,,---,0.00,VWS V14.01,2013-04-21 22:46:00,
2013-04-21 18:47:00,40.6,3.8,29.76,WNW,292,1.3,2.0,21,0.00,,---,0.00,VWS V14.01,2013-04-21 22:47:00,
2013-04-21 18:48:00,40.5,3.6,29.76,WNW,292,0.9,0.9,21,0.00,,---,0.00,VWS V14.01,2013-04-21 22:48:00,
2013-04-21 18:49:00,40.5,3.6,29.76,WNW,292,0.9,0.9,21,0.00,,---,0.00,VWS V14.01,2013-04-21 22:49:00,
2013-04-21 18:50:00,40.1,5.3,29.76,WNW,292,0.0,0.9,23,0.00,,---,0.00,VWS V14.01,2013-04-21 22:50:00,
2013-04-21 18:51:00,39.9,5.1,29.76,WNW,292,1.6,1.6,23,0.00,,---,0.00,VWS V14.01,2013-04-21 22:51:00,
2013-04-21 18:52:00,39.9,5.1,29.76,NW,315,1.6,1.6,23,0.00,,---,0.00,VWS V14.01,2013-04-21 22:52:00,
2013-04-21 18:53:00,39.9,3.2,29.76,NW,315,1.3,1.3,21,0.00,,---,0.00,VWS V14.01,2013-04-21 22:53:00,
2013-04-21 18:54:00,39.9,3.2,29.76,NW,315,0.0,1.3,21,0.00,,---,0.00,VWS V14.01,2013-04-21 22:54:00,
2013-04-21 18:55:00,39.7,5.0,29.76,NW,315,0.0,0.0,23,0.00,,---,0.00,VWS V14.01,2013-04-21 22:55:00,
2013-04-21 18:56:00,39.7,5.0,29.76,NW,315,0.0,0.0,23,0.00,,---,0.00,VWS V14.01,2013-04-21 22:56:00,
2013-04-21 18:57:00,39.4,4.7,29.76,NNW,338,0.0,0.0,23,0.00,,---,0.00,VWS V14.01,2013-04-21 22:57:00,
2013-04-21 18:58:00,39.4,4.7,29.76,NNE,22,0.0,0.0,23,0.00,,---,0.00,VWS V14.01,2013-04-21 22:58:00,
2013-04-21 18:59:00,39.4,4.7,29.76,NNE,22,1.6,1.6,23,0.00,,---,0.00,VWS V14.01,2013-04-21 22:59:00,
2013-04-21 19:00:00,39.2,4.5,29.76,NE,45,1.6,1.6,23,0.00,,---,0.00,VWS V14.01,2013-04-21 23:00:00,
2013-04-21 19:01:00,39.2,4.5,29.76,NE,45,0.9,1.6,23,0.00,,---,0.00,VWS V14.01,2013-04-21 23:01:00,
2013-04-21 19:02:00,39.0,5.3,29.76,ENE,68,0.0,0.9,24,0.00,,---,0.00,VWS V14.01,2013-04-21 23:02:00,
2013-04-21 19:03:00,38.8,5.2,29.76,East,90,0.0,0.0,24,0.00,,---,0.00,VWS V14.01,2013-04-21 23:03:00,
2013-04-21 19:04:00,38.8,5.2,29.76,East,90,0.0,0.0,24,0.00,,---,0.00,VWS V14.01,2013-04-21 23:04:00,
2013-04-21 19:05:00,38.8,6.9,29.76,ENE,68,0.0,0.0,26,0.00,,---,0.00,VWS V14.01,2013-04-21 23:05:00,
2013-04-21 19:06:00,38.8,6.9,29.76,NE,45,0.0,0.0,26,0.00,,---,0.00,VWS V14.01,2013-04-21 23:06:00,
2013-04-21 19:07:00,38.7,6.7,29.76,NE,45,0.0,0.0,26,0.00,,---,0.00,VWS V14.01,2013-04-21 23:07:00,
2013-04-21 19:08:00,38.7,6.7,29.76,NE,45,0.0,0.0,26,0.00,,---,0.00,VWS V14.01,2013-04-21 23:08:00,
2013-04-21 19:09:00,38.5,6.6,29.74,NE,45,0.0,0.0,26,0.00,,---,0.00,VWS V14.01,2013-04-21 23:09:00,
2013-04-21 19:10:00,38.5,6.6,29.74,NE,45,0.0,0.0,26,0.00,,---,0.00,VWS V14.01,2013-04-21 23:10:00,
2013-04-21 19:11:00,38.3,8.8,29.74,NE,45,2.0,2.0,29,0.00,,---,0.00,VWS V14.01,2013-04-21 23:11:00,
2013-04-21 19:12:00,38.3,8.8,29.74,NE,45,1.6,2.0,29,0.00,,---,0.00,VWS V14.01,2013-04-21 23:12:00,
2013-04-21 19:13:00,38.1,8.7,29.74,NE,45,1.6,1.6,29,0.00,,---,0.00,VWS V14.01,2013-04-21 23:13:00,
2013-04-21 19:14:00,37.9,8.5,29.74,NE,45,1.6,1.6,29,0.00,,---,0.00,VWS V14.01,2013-04-21 23:14:00,
2013-04-21 19:15:00,37.9,8.5,29.74,NE,45,1.1,1.6,29,0.00,,---,0.00,VWS V14.01,2013-04-21 23:15:00,
2013-04-21 19:16:00,37.9,8.5,29.74,NE,45,0.0,1.1,29,0.00,,---,0.00,VWS V14.01,2013-04-21 23:16:00,
2013-04-21 19:17:00,37.9,8.5,29.74,NE,45,0.0,0.0,29,0.00,,---,0.00,VWS V14.01,2013-04-21 23:17:00,
2013-04-21 19:18:00,37.8,8.4,29.74,NE,45,0.0,0.0,29,0.00,,---,0.00,VWS V14.01,2013-04-21 23:18:00,
2013-04-21 19:19:00,37.8,8.4,29.74,NE,45,1.1,1.1,29,0.00,,---,0.00,VWS V14.01,2013-04-21 23:19:00,
2013-04-21 19:20:00,37.6,8.2,29.74,NE,45,1.3,1.3,29,0.00,,---,0.00,VWS V14.01,2013-04-21 23:20:00,
2013-04-21 19:21:00,37.6,8.2,29.74,NE,45,1.6,1.6,29,0.00,,---,0.00,VWS V14.01,2013-04-21 23:21:00,
2013-04-21 19:22:00,37.6,8.2,29.74,NE,45,1.6,1.6,29,0.00,,---,0.00,VWS V14.01,2013-04-21 23:22:00,
2013-04-21 19:23:00,37.4,8.1,29.74,NE,45,1.6,2.2,29,0.00,,---,0.00,VWS V14.01,2013-04-21 23:23:00,
2013-04-21 19:24:00,37.4,8.1,29.74,NE,45,1.6,2.2,29,0.00,,---,0.00,VWS V14.01,2013-04-21 23:24:00,
2013-04-21 19:25:00,37.2,8.6,29.74,NE,45,0.0,1.6,30,0.00,,---,0.00,VWS V14.01,2013-04-21 23:25:00,
2013-04-21 19:26:00,37.2,8.6,29.74,NE,45,0.0,0.0,30,0.00,,---,0.00,VWS V14.01,2013-04-21 23:26:00,
2013-04-21 19:27:00,37.0,8.5,29.74,NE,45,2.0,2.0,30,0.00,,---,0.00,VWS V14.01,2013-04-21 23:27:00,
2013-04-21 19:28:00,37.0,8.5,29.74,NE,45,1.3,2.0,30,0.00,,---,0.00,VWS V14.01,2013-04-21 23:28:00,
2013-04-21 19:29:00,37.0,8.5,29.74,NE,45,1.3,2.0,30,0.00,,---,0.00,VWS V14.01,2013-04-21 23:29:00,
2013-04-21 19:30:00,36.9,8.3,29.74,NE,45,2.0,2.0,30,0.00,,---,0.00,VWS V14.01,2013-04-21 23:30:00,
2013-04-21 19:31:00,36.9,8.3,29.74,NE,45,2.2,2.2,30,0.00,,---,0.00,VWS V14.01,2013-04-21 23:31:00,
2013-04-21 19:32:00,36.7,8.2,29.74,NE,45,1.3,2.2,30,0.00,,---,0.00,VWS V14.01,2013-04-21 23:32:00,
2013-04-21 19:33:00,36.7,8.2,29.74,NE,45,1.6,1.6,30,0.00,,---,0.00,VWS V14.01,2013-04-21 23:33:00,
2013-04-21 19:34:00,36.7,8.2,29.74,NE,45,2.0,2.0,30,0.00,,---,0.00,VWS V14.01,2013-04-21 23:34:00,
2013-04-21 19:35:00,36.7,8.2,29.74,NE,45,1.6,2.0,30,0.00,,---,0.00,VWS V14.01,2013-04-21 23:35:00,
2013-04-21 19:36:00,36.7,8.2,29.74,NE,45,1.6,1.6,30,0.00,,---,0.00,VWS V14.01,2013-04-21 23:36:00,
2013-04-21 19:37:00,36.3,7.9,29.74,NE,45,1.6,1.6,30,0.00,,---,0.00,VWS V14.01,2013-04-21 23:37:00,
2013-04-21 19:38:00,36.3,7.9,29.74,NE,45,1.3,1.6,30,0.00,,---,0.00,VWS V14.01,2013-04-21 23:38:00,
2013-04-21 19:39:00,36.3,8.6,29.76,NE,45,1.3,1.3,31,0.00,,---,0.00,VWS V14.01,2013-04-21 23:39:00,
2013-04-21 19:40:00,36.3,8.6,29.76,NE,45,1.6,1.6,31,0.00,,---,0.00,VWS V14.01,2013-04-21 23:40:00,
2013-04-21 19:41:00,36.1,8.4,29.76,NE,45,1.6,1.6,31,0.00,,---,0.00,VWS V14.01,2013-04-21 23:41:00,
2013-04-21 19:42:00,36.1,8.4,29.76,NE,45,0.9,1.6,31,0.00,,---,0.00,VWS V14.01,2013-04-21 23:42:00,
2013-04-21 19:43:00,36.1,8.4,29.76,NE,45,0.0,0.9,31,0.00,,---,0.00,VWS V14.01,2013-04-21 23:43:00,
2013-04-21 19:44:00,36.0,9.0,29.76,NE,45,0.0,0.0,32,0.00,,---,0.00,VWS V14.01,2013-04-21 23:44:00,
2013-04-21 19:45:00,36.0,9.0,29.76,NE,45,0.0,0.0,32,0.00,,---,0.00,VWS V14.01,2013-04-21 23:45:00,
2013-04-21 19:46:00,35.8,8.8,29.76,NE,45,0.0,0.0,32,0.00,,---,0.00,VWS V14.01,2013-04-21 23:46:00,
2013-04-21 19:47:00,35.8,8.8,29.76,NE,45,0.0,0.0,32,0.00,,---,0.00,VWS V14.01,2013-04-21 23:47:00,
2013-04-21 19:48:00,35.8,8.8,29.76,NE,45,0.0,0.0,32,0.00,,---,0.00,VWS V14.01,2013-04-21 23:48:00,
2013-04-21 19:49:00,35.8,8.8,29.76,NE,45,0.0,0.0,32,0.00,,---,0.00,VWS V14.01,2013-04-21 23:49:00,
2013-04-21 19:50:00,35.8,8.8,29.76,NE,45,0.0,0.0,32,0.00,,---,0.00,VWS V14.01,2013-04-21 23:50:00,
2013-04-21 19:51:00,35.6,8.7,29.76,NE,45,0.0,0.0,32,0.00,,---,0.00,VWS V14.01,2013-04-21 23:51:00,
2013-04-21 19:52:00,35.6,8.7,29.76,NE,45,0.0,0.0,32,0.00,,---,0.00,VWS V14.01,2013-04-21 23:52:00,
2013-04-21 19:53:00,35.4,8.5,29.76,NE,45,0.0,0.0,32,0.00,,---,0.00,VWS V14.01,2013-04-21 23:53:00,
2013-04-21 19:54:00,35.4,8.5,29.80,NE,45,0.0,0.0,32,0.00,,---,0.00,VWS V14.01,2013-04-21 23:54:00,
2013-04-21 19:55:00,35.2,8.4,29.80,NE,45,0.0,0.0,32,0.00,,---,0.00,VWS V14.01,2013-04-21 23:55:00,
2013-04-21 19:56:00,35.2,8.4,29.80,NE,45,0.0,0.0,32,0.00,,---,0.00,VWS V14.01,2013-04-21 23:56:00,
2013-04-21 19:57:00,35.1,8.2,29.80,NE,45,0.0,0.0,32,0.00,,---,0.00,VWS V14.01,2013-04-21 23:57:00,
2013-04-21 19:58:00,35.1,8.2,29.79,NE,45,0.0,0.0,32,0.00,,---,0.00,VWS V14.01,2013-04-21 23:58:00,
2013-04-21 19:59:00,35.1,8.2,29.80,NE,45,0.0,0.0,32,0.00,,---,0.00,VWS V14.01,2013-04-21 23:59:00,
2013-04-21 20:00:00,34.9,8.0,29.80,NE,45,0.0,0.0,32,0.00,,---,0.00,VWS V14.01,2013-04-22 00:00:00,
2013-04-21 20:01:00,34.9,8.0,29.80,NE,45,0.0,0.0,32,0.00,,---,0.00,VWS V14.01,2013-04-22 00:01:00,
2013-04-21 20:02:00,34.9,8.0,29.80,NE,45,0.0,0.0,32,0.00,,---,0.00,VWS V14.01,2013-04-22 00:02:00,
2013-04-21 20:03:00,34.9,8.0,29.79,NE,45,0.0,0.0,32,0.00,,---,0.00,VWS V14.01,2013-04-22 00:03:00,
2013-04-21 20:04:00,34.7,7.9,29.80,NE,45,0.0,0.0,32,0.00,,---,0.00,VWS V14.01,2013-04-22 00:04:00,
2013-04-21 20:05:00,34.7,7.9,29.80,NE,45,0.0,0.0,32,0.00,,---,0.00,VWS V14.01,2013-04-22 00:05:00,
2013-04-21 20:06:00,34.7,7.9,29.80,NE,45,0.0,0.0,32,0.00,,---,0.00,VWS V14.01,2013-04-22 00:06:00,
2013-04-21 20:07:00,34.5,7.7,29.80,NE,45,0.0,0.0,32,0.00,,---,0.00,VWS V14.01,2013-04-22 00:07:00,
2013-04-21 20:08:00,34.5,7.7,29.79,NE,45,0.0,0.0,32,0.00,,---,0.00,VWS V14.01,2013-04-22 00:08:00,
2013-04-21 20:09:00,34.3,7.6,29.80,NE,45,0.0,0.0,32,0.00,,---,0.00,VWS V14.01,2013-04-22 00:09:00,
2013-04-21 20:10:00,34.3,7.6,29.80,NE,45,0.0,0.0,32,0.00,,---,0.00,VWS V14.01,2013-04-22 00:10:00,
2013-04-21 20:11:00,34.3,7.6,29.80,NE,45,0.0,0.0,32,0.00,,---,0.00,VWS V14.01,2013-04-22 00:11:00,
2013-04-21 20:12:00,34.3,7.6,29.80,NE,45,0.0,0.0,32,0.00,,---,0.00,VWS V14.01,2013-04-22 00:12:00,
2013-04-21 20:13:00,34.2,7.4,29.79,NE,45,0.0,0.0,32,0.00,,---,0.00,VWS V14.01,2013-04-22 00:13:00,
2013-04-21 20:14:00,34.0,7.2,29.80,NE,45,0.0,0.0,32,0.00,,---,0.00,VWS V14.01,2013-04-22 00:14:00,
2013-04-21 20:15:00,34.0,7.2,29.80,NE,45,0.0,0.0,32,0.00,,---,0.00,VWS V14.01,2013-04-22 00:15:00,
2013-04-21 20:16:00,33.8,7.1,29.80,NE,45,0.0,0.0,32,0.00,,---,0.00,VWS V14.01,2013-04-22 00:16:00,
2013-04-21 20:17:00,33.8,7.1,29.80,NE,45,0.0,0.0,32,0.00,,---,0.00,VWS V14.01,2013-04-22 00:17:00,
2013-04-21 20:18:00,33.8,7.1,29.79,NE,45,0.0,0.0,32,0.00,,---,0.00,VWS V14.01,2013-04-22 00:18:00,
2013-04-21 20:19:00,33.8,7.1,29.80,NE,45,0.0,0.0,32,0.00,,---,0.00,VWS V14.01,2013-04-22 00:19:00,
2013-04-21 20:20:00,33.6,6.9,29.80,NE,45,0.0,0.0,32,0.00,,---,0.00,VWS V14.01,2013-04-22 00:20:00,
2013-04-21 20:21:00,33.6,6.9,29.80,NE,45,0.0,0.0,32,0.00,,---,0.00,VWS V14.01,2013-04-22 00:21:00,
2013-04-21 20:22:00,33.4,6.8,29.80,NE,45,0.0,0.0,32,0.00,,---,0.00,VWS V14.01,2013-04-22 00:22:00,
2013-04-21 20:23:00,33.1,6.4,29.79,NE,45,0.0,0.0,32,0.00,,---,0.00,VWS V14.01,2013-04-22 00:23:00,
2013-04-21 20:24:00,33.1,6.4,29.80,NE,45,0.0,0.0,32,0.00,,---,0.00,VWS V14.01,2013-04-22 00:24:00,
2013-04-21 20:25:00,33.1,7.1,29.80,NE,45,0.0,0.0,33,0.00,,---,0.00,VWS V14.01,2013-04-22 00:25:00,
2013-04-21 20:26:00,33.1,7.1,29.80,NE,45,0.0,0.0,33,0.00,,---,0.00,VWS V14.01,2013-04-22 00:26:00,
2013-04-21 20:27:00,32.9,6.3,29.80,NE,45,0.0,0.0,32,0.00,,---,0.00,VWS V14.01,2013-04-22 00:27:00,
2013-04-21 20:28:00,32.7,6.8,29.79,NE,45,0.0,0.0,33,0.00,,---,0.00,VWS V14.01,2013-04-22 00:28:00,
2013-04-21 20:29:00,32.7,6.8,29.80,NE,45,0.0,0.0,33,0.00,,---,0.00,VWS V14.01,2013-04-22 00:29:00,
2013-04-21 20:30:00,32.7,6.8,29.80,NE,45,0.0,0.0,33,0.00,,---,0.00,VWS V14.01,2013-04-22 00:30:00,
2013-04-21 20:31:00,32.7,6.8,29.80,NE,45,0.0,0.0,33,0.00,,---,0.00,VWS V14.01,2013-04-22 00:31:00,
2013-04-21 20:32:00,32.7,6.8,29.80,NE,45,0.0,0.0,33,0.00,,---,0.00,VWS V14.01,2013-04-22 00:32:00,
2013-04-21 20:33:00,32.7,6.8,29.79,NE,45,0.0,0.0,33,0.00,,---,0.00,VWS V14.01,2013-04-22 00:33:00,
2013-04-21 20:34:00,32.5,6.6,29.80,NE,45,0.0,0.0,33,0.00,,---,0.00,VWS V14.01,2013-04-22 00:34:00,
2013-04-21 20:35:00,32.5,6.6,29.80,NE,45,0.0,0.0,33,0.00,,---,0.00,VWS V14.01,2013-04-22 00:35:00,
2013-04-21 20:36:00,32.5,6.6,29.80,NE,45,0.0,0.0,33,0.00,,---,0.00,VWS V14.01,2013-04-22 00:36:00,
2013-04-21 20:37:00,32.4,6.5,29.80,NE,45,0.0,0.0,33,0.00,,---,0.00,VWS V14.01,2013-04-22 00:37:00,
2013-04-21 20:38:00,32.4,6.5,29.79,NE,45,0.0,0.0,33,0.00,,---,0.00,VWS V14.01,2013-04-22 00:38:00,
2013-04-21 20:39:00,32.2,6.3,29.80,NE,45,0.0,0.0,33,0.00,,---,0.00,VWS V14.01,2013-04-22 00:39:00,
2013-04-21 20:40:00,32.2,6.3,29.80,NE,45,0.0,0.0,33,0.00,,---,0.00,VWS V14.01,2013-04-22 00:40:00,
2013-04-21 20:41:00,32.2,6.3,29.80,NE,45,0.0,0.0,33,0.00,,---,0.00,VWS V14.01,2013-04-22 00:41:00,
2013-04-21 20:42:00,32.2,6.3,29.80,NE,45,0.0,0.0,33,0.00,,---,0.00,VWS V14.01,2013-04-22 00:42:00,
2013-04-21 20:43:00,32.0,6.2,29.79,NE,45,0.0,0.0,33,0.00,,---,0.00,VWS V14.01,2013-04-22 00:43:00,
2013-04-21 20:44:00,31.8,6.0,29.80,NE,45,0.0,0.0,33,0.00,,---,0.00,VWS V14.01,2013-04-22 00:44:00,
2013-04-21 20:45:00,31.8,6.0,29.80,NE,45,0.0,0.0,33,0.00,,---,0.00,VWS V14.01,2013-04-22 00:45:00,
2013-04-21 20:46:00,31.6,5.8,29.80,NE,45,0.0,0.0,33,0.00,,---,0.00,VWS V14.01,2013-04-22 00:46:00,
2013-04-21 20:47:00,31.6,5.8,29.80,NE,45,0.0,0.0,33,0.00,,---,0.00,VWS V14.01,2013-04-22 00:47:00,
2013-04-21 20:48:00,31.6,5.8,29.79,NE,45,0.0,0.0,33,0.00,,---,0.00,VWS V14.01,2013-04-22 00:48:00,
2013-04-21 20:49:00,31.6,5.8,29.80,NE,45,0.0,0.0,33,0.00,,---,0.00,VWS V14.01,2013-04-22 00:49:00,
2013-04-21 20:50:00,31.6,5.8,29.80,NE,45,0.0,0.0,33,0.00,,---,0.00,VWS V14.01,2013-04-22 00:50:00,
2013-04-21 20:51:00,31.6,5.8,29.80,NE,45,0.0,0.0,33,0.00,,---,0.00,VWS V14.01,2013-04-22 00:51:00,
2013-04-21 20:52:00,31.6,5.8,29.80,NE,45,0.0,0.0,33,0.00,,---,0.00,VWS V14.01,2013-04-22 00:52:00,
2013-04-21 20:53:00,31.5,5.7,29.79,NE,45,0.0,0.0,33,0.00,,---,0.00,VWS V14.01,2013-04-22 00:53:00,
2013-04-21 20:54:00,31.5,5.7,29.80,NE,45,0.0,0.0,33,0.00,,---,0.00,VWS V14.01,2013-04-22 00:54:00,
2013-04-21 20:55:00,31.3,5.5,29.80,NE,45,0.0,0.0,33,0.00,,---,0.00,VWS V14.01,2013-04-22 00:55:00,
2013-04-21 20:56:00,31.3,5.5,29.80,NE,45,0.0,0.0,33,0.00,,---,0.00,VWS V14.01,2013-04-22 00:56:00,
2013-04-21 20:57:00,31.1,5.4,29.80,NE,45,0.0,0.0,33,0.00,,---,0.00,VWS V14.01,2013-04-22 00:57:00,
2013-04-21 20:58:00,31.1,5.4,29.79,NE,45,0.0,0.0,33,0.00,,---,0.00,VWS V14.01,2013-04-22 00:58:00,
2013-04-21 20:59:00,31.1,5.4,29.80,NE,45,0.0,0.0,33,0.00,,---,0.00,VWS V14.01,2013-04-22 00:59:00,
2013-04-21 21:00:00,30.9,5.2,29.80,NE,45,0.0,0.0,33,0.00,,---,0.00,VWS V14.01,2013-04-22 01:00:00,
2013-04-21 21:01:00,30.9,5.2,29.80,NE,45,0.0,0.0,33,0.00,,---,0.00,VWS V14.01,2013-04-22 01:01:00,
2013-04-21 21:02:00,30.9,5.2,29.80,NE,45,0.0,0.0,33,0.00,,---,0.00,VWS V14.01,2013-04-22 01:02:00,
2013-04-21 21:03:00,30.9,5.2,29.79,NE,45,0.0,0.0,33,0.00,,---,0.00,VWS V14.01,2013-04-22 01:03:00,
2013-04-21 21:04:00,30.7,5.1,29.80,NE,45,0.0,0.0,33,0.00,,---,0.00,VWS V14.01,2013-04-22 01:04:00,
2013-04-21 21:05:00,30.7,5.1,29.80,NE,45,0.0,0.0,33,0.00,,---,0.00,VWS V14.01,2013-04-22 01:05:00,
2013-04-21 21:06:00,30.7,5.1,29.80,NE,45,0.0,0.0,33,0.00,,---,0.00,VWS V14.01,2013-04-22 01:06:00,
2013-04-21 21:07:00,30.6,4.9,29.80,NE,45,0.0,0.0,33,0.00,,---,0.00,VWS V14.01,2013-04-22 01:07:00,
2013-04-21 21:08:00,30.6,4.9,29.79,NE,45,0.0,0.0,33,0.00,,---,0.00,VWS V14.01,2013-04-22 01:08:00,
2013-04-21 21:09:00,30.4,4.7,29.82,NE,45,0.0,0.0,33,0.00,,---,0.00,VWS V14.01,2013-04-22 01:09:00,
2013-04-21 21:10:00,30.4,4.7,29.82,NE,45,0.0,0.0,33,0.00,,---,0.00,VWS V14.01,2013-04-22 01:10:00,
2013-04-21 21:11:00,30.2,5.2,29.82,NE,45,0.0,0.0,34,0.00,,---,0.00,VWS V14.01,2013-04-22 01:11:00,
2013-04-21 21:12:00,30.2,5.2,29.82,NE,45,0.0,0.0,34,0.00,,---,0.00,VWS V14.01,2013-04-22 01:12:00,
2013-04-21 21:13:00,30.2,5.2,29.82,NE,45,0.0,0.0,34,0.00,,---,0.00,VWS V14.01,2013-04-22 01:13:00,
2013-04-21 21:14:00,30.2,5.2,29.82,NE,45,0.0,0.0,34,0.00,,---,0.00,VWS V14.01,2013-04-22 01:14:00,
2013-04-21 21:15:00,30.0,5.1,29.82,NE,45,0.0,0.0,34,0.00,,---,0.00,VWS V14.01,2013-04-22 01:15:00,
2013-04-21 21:16:00,29.8,4.9,29.82,NE,45,0.0,0.0,34,0.00,,---,0.00,VWS V14.01,2013-04-22 01:16:00,
2013-04-21 21:17:00,29.8,4.9,29.82,NE,45,0.0,0.0,34,0.00,,---,0.00,VWS V14.01,2013-04-22 01:17:00,
2013-04-21 21:18:00,29.8,4.9,29.82,NE,45,0.0,0.0,34,0.00,,---,0.00,VWS V14.01,2013-04-22 01:18:00,
2013-04-21 21:19:00,29.8,4.9,29.82,NE,45,0.0,0.0,34,0.00,,---,0.00,VWS V14.01,2013-04-22 01:19:00,
2013-04-21 21:20:00,29.8,4.9,29.82,NE,45,0.0,0.0,34,0.00,,---,0.00,VWS V14.01,2013-04-22 01:20:00,
2013-04-21 21:21:00,29.7,4.7,29.82,NE,45,0.0,0.0,34,0.00,,---,0.00,VWS V14.01,2013-04-22 01:21:00,
2013-04-21 21:22:00,29.5,4.6,29.82,NE,45,0.0,0.0,34,0.00,,---,0.00,VWS V14.01,2013-04-22 01:22:00,
2013-04-21 21:23:00,29.5,4.6,29.82,NE,45,0.0,0.0,34,0.00,,---,0.00,VWS V14.01,2013-04-22 01:23:00,
2013-04-21 21:24:00,29.5,4.6,29.82,NE,45,0.0,0.0,34,0.00,,---,0.00,VWS V14.01,2013-04-22 01:24:00,
2013-04-21 21:25:00,29.5,4.6,29.82,NE,45,0.0,0.0,34,0.00,,---,0.00,VWS V14.01,2013-04-22 01:25:00,
2013-04-21 21:26:00,29.5,4.6,29.82,NE,45,0.0,0.0,34,0.00,,---,0.00,VWS V14.01,2013-04-22 01:26:00,
2013-04-21 21:27:00,29.5,4.6,29.82,NE,45,0.0,0.0,34,0.00,,---,0.00,VWS V14.01,2013-04-22 01:27:00,
2013-04-21 21:28:00,29.5,4.6,29.82,NE,45,0.0,0.0,34,0.00,,---,0.00,VWS V14.01,2013-04-22 01:28:00,
2013-04-21 21:29:00,29.5,5.2,29.82,NE,45,0.0,0.0,35,0.00,,---,0.00,VWS V14.01,2013-04-22 01:29:00,
2013-04-21 21:30:00,29.3,5.1,29.82,NE,45,0.0,0.0,35,0.00,,---,0.00,VWS V14.01,2013-04-22 01:30:00,
2013-04-21 21:31:00,29.3,5.1,29.82,NE,45,0.0,0.0,35,0.00,,---,0.00,VWS V14.01,2013-04-22 01:31:00,
2013-04-21 21:32:00,29.3,5.1,29.82,NE,45,0.0,0.0,35,0.00,,---,0.00,VWS V14.01,2013-04-22 01:32:00,
2013-04-21 21:33:00,29.3,5.1,29.82,NE,45,0.0,0.0,35,0.00,,---,0.00,VWS V14.01,2013-04-22 01:33:00,
2013-04-21 21:34:00,29.1,4.9,29.82,NE,45,0.0,0.0,35,0.00,,---,0.00,VWS V14.01,2013-04-22 01:34:00,
2013-04-21 21:35:00,29.1,4.9,29.82,NE,45,0.0,0.0,35,0.00,,---,0.00,VWS V14.01,2013-04-22 01:35:00,
2013-04-21 21:36:00,29.1,4.9,29.82,NE,45,0.0,0.0,35,0.00,,---,0.00,VWS V14.01,2013-04-22 01:36:00,
2013-04-21 21:37:00,29.1,4.9,29.82,NE,45,0.0,0.0,35,0.00,,---,0.00,VWS V14.01,2013-04-22 01:37:00,
2013-04-21 21:38:00,29.1,4.9,29.82,NE,45,0.0,0.0,35,0.00,,---,0.00,VWS V14.01,2013-04-22 01:38:00,
2013-04-21 21:39:00,28.9,4.7,29.82,NE,45,0.0,0.0,35,0.00,,---,0.00,VWS V14.01,2013-04-22 01:39:00,
2013-04-21 21:40:00,28.9,4.7,29.82,NE,45,0.0,0.0,35,0.00,,---,0.00,VWS V14.01,2013-04-22 01:40:00,
2013-04-21 21:41:00,28.9,4.7,29.82,NE,45,0.0,0.0,35,0.00,,---,0.00,VWS V14.01,2013-04-22 01:41:00,
2013-04-21 21:42:00,28.8,4.6,29.82,NE,45,0.0,0.0,35,0.00,,---,0.00,VWS V14.01,2013-04-22 01:42:00,
2013-04-21 21:43:00,28.8,4.6,29.82,NE,45,0.0,0.0,35,0.00,,---,0.00,VWS V14.01,2013-04-22 01:43:00,
2013-04-21 21:44:00,28.8,4.6,29.82,NE,45,0.0,0.0,35,0.00,,---,0.00,VWS V14.01,2013-04-22 01:44:00,
2013-04-21 21:45:00,28.8,4.6,29.82,NE,45,0.0,0.0,35,0.00,,---,0.00,VWS V14.01,2013-04-22 01:45:00,
2013-04-21 21:46:00,28.8,4.6,29.82,NE,45,0.0,0.0,35,0.00,,---,0.00,VWS V14.01,2013-04-22 01:46:00,
2013-04-21 21:47:00,28.6,4.4,29.82,NE,45,0.0,0.0,35,0.00,,---,0.00,VWS V14.01,2013-04-22 01:47:00,
2013-04-21 21:48:00,28.6,4.4,29.82,NE,45,0.0,0.0,35,0.00,,---,0.00,VWS V14.01,2013-04-22 01:48:00,
2013-04-21 21:49:00,28.6,4.4,29.82,NE,45,0.0,0.0,35,0.00,,---,0.00,VWS V14.01,2013-04-22 01:49:00,
2013-04-21 21:50:00,28.6,4.4,29.82,NE,45,0.0,0.0,35,0.00,,---,0.00,VWS V14.01,2013-04-22 01:50:00,
2013-04-21 21:51:00,28.6,4.4,29.82,NE,45,0.0,0.0,35,0.00,,---,0.00,VWS V14.01,2013-04-22 01:51:00,
2013-04-21 21:52:00,28.6,4.4,29.82,NE,45,0.0,0.0,35,0.00,,---,0.00,VWS V14.01,2013-04-22 01:52:00,
2013-04-21 21:53:00,28.6,5.0,29.82,NE,45,0.0,0.0,36,0.00,,---,0.00,VWS V14.01,2013-04-22 01:53:00,
2013-04-21 21:54:00,28.6,5.0,29.82,NE,45,0.0,0.0,36,0.00,,---,0.00,VWS V14.01,2013-04-22 01:54:00,
2013-04-21 21:55:00,28.6,5.0,29.82,NE,45,0.0,0.0,36,0.00,,---,0.00,VWS V14.01,2013-04-22 01:55:00,
2013-04-21 21:56:00,28.6,5.0,29.82,NE,45,0.0,0.0,36,0.00,,---,0.00,VWS V14.01,2013-04-22 01:56:00,
2013-04-21 21:57:00,28.4,4.9,29.82,NE,45,0.0,0.0,36,0.00,,---,0.00,VWS V14.01,2013-04-22 01:57:00,
2013-04-21 21:58:00,28.4,4.9,29.82,NE,45,0.0,0.0,36,0.00,,---,0.00,VWS V14.01,2013-04-22 01:58:00,
2013-04-21 21:59:00,28.4,4.9,29.82,NE,45,0.0,0.0,36,0.00,,---,0.00,VWS V14.01,2013-04-22 01:59:00,
2013-04-21 22:00:00,28.4,4.9,29.82,NE,45,0.0,0.0,36,0.00,,---,0.00,VWS V14.01,2013-04-22 02:00:00,
2013-04-21 22:01:00,28.4,4.9,29.82,NE,45,0.0,0.0,36,0.00,,---,0.00,VWS V14.01,2013-04-22 02:01:00,
2013-04-21 22:02:00,28.2,4.7,29.82,NE,45,0.0,0.0,36,0.00,,---,0.00,VWS V14.01,2013-04-22 02:02:00,
2013-04-21 22:03:00,28.2,4.7,29.82,NE,45,0.0,0.0,36,0.00,,---,0.00,VWS V14.01,2013-04-22 02:03:00,
2013-04-21 22:04:00,28.2,4.7,29.82,NE,45,0.0,0.0,36,0.00,,---,0.00,VWS V14.01,2013-04-22 02:04:00,
2013-04-21 22:05:00,28.2,4.7,29.82,NE,45,0.0,0.0,36,0.00,,---,0.00,VWS V14.01,2013-04-22 02:05:00,
2013-04-21 22:06:00,28.2,4.7,29.82,NE,45,0.0,0.0,36,0.00,,---,0.00,VWS V14.01,2013-04-22 02:06:00,
2013-04-21 22:07:00,28.0,5.1,29.82,NE,45,0.0,0.0,37,0.00,,---,0.00,VWS V14.01,2013-04-22 02:07:00,
2013-04-21 22:08:00,28.0,5.1,29.82,NE,45,0.0,0.0,37,0.00,,---,0.00,VWS V14.01,2013-04-22 02:08:00,
2013-04-21 22:09:00,28.0,5.1,29.82,NE,45,0.0,0.0,37,0.00,,---,0.00,VWS V14.01,2013-04-22 02:09:00,
2013-04-21 22:10:00,28.0,5.1,29.82,NE,45,0.0,0.0,37,0.00,,---,0.00,VWS V14.01,2013-04-22 02:10:00,
2013-04-21 22:11:00,27.9,5.0,29.82,NE,45,0.0,0.0,37,0.00,,---,0.00,VWS V14.01,2013-04-22 02:11:00,
2013-04-21 22:12:00,27.9,5.0,29.82,NE,45,0.0,0.0,37,0.00,,---,0.00,VWS V14.01,2013-04-22 02:12:00,
2013-04-21 22:13:00,27.9,5.0,29.82,NE,45,0.0,0.0,37,0.00,,---,0.00,VWS V14.01,2013-04-22 02:13:00,
2013-04-21 22:14:00,27.9,5.0,29.82,NE,45,0.0,0.0,37,0.00,,---,0.00,VWS V14.01,2013-04-22 02:14:00,
2013-04-21 22:15:00,27.9,5.0,29.82,NE,45,0.0,0.0,37,0.00,,---,0.00,VWS V14.01,2013-04-22 02:15:00,
2013-04-21 22:16:00,27.9,5.6,29.82,NE,45,0.0,0.0,38,0.00,,---,0.00,VWS V14.01,2013-04-22 02:16:00,
2013-04-21 22:17:00,27.9,5.6,29.82,NE,45,0.0,0.0,38,0.00,,---,0.00,VWS V14.01,2013-04-22 02:17:00,
2013-04-21 22:18:00,27.9,5.6,29.82,NE,45,0.0,0.0,38,0.00,,---,0.00,VWS V14.01,2013-04-22 02:18:00,
2013-04-21 22:19:00,27.9,5.6,29.82,NE,45,0.0,0.0,38,0.00,,---,0.00,VWS V14.01,2013-04-22 02:19:00,
2013-04-21 22:20:00,27.9,5.6,29.82,NE,45,0.0,0.0,38,0.00,,---,0.00,VWS V14.01,2013-04-22 02:20:00,
2013-04-21 22:21:00,27.9,5.6,29.82,NE,45,0.0,0.0,38,0.00,,---,0.00,VWS V14.01,2013-04-22 02:21:00,
2013-04-21 22:22:00,27.7,5.4,29.82,NE,45,0.0,0.0,38,0.00,,---,0.00,VWS V14.01,2013-04-22 02:22:00,
2013-04-21 22:23:00,27.7,5.4,29.82,NE,45,0.0,0.0,38,0.00,,---,0.00,VWS V14.01,2013-04-22 02:23:00,
2013-04-21 22:24:00,27.7,5.4,29.82,NE,45,0.0,0.0,38,0.00,,---,0.00,VWS V14.01,2013-04-22 02:24:00,
2013-04-21 22:25:00,27.5,5.2,29.82,NE,45,0.0,0.0,38,0.00,,---,0.00,VWS V14.01,2013-04-22 02:25:00,
2013-04-21 22:26:00,27.5,5.2,29.82,NE,45,0.0,0.0,38,0.00,,---,0.00,VWS V14.01,2013-04-22 02:26:00,
2013-04-21 22:27:00,27.5,5.2,29.82,NE,45,0.0,0.0,38,0.00,,---,0.00,VWS V14.01,2013-04-22 02:27:00,
2013-04-21 22:28:00,27.5,5.2,29.82,NE,45,0.0,0.0,38,0.00,,---,0.00,VWS V14.01,2013-04-22 02:28:00,
2013-04-21 22:29:00,27.3,5.6,29.82,NE,45,0.0,0.0,39,0.00,,---,0.00,VWS V14.01,2013-04-22 02:29:00,
2013-04-21 22:30:00,27.3,6.2,29.82,NE,45,0.0,0.0,40,0.00,,---,0.00,VWS V14.01,2013-04-22 02:30:00,
2013-04-21 22:31:00,27.3,6.2,29.82,NE,45,0.0,0.0,40,0.00,,---,0.00,VWS V14.01,2013-04-22 02:31:00,
2013-04-21 22:32:00,27.3,6.2,29.82,NE,45,0.0,0.0,40,0.00,,---,0.00,VWS V14.01,2013-04-22 02:32:00,
2013-04-21 22:33:00,27.3,6.2,29.82,NE,45,0.0,0.0,40,0.00,,---,0.00,VWS V14.01,2013-04-22 02:33:00,
2013-04-21 22:34:00,27.3,6.2,29.82,NE,45,0.0,0.0,40,0.00,,---,0.00,VWS V14.01,2013-04-22 02:34:00,
2013-04-21 22:35:00,27.3,6.2,29.82,NE,45,0.0,0.0,40,0.00,,---,0.00,VWS V14.01,2013-04-22 02:35:00,
2013-04-21 22:36:00,27.3,6.7,29.82,NE,45,0.0,0.0,41,0.00,,---,0.00,VWS V14.01,2013-04-22 02:36:00,
2013-04-21 22:37:00,27.3,6.7,29.82,NE,45,0.0,0.0,41,0.00,,---,0.00,VWS V14.01,2013-04-22 02:37:00,
2013-04-21 22:38:00,27.3,6.7,29.82,NE,45,0.0,0.0,41,0.00,,---,0.00,VWS V14.01,2013-04-22 02:38:00,
2013-04-21 22:39:00,27.3,6.7,29.82,NE,45,0.0,0.0,41,0.00,,---,0.00,VWS V14.01,2013-04-22 02:39:00,
2013-04-21 22:40:00,27.3,6.7,29.82,NE,45,0.0,0.0,41,0.00,,---,0.00,VWS V14.01,2013-04-22 02:40:00,
2013-04-21 22:41:00,27.3,6.7,29.82,NE,45,0.0,0.0,41,0.00,,---,0.00,VWS V14.01,2013-04-22 02:41:00,
2013-04-21 22:42:00,27.3,6.7,29.82,NE,45,0.0,0.0,41,0.00,,---,0.00,VWS V14.01,2013-04-22 02:42:00,
2013-04-21 22:43:00,27.3,6.7,29.82,NE,45,0.0,0.0,41,0.00,,---,0.00,VWS V14.01,2013-04-22 02:43:00,
2013-04-21 22:44:00,27.3,6.7,29.82,NE,45,0.0,0.0,41,0.00,,---,0.00,VWS V14.01,2013-04-22 02:44:00,
2013-04-21 22:45:00,27.3,6.7,29.82,NE,45,0.0,0.0,41,0.00,,---,0.00,VWS V14.01,2013-04-22 02:45:00,
2013-04-21 22:46:00,27.1,6.6,29.82,NE,45,0.0,0.0,41,0.00,,---,0.00,VWS V14.01,2013-04-22 02:46:00,
2013-04-21 22:47:00,27.1,6.6,29.82,NE,45,0.0,0.0,41,0.00,,---,0.00,VWS V14.01,2013-04-22 02:47:00,
2013-04-21 22:48:00,27.1,6.6,29.82,NE,45,0.0,0.0,41,0.00,,---,0.00,VWS V14.01,2013-04-22 02:48:00,
2013-04-21 22:49:00,27.1,6.6,29.82,NE,45,0.0,0.0,41,0.00,,---,0.00,VWS V14.01,2013-04-22 02:49:00,
2013-04-21 22:50:00,27.0,6.4,29.82,NE,45,0.0,0.0,41,0.00,,---,0.00,VWS V14.01,2013-04-22 02:50:00,
2013-04-21 22:51:00,27.0,6.4,29.82,NE,45,0.0,0.0,41,0.00,,---,0.00,VWS V14.01,2013-04-22 02:51:00,
2013-04-21 22:52:00,27.0,6.4,29.82,NE,45,0.0,0.0,41,0.00,,---,0.00,VWS V14.01,2013-04-22 02:52:00,
2013-04-21 22:53:00,27.0,6.4,29.82,NE,45,0.0,0.0,41,0.00,,---,0.00,VWS V14.01,2013-04-22 02:53:00,
2013-04-21 22:54:00,27.0,6.4,29.82,NE,45,0.0,0.0,41,0.00,,---,0.00,VWS V14.01,2013-04-22 02:54:00,
2013-04-21 22:55:00,26.8,6.2,29.82,NE,45,0.0,0.0,41,0.00,,---,0.00,VWS V14.01,2013-04-22 02:55:00,
2013-04-21 22:56:00,26.8,6.2,29.82,NE,45,0.0,0.0,41,0.00,,---,0.00,VWS V14.01,2013-04-22 02:56:00,
2013-04-21 22:57:00,26.8,6.2,29.82,NE,45,0.0,0.0,41,0.00,,---,0.00,VWS V14.01,2013-04-22 02:57:00,
2013-04-21 22:58:00,26.8,6.2,29.82,NE,45,0.0,0.0,41,0.00,,---,0.00,VWS V14.01,2013-04-22 02:58:00,
2013-04-21 22:59:00,26.6,6.1,29.82,NE,45,0.0,0.0,41,0.00,,---,0.00,VWS V14.01,2013-04-22 02:59:00,
2013-04-21 23:00:00,26.6,6.1,29.82,NE,45,0.0,0.0,41,0.00,,---,0.00,VWS V14.01,2013-04-22 03:00:00,
2013-04-21 23:01:00,26.6,6.6,29.82,NE,45,0.0,0.0,42,0.00,,---,0.00,VWS V14.01,2013-04-22 03:01:00,
2013-04-21 23:02:00,26.6,6.6,29.82,NE,45,0.0,0.0,42,0.00,,---,0.00,VWS V14.01,2013-04-22 03:02:00,
2013-04-21 23:03:00,26.6,6.6,29.82,NE,45,0.0,0.0,42,0.00,,---,0.00,VWS V14.01,2013-04-22 03:03:00,
2013-04-21 23:04:00,26.8,6.2,29.82,NE,45,0.0,0.0,41,0.00,,---,0.00,VWS V14.01,2013-04-22 03:04:00,
2013-04-21 23:05:00,26.8,6.2,29.82,NE,45,0.0,0.0,41,0.00,,---,0.00,VWS V14.01,2013-04-22 03:05:00,
2013-04-21 23:06:00,26.6,6.6,29.82,NE,45,0.0,0.0,42,0.00,,---,0.00,VWS V14.01,2013-04-22 03:06:00,
2013-04-21 23:07:00,26.4,6.4,29.82,NE,45,0.0,0.0,42,0.00,,---,0.00,VWS V14.01,2013-04-22 03:07:00,
2013-04-21 23:08:00,26.4,6.4,29.82,NE,45,0.0,0.0,42,0.00,,---,0.00,VWS V14.01,2013-04-22 03:08:00,
2013-04-21 23:09:00,26.4,6.4,29.85,NE,45,0.0,0.0,42,0.00,,---,0.00,VWS V14.01,2013-04-22 03:09:00,
2013-04-21 23:10:00,26.4,6.4,29.85,NE,45,0.0,0.0,42,0.00,,---,0.00,VWS V14.01,2013-04-22 03:10:00,
2013-04-21 23:11:00,26.6,6.6,29.85,NE,45,0.0,0.0,42,0.00,,---,0.00,VWS V14.01,2013-04-22 03:11:00,
2013-04-21 23:12:00,26.8,7.3,29.85,NE,45,0.0,0.0,43,0.00,,---,0.00,VWS V14.01,2013-04-22 03:12:00,
2013-04-21 23:13:00,26.8,7.3,29.85,NE,45,0.0,0.0,43,0.00,,---,0.00,VWS V14.01,2013-04-22 03:13:00,
2013-04-21 23:14:00,26.8,7.3,29.85,NE,45,0.0,0.0,43,0.00,,---,0.00,VWS V14.01,2013-04-22 03:14:00,
2013-04-21 23:15:00,27.0,7.5,29.85,NE,45,0.0,0.0,43,0.00,,---,0.00,VWS V14.01,2013-04-22 03:15:00,
2013-04-21 23:16:00,27.0,7.5,29.85,NE,45,0.0,0.0,43,0.00,,---,0.00,VWS V14.01,2013-04-22 03:16:00,
2013-04-21 23:17:00,27.0,7.5,29.85,NE,45,0.0,0.0,43,0.00,,---,0.00,VWS V14.01,2013-04-22 03:17:00,
2013-04-21 23:18:00,26.8,6.8,29.85,NE,45,0.0,0.0,42,0.00,,---,0.00,VWS V14.01,2013-04-22 03:18:00,
2013-04-21 23:19:00,26.8,6.8,29.85,NE,45,0.0,0.0,42,0.00,,---,0.00,VWS V14.01,2013-04-22 03:19:00,
2013-04-21 23:20:00,26.6,7.1,29.85,NE,45,0.0,0.0,43,0.00,,---,0.00,VWS V14.01,2013-04-22 03:20:00,
2013-04-21 23:21:00,26.6,7.1,29.85,NE,45,0.0,0.0,43,0.00,,---,0.00,VWS V14.01,2013-04-22 03:21:00,
2013-04-21 23:22:00,26.4,7.0,29.85,NE,45,0.0,0.0,43,0.00,,---,0.00,VWS V14.01,2013-04-22 03:22:00,
2013-04-21 23:23:00,26.4,6.4,29.85,NE,45,0.0,0.0,42,0.00,,---,0.00,VWS V14.01,2013-04-22 03:23:00,
2013-04-21 23:24:00,26.4,6.4,29.85,NE,45,0.0,0.0,42,0.00,,---,0.00,VWS V14.01,2013-04-22 03:24:00,
2013-04-21 23:25:00,26.2,6.3,29.85,NE,45,0.0,0.0,42,0.00,,---,0.00,VWS V14.01,2013-04-22 03:25:00,
2013-04-21 23:26:00,26.2,6.3,29.85,NE,45,0.0,0.0,42,0.00,,---,0.00,VWS V14.01,2013-04-22 03:26:00,
2013-04-21 23:27:00,26.1,6.1,29.85,NE,45,0.0,0.0,42,0.00,,---,0.00,VWS V14.01,2013-04-22 03:27:00,
2013-04-21 23:28:00,26.1,6.1,29.85,NE,45,0.0,0.0,42,0.00,,---,0.00,VWS V14.01,2013-04-22 03:28:00,
2013-04-21 23:29:00,26.1,6.1,29.85,NE,45,0.0,0.0,42,0.00,,---,0.00,VWS V14.01,2013-04-22 03:29:00,
2013-04-21 23:30:00,25.9,6.0,29.85,NE,45,0.0,0.0,42,0.00,,---,0.00,VWS V14.01,2013-04-22 03:30:00,
2013-04-21 23:31:00,25.9,6.0,29.85,NE,45,0.0,0.0,42,0.00,,---,0.00,VWS V14.01,2013-04-22 03:31:00,
2013-04-21 23:32:00,25.9,6.0,29.85,NE,45,0.0,0.0,42,0.00,,---,0.00,VWS V14.01,2013-04-22 03:32:00,
2013-04-21 23:33:00,25.9,6.0,29.85,NE,45,0.0,0.0,42,0.00,,---,0.00,VWS V14.01,2013-04-22 03:33:00,
2013-04-21 23:34:00,25.9,6.0,29.85,NE,45,0.0,0.0,42,0.00,,---,0.00,VWS V14.01,2013-04-22 03:34:00,
2013-04-21 23:35:00,25.9,6.0,29.85,NE,45,0.0,0.0,42,0.00,,---,0.00,VWS V14.01,2013-04-22 03:35:00,
2013-04-21 23:36:00,25.7,5.8,29.85,NE,45,0.0,0.0,42,0.00,,---,0.00,VWS V14.01,2013-04-22 03:36:00,
2013-04-21 23:37:00,25.7,5.8,29.85,NE,45,0.0,0.0,42,0.00,,---,0.00,VWS V14.01,2013-04-22 03:37:00,
2013-04-21 23:38:00,25.7,5.8,29.85,NE,45,0.0,0.0,42,0.00,,---,0.00,VWS V14.01,2013-04-22 03:38:00,
2013-04-21 23:39:00,25.7,5.8,29.85,NE,45,0.0,0.0,42,0.00,,---,0.00,VWS V14.01,2013-04-22 03:39:00,
2013-04-21 23:40:00,25.7,5.8,29.85,NE,45,0.0,0.0,42,0.00,,---,0.00,VWS V14.01,2013-04-22 03:40:00,
2013-04-21 23:41:00,25.7,5.8,29.85,NE,45,0.0,0.0,42,0.00,,---,0.00,VWS V14.01,2013-04-22 03:41:00,
2013-04-21 23:42:00,25.7,6.3,29.85,NE,45,0.0,0.0,43,0.00,,---,0.00,VWS V14.01,2013-04-22 03:42:00,
2013-04-21 23:43:00,25.7,6.3,29.85,NE,45,0.0,0.0,43,0.00,,---,0.00,VWS V14.01,2013-04-22 03:43:00,
2013-04-21 23:44:00,25.7,6.3,29.85,NE,45,0.0,0.0,43,0.00,,---,0.00,VWS V14.01,2013-04-22 03:44:00,
2013-04-21 23:45:00,25.7,6.3,29.85,NE,45,0.0,0.0,43,0.00,,---,0.00,VWS V14.01,2013-04-22 03:45:00,
2013-04-21 23:46:00,25.5,6.2,29.85,NE,45,0.0,0.0,43,0.00,,---,0.00,VWS V14.01,2013-04-22 03:46:00,
2013-04-21 23:47:00,25.5,6.2,29.85,NE,45,0.0,0.0,43,0.00,,---,0.00,VWS V14.01,2013-04-22 03:47:00,
2013-04-21 23:48:00,25.5,6.2,29.85,NE,45,0.0,0.0,43,0.00,,---,0.00,VWS V14.01,2013-04-22 03:48:00,
2013-04-21 23:49:00,25.5,6.2,29.85,NE,45,0.0,0.0,43,0.00,,---,0.00,VWS V14.01,2013-04-22 03:49:00,
2013-04-21 23:50:00,25.5,6.2,29.85,NE,45,0.0,0.0,43,0.00,,---,0.00,VWS V14.01,2013-04-22 03:50:00,
2013-04-21 23:51:00,25.5,6.2,29.85,NE,45,0.0,0.0,43,0.00,,---,0.00,VWS V14.01,2013-04-22 03:51:00,
2013-04-21 23:52:00,25.3,6.0,29.85,NE,45,0.0,0.0,43,0.00,,---,0.00,VWS V14.01,2013-04-22 03:52:00,
2013-04-21 23:53:00,25.3,6.0,29.85,NE,45,0.0,0.0,43,0.00,,---,0.00,VWS V14.01,2013-04-22 03:53:00,
2013-04-21 23:54:00,25.3,6.0,29.85,NE,45,0.0,0.0,43,0.00,,---,0.00,VWS V14.01,2013-04-22 03:54:00,
2013-04-21 23:55:00,25.3,6.0,29.85,NE,45,0.0,0.0,43,0.00,,---,0.00,VWS V14.01,2013-04-22 03:55:00,
2013-04-21 23:56:00,25.3,6.0,29.85,NE,45,0.0,0.0,43,0.00,,---,0.00,VWS V14.01,2013-04-22 03:56:00,
2013-04-21 23:57:00,25.3,6.0,29.85,NE,45,0.0,0.0,43,0.00,,---,0.00,VWS V14.01,2013-04-22 03:57:00,
2013-04-21 23:58:00,25.3,6.0,29.85,NE,45,0.0,0.0,43,0.00,,---,0.00,VWS V14.01,2013-04-22 03:58:00,
2013-04-21 23:59:00,25.2,5.8,29.85,NE,45,0.0,0.0,43,0.00,,---,0.00,VWS V14.01,2013-04-22 03:59:00,